Date StartTime U_cm/s V_cm/s W_cm/s Ustd_cm/s Vstd_cm/s Wstd_cm/s Uvar_(cm/s)^2 Vvar_(cm/s)^2 Wvar_(cm/s)^2 KE_(m/s)^2 TurbulentKE_(m/s)^2 HorizWindSpeed_cm/s FrictionSpeec_cm/s DragCoef SpeedOfSound_m/s SonicTemperature_C Pressure_mb 
12/22/2014  00:00:00     -147.888      -30.256       -6.275       60.192       63.963       33.057     3623.076     4091.274     1092.781        1.581        0.440      150.951       28.987        0.037      337.226        9.056      867.908
12/22/2014  00:01:00     -153.988      -85.269      -15.135       71.375       51.748       34.783     5094.444     2677.823     1209.880        2.010        0.449      176.020       26.457        0.023      337.051        8.761      867.904
12/22/2014  00:02:00     -188.403      -72.243      -31.216       48.336       42.799       30.570     2336.384     1831.784      934.499        2.339        0.255      201.778       12.389        0.004      337.079        8.808      867.906
12/22/2014  00:03:00     -238.965      -39.794      -22.245       46.619       53.189       29.610     2173.355     2829.063      876.777        3.253        0.294      242.255       23.566        0.009      336.955        8.598      867.915
12/22/2014  00:04:00     -201.639      -32.322      -13.826       68.545       72.491       44.600     4698.396     5254.929     1989.169        2.692        0.597      204.213       42.411        0.043      337.071        8.794      867.918
12/22/2014  00:05:00     -219.361       -4.947      -23.575       78.163       48.735       35.443     6109.515     2375.118     1256.188        2.922        0.487      219.417       40.380        0.034      337.205        9.019      867.933
12/22/2014  00:06:00     -211.162       -7.743      -21.086       55.686       42.556       27.525     3100.910     1810.983      757.645        2.538        0.283      211.304       19.393        0.008      337.395        9.339      867.937
12/22/2014  00:07:00     -130.645      -89.681      -11.711       41.924       49.028       29.082     1757.626     2403.739      845.750        1.513        0.250      158.464       17.281        0.012      337.164        8.952      867.951
12/22/2014  00:08:00     -209.990      -47.521      -30.561       49.056       50.055       25.405     2406.523     2505.513      645.430        2.642        0.278      215.300       17.006        0.006      337.061        8.777      867.954
12/22/2014  00:09:00     -215.968      -31.127      -28.323       60.661       83.218       41.811     3679.805     6925.232     1748.124        3.038        0.618      218.199       29.433        0.018      336.908        8.523      867.953
12/22/2014  00:10:00     -189.189        5.344      -26.753       62.213      117.085       50.161     3870.487    13708.791     2516.176        2.831        1.005      189.265       42.724        0.051      336.764        8.282      867.945
12/22/2014  00:11:00     -165.884      -26.812      -23.714       63.666       57.525       41.912     4053.372     3309.110     1756.610        1.896        0.456      168.037       38.767        0.053      337.005        8.686      867.955
12/22/2014  00:12:00     -105.929       -7.092       -9.728       58.398       42.716       31.567     3410.361     1824.697      996.467        0.880        0.312      106.166       23.470        0.049      337.134        8.901      867.966
12/22/2014  00:13:00     -104.045      -29.190      -15.611       36.848       53.928       24.977     1357.764     2908.204      623.832        0.840        0.244      108.062       20.544        0.036      337.135        8.904      867.966
12/22/2014  00:14:00     -150.163       -3.504      -18.712       48.879       47.588       28.357     2389.122     2264.601      804.137        1.418        0.273      150.204       24.386        0.026      337.555        9.609      867.943
12/22/2014  00:15:00     -130.892       13.248      -19.173       42.430       45.195       27.641     1800.318     2042.587      764.007        1.114        0.230      131.561       24.939        0.036      337.438        9.411      867.921
12/22/2014  00:16:00     -125.564       54.185      -21.832       51.317       45.073       28.339     2633.404     2031.538      803.124        1.232        0.273      136.757       13.681        0.010      337.362        9.284      867.895
12/22/2014  00:17:00     -140.002      -19.559      -13.343       46.622       44.491       26.996     2173.657     1979.431      728.774        1.252        0.244      141.362       20.007        0.020      337.304        9.186      867.887
12/22/2014  00:18:00     -153.563      -25.409      -18.147       24.062       28.822       20.060      578.972      830.687      402.395        1.318        0.091      155.651       13.408        0.007      337.082        8.817      867.897
12/22/2014  00:19:00      -98.439       24.891       -2.603       40.960       27.252       19.612     1677.695      742.675      384.639        0.656        0.140      101.537       15.676        0.024      337.500        9.516      867.877
12/22/2014  00:20:00     -111.254      -13.355       -6.668       41.746       35.831       19.128     1742.736     1283.885      365.898        0.800        0.170      112.053       14.350        0.016      337.807       10.031      867.854
12/22/2014  00:21:00     -155.146       30.536      -18.632       70.651       51.924       33.424     4991.590     2696.059     1117.175        1.708        0.440      158.123       36.771        0.054      337.422        9.385      867.869
12/22/2014  00:22:00     -174.192       38.031      -18.909       42.176       41.557       28.038     1778.843     1727.001      786.129        1.822        0.215      178.296       21.198        0.014      337.562        9.620      867.879
12/22/2014  00:23:00     -189.165      -29.411      -13.751       53.495       48.973       34.860     2861.669     2398.393     1215.191        2.166        0.324      191.438       33.915        0.031      337.005        8.686      867.898
12/22/2014  00:24:00     -144.161       11.357      -15.454       71.201       49.621       29.372     5069.644     2462.210      862.717        1.477        0.420      144.607       31.588        0.048      337.036        8.738      867.881
12/22/2014  00:25:00     -154.301      -33.256      -18.890       49.040       43.426       26.602     2404.970     1885.840      707.684        1.513        0.250      157.844       21.707        0.019      336.901        8.513      867.847
12/22/2014  00:26:00      -74.033      -30.227      -11.939       51.742       40.165       25.123     2677.243     1613.234      631.187        0.573        0.246       79.966       27.258        0.116      336.924        8.553      867.825
12/22/2014  00:27:00      -95.985      -40.237       -6.303       63.072       34.797       19.471     3978.036     1210.856      379.106        0.822        0.278      104.078       26.298        0.064      336.950        8.595      867.820
12/22/2014  00:28:00     -113.929        4.128      -11.848       61.039       51.229       19.637     3725.783     2624.395      385.623        0.994        0.337      114.004       15.762        0.019      337.059        8.780      867.821
12/22/2014  00:29:00     -181.026        9.221      -16.835       59.460       76.444       31.619     3535.486     5843.656      999.758        2.176        0.519      181.261       26.152        0.021      337.151        8.928      867.832
12/22/2014  00:30:00     -177.509      -27.353      -22.280       42.347       37.486       25.606     1793.245     1405.182      655.660        1.830        0.193      179.604       25.347        0.020      336.785        8.319      867.816
12/22/2014  00:31:00     -149.532      -31.663      -19.218       42.633       41.978       25.211     1817.565     1762.182      635.589        1.397        0.211      152.847       22.127        0.021      336.784        8.318      867.806
12/22/2014  00:32:00     -170.889      -17.130      -28.265       48.441       58.362       29.432     2346.529     3406.083      866.265        1.846        0.331      171.746       24.482        0.020      336.897        8.505      867.815
12/22/2014  00:33:00     -197.252      -17.063      -26.486       63.107       33.439       28.902     3982.485     1118.183      835.303        2.292        0.297      197.989       35.520        0.032      336.882        8.480      867.818
12/22/2014  00:34:00     -190.258      -20.948      -21.464       30.982       31.682       22.759      959.856     1003.754      517.972        1.979        0.124      191.408       16.897        0.008      336.906        8.520      867.823
12/22/2014  00:35:00     -186.469      -17.161      -23.024       33.732       31.077       21.433     1137.824      965.789      459.360        1.908        0.128      187.257       14.472        0.006      337.097        8.841      867.808
12/22/2014  00:36:00     -204.285       10.972      -22.043       38.321       34.265       25.163     1468.481     1174.122      633.176        2.281        0.164      204.580       16.680        0.007      337.249        9.093      867.798
12/22/2014  00:37:00     -200.141        7.765      -15.671       46.299       40.987       31.417     2143.564     1679.952      987.005        2.259        0.241      200.291       27.874        0.019      337.219        9.045      867.797
12/22/2014  00:38:00     -196.650      -57.282      -19.498       51.671       50.610       29.651     2669.898     2561.364      879.182        2.422        0.306      204.823       22.686        0.012      336.824        8.383      867.806
12/22/2014  00:39:00     -255.007      -30.228      -21.847       73.428       45.694       37.163     5391.672     2087.931     1381.123        3.764        0.443      256.792       37.014        0.021      336.875        8.465      867.796
12/22/2014  00:40:00     -278.553       13.717      -32.869       51.197       36.193       32.160     2621.113     1309.954     1034.263        4.191        0.248      278.890       28.094        0.010      337.178        8.972      867.790
12/22/2014  00:41:00     -241.558       38.139      -32.248       55.627       42.071       24.056     3094.380     1770.001      578.676        3.314        0.272      244.551       15.975        0.004      337.070        8.791      867.792
12/22/2014  00:42:00     -164.577        8.946      -13.124       36.830       51.164       29.399     1356.461     2617.719      864.306        1.609        0.242      164.820       23.227        0.020      337.217        9.041      867.785
12/22/2014  00:43:00     -130.116       -6.143      -18.015       40.445       53.138       25.440     1635.812     2823.602      647.217        1.120        0.255      130.261       23.455        0.032      337.162        8.949      867.793
12/22/2014  00:44:00      -82.647      -43.880        7.180       43.843       38.621       22.660     1922.251     1491.596      513.488        0.637        0.196       93.573       18.463        0.039      337.069        8.794      867.791
12/22/2014  00:45:00     -119.201      -38.301      -13.172       30.284       35.520       19.750      917.140     1261.689      390.067        0.921        0.128      125.203       18.922        0.023      336.906        8.522      867.784
12/22/2014  00:46:00     -123.708      -33.724      -13.966       50.555       45.475       24.003     2555.836     2067.991      576.149        1.092        0.260      128.223       27.140        0.045      336.930        8.561      867.776
12/22/2014  00:47:00     -139.030      -17.533      -12.077       58.587       43.604       29.229     3432.408     1901.310      854.333        1.298        0.309      140.131       31.463        0.050      337.019        8.711      867.757
12/22/2014  00:48:00     -153.246      -39.611      -17.459       45.905       55.515       33.313     2107.249     3081.970     1109.754        1.583        0.315      158.282       31.023        0.038      336.940        8.578      867.741
12/22/2014  00:49:00     -166.821      -77.190       -1.596       55.345       38.945       27.630     3063.123     1516.717      763.431        1.957        0.267      183.814       29.382        0.026      336.767        8.287      867.726
12/22/2014  00:50:00     -135.721      -14.141       -7.717       46.991       35.345       24.929     2208.181     1249.241      621.473        1.138        0.204      136.455       21.051        0.024      336.971        8.631      867.707
12/22/2014  00:51:00     -115.349      -42.495       -2.182       40.451       27.406       16.985     1636.264      751.100      288.507        0.890        0.134      122.927       20.035        0.027      336.938        8.575      867.695
12/22/2014  00:52:00     -192.683      -49.798      -14.053       50.560       37.732       22.120     2556.273     1423.701      489.278        2.214        0.223      199.014       18.267        0.008      336.815        8.368      867.706
12/22/2014  00:53:00     -130.640      -54.950       -4.559       68.077       49.231       38.028     4634.460     2423.684     1446.138        1.430        0.425      141.726       29.544        0.043      336.821        8.380      867.737
12/22/2014  00:54:00     -135.699      -29.540      -13.211       41.704       38.631       23.919     1739.199     1492.329      572.129        1.163        0.190      138.877       19.887        0.021      336.924        8.552      867.756
12/22/2014  00:55:00      -63.889       12.929        2.191       43.217       32.950       23.063     1867.684     1085.693      531.906        0.387        0.174       65.184       20.202        0.096      337.331        9.232      867.741
12/22/2014  00:56:00      -77.496        1.271       -5.257       43.131       25.071       19.694     1860.297      628.540      387.845        0.446        0.144       77.506       17.953        0.054      337.106        8.858      867.730
12/22/2014  00:57:00      -57.778       -4.279      -14.257       43.188       21.802       12.338     1865.207      475.321      152.225        0.303        0.125       57.936       11.930        0.042      336.926        8.556      867.728
12/22/2014  00:58:00      -52.601       33.282       -6.107       26.745       16.556       15.747      715.297      274.105      247.969        0.257        0.062       62.246       10.796        0.030      337.088        8.827      867.739
12/22/2014  00:59:00      -29.113       42.089      -10.133       46.356       19.785       17.007     2148.910      391.438      289.243        0.278        0.141       51.177        6.788        0.018      336.973        8.634      867.775
12/22/2014  01:00:00       32.614       16.455       10.517       14.099       15.180       22.076      198.795      230.438      487.357        0.118        0.046       36.530       11.164        0.093      336.691        8.164      867.827
12/22/2014  01:01:00       12.472       28.861       31.739       24.799       30.560       18.508      614.978      933.919      342.552        0.194        0.095       31.440       12.010        0.146      336.589        7.992      867.871
12/22/2014  01:02:00       29.453      -15.199       10.382       35.904       13.281       13.673     1289.080      176.397      186.946        0.143        0.083       33.143        7.007        0.045      336.635        8.070      867.889
12/22/2014  01:03:00       71.298      -43.141        6.910       16.296       17.668       12.099      265.572      312.156      146.397        0.386        0.036       83.334        7.308        0.008      336.771        8.298      867.877
12/22/2014  01:04:00       28.427      -28.224        7.889       16.147       19.474        9.552      260.725      379.226       91.239        0.120        0.037       40.059        8.920        0.050      336.697        8.177      867.881
12/22/2014  01:05:00       14.389      -36.183       20.149       25.088       36.700       23.836      629.392     1346.871      568.154        0.223        0.127       38.940       14.323        0.135      336.826        8.388      867.878
12/22/2014  01:06:00       -5.111      -43.992       16.558       27.456       21.222       19.955      753.807      450.353      398.219        0.192        0.080       44.288       12.554        0.080      336.903        8.515      867.886
12/22/2014  01:07:00      -10.388      -16.455        3.483        9.906       10.580       10.179       98.121      111.928      103.602        0.035        0.016       19.460        7.204        0.137      336.677        8.140      867.886
12/22/2014  01:08:00      -17.505      -12.303       -4.455        7.471        5.951        5.703       55.812       35.410       32.519        0.030        0.006       21.396        4.824        0.051      336.757        8.275      867.871
12/22/2014  01:09:00      -53.574      -29.935       -6.197       16.333       12.186        9.164      266.776      148.498       83.987        0.215        0.025       61.369        7.024        0.013      336.710        8.196      867.865
12/22/2014  01:10:00      -95.105       -6.979      -15.767       15.309       19.037       11.915      234.352      362.395      141.975        0.504        0.037       95.361        9.282        0.009      336.682        8.148      867.864
12/22/2014  01:11:00     -131.344       -0.572      -21.342       30.142       18.195       20.365      908.557      331.075      414.716        0.968        0.083      131.345       18.394        0.020      336.651        8.097      867.866
12/22/2014  01:12:00     -118.027        1.994      -17.623       33.499       26.259       22.250     1122.209      689.534      495.041        0.828        0.115      118.044       21.740        0.034      336.736        8.238      867.852
12/22/2014  01:13:00     -125.694       -3.665      -15.664       30.654       29.994       18.015      939.638      899.610      324.529        0.911        0.108      125.747       17.267        0.019      336.657        8.106      867.847
12/22/2014  01:14:00     -113.053      -10.654      -14.491       32.212       27.606       17.699     1037.645      762.078      313.259        0.761        0.106      113.553       15.947        0.020      336.345        7.584      867.826
12/22/2014  01:15:00     -121.590      -16.220       -8.525       29.747       22.282       13.861      884.904      496.497      192.139        0.835        0.079      122.667       12.399        0.010      336.112        7.196      867.791
12/22/2014  01:16:00      -86.881      -36.265       -7.249       19.164       20.044       13.070      367.269      401.779      170.816        0.493        0.047       94.146        9.185        0.010      336.075        7.132      867.770
12/22/2014  01:17:00     -119.075      -22.620       -8.750       28.336       18.975       13.549      802.905      360.051      183.589        0.806        0.067      121.204       13.251        0.012      336.177        7.304      867.757
12/22/2014  01:18:00     -116.194      -23.993       -7.239       38.062       35.187       19.467     1448.678     1238.123      378.965        0.860        0.153      118.645       21.157        0.032      336.140        7.242      867.775
12/22/2014  01:19:00      -69.846      -21.562        0.519       32.065       29.796       20.121     1028.157      887.796      404.874        0.383        0.116       73.098       19.695        0.073      336.253        7.431      867.812
12/22/2014  01:20:00      -32.563      -34.356        4.899       42.766       19.555       18.738     1828.969      382.401      351.106        0.241        0.128       47.336       21.369        0.204      336.254        7.432      867.847
12/22/2014  01:21:00        3.220        3.955       16.467       11.019       13.014        7.249      121.409      169.356       52.554        0.032        0.017        5.100        7.211        1.999      336.143        7.248      867.865
12/22/2014  01:22:00       18.390       11.215       -3.234       27.138       17.921       16.587      736.487      321.179      275.120        0.090        0.067       21.540       17.472        0.658      336.127        7.220      867.865
12/22/2014  01:23:00       29.286       24.744       16.355       19.977       20.578       18.134      399.067      423.471      328.859        0.144        0.058       38.340       15.699        0.168      336.133        7.232      867.868
12/22/2014  01:24:00       33.488       40.792       42.616       25.920       19.256       12.151      671.860      370.788      147.656        0.290        0.060       52.778        6.351        0.014      336.243        7.414      867.849
12/22/2014  01:25:00       11.883       55.480       57.803       24.726       27.610       16.745      611.352      762.298      280.381        0.411        0.083       56.738       11.215        0.039      336.293        7.497      867.797
12/22/2014  01:26:00       28.958       38.768       45.137       23.948       22.385       21.806      573.509      501.069      475.498        0.296        0.078       48.389       13.034        0.073      336.222        7.380      867.758
12/22/2014  01:27:00       16.256       22.989       27.190       18.101       16.389       18.106      327.656      268.596      327.817        0.123        0.046       28.155       13.042        0.215      336.205        7.349      867.776
12/22/2014  01:28:00        8.934        6.788        2.959        9.313        8.499        5.936       86.730       72.236       35.235        0.016        0.010       11.220        4.452        0.157      336.235        7.402      867.789
12/22/2014  01:29:00       20.373        5.188        8.734       20.520       11.046        6.864      421.074      122.024       47.121        0.055        0.030       21.023        5.125        0.059      336.473        7.799      867.787
12/22/2014  01:30:00      -14.111      -24.633        5.514       13.307        8.428       10.967      177.076       71.027      120.274        0.060        0.018       28.389        7.377        0.068      336.274        7.465      867.789
12/22/2014  01:31:00      -15.234      -19.934       -2.809       14.095       11.086        6.834      198.657      122.910       46.706        0.050        0.018       25.088        5.186        0.043      336.236        7.401      867.772
12/22/2014  01:32:00       12.776       -0.349        3.072        7.219       10.395        6.178       52.119      108.050       38.165        0.019        0.010       12.781        6.486        0.258      336.272        7.462      867.750
12/22/2014  01:33:00      -17.129       12.571       -6.345       21.600       16.366        8.286      466.555      267.842       68.665        0.065        0.040       21.247        1.148        0.003      336.533        7.899      867.722
12/22/2014  01:34:00      -42.085       -5.223        1.952       11.514       10.883        9.003      132.569      118.436       81.056        0.107        0.017       42.408        7.991        0.036      336.761        8.279      867.705
12/22/2014  01:35:00      -63.055      -17.150       -6.949       17.390        8.715        4.358      302.421       75.953       18.992        0.236        0.020       65.346        3.494        0.003      336.231        7.394      867.708
12/22/2014  01:36:00      -61.532       -8.550      -13.477       11.928        8.445        5.015      142.276       71.321       25.153        0.214        0.012       62.123        1.970        0.001      336.274        7.463      867.702
12/22/2014  01:37:00      -39.038      -26.120      -12.267       16.814       16.208       10.467      282.699      262.697      109.563        0.151        0.033       46.971       10.560        0.051      336.068        7.122      867.682
12/22/2014  01:38:00      -79.757      -22.700       -8.862       29.472       10.569        7.370      868.593      111.698       54.320        0.399        0.052       82.924        4.513        0.003      336.020        7.040      867.670
12/22/2014  01:39:00      -97.654      -19.900        2.443       41.131       27.016       21.667     1691.799      729.867      469.471        0.641        0.145       99.661       22.879        0.053      335.891        6.827      867.679
12/22/2014  01:40:00      -54.529      -21.094        9.336       35.836       24.355       17.711     1284.236      593.149      313.678        0.285        0.110       58.467       15.078        0.067      335.799        6.674      867.683
12/22/2014  01:41:00      -46.782      -16.241        2.105       26.103       16.967       10.324      681.348      287.885      106.585        0.177        0.054       49.521        7.779        0.025      335.977        6.970      867.663
12/22/2014  01:42:00       16.282        9.543       17.068       12.887       13.255       11.633      166.078      175.694      135.337        0.056        0.024       18.872        6.643        0.124      335.916        6.868      867.638
12/22/2014  01:43:00        6.733       13.540       14.434       25.143       25.920       28.915      632.160      671.843      836.099        0.129        0.107       15.122       21.959        2.109      335.876        6.802      867.621
12/22/2014  01:44:00       59.461       56.919       30.567       27.598       21.131       24.508      761.675      446.518      600.666        0.476        0.090       82.312        5.075        0.004      335.940        6.908      867.570
12/22/2014  01:45:00       26.230       27.790       11.187       13.788       13.174       13.478      190.100      173.565      181.663        0.107        0.027       38.214        3.460        0.008      335.959        6.940      867.537
12/22/2014  01:46:00       -4.230       22.363       -0.066       17.580        6.474        7.966      309.059       41.908       63.453        0.047        0.021       22.760        9.898        0.189      336.266        7.452      867.514
12/22/2014  01:47:00      -22.449        6.181       -1.790       17.823       19.455       10.489      317.650      378.479      110.025        0.068        0.040       23.285        4.525        0.038      336.175        7.299      867.499
12/22/2014  01:48:00      -12.186       25.700        1.531       13.200       15.370       12.506      174.251      236.227      156.392        0.069        0.028       28.443       10.544        0.137      336.184        7.316      867.509
12/22/2014  01:49:00        8.775       17.539        3.766        9.761        8.926        5.970       95.275       79.668       35.642        0.030        0.011       19.611        4.108        0.044      336.313        7.529      867.527
12/22/2014  01:50:00       21.768       33.495        2.806        9.319        9.863        7.759       86.837       97.279       60.202        0.092        0.012       39.947        5.919        0.022      336.324        7.549      867.524
12/22/2014  01:51:00       -1.426       63.200       -9.286       13.905       21.004        8.071      193.339      441.184       65.148        0.239        0.035       63.216       10.165        0.026      336.235        7.400      867.525
12/22/2014  01:52:00      -19.263      143.828      -26.752       17.100       23.804       17.476      292.406      566.642      305.406        1.147        0.058      145.112       10.675        0.005      335.937        6.904      867.562
12/22/2014  01:53:00      -18.215      114.239      -10.148       27.051       44.620       23.283      731.769     1990.987      542.117        0.837        0.163      115.682       25.900        0.050      335.913        6.864      867.584
12/22/2014  01:54:00       -8.930      173.062      -24.992       14.739       16.966        7.787      217.250      287.830       60.639        1.561        0.028      173.292        5.450        0.001      336.120        7.208      867.591
12/22/2014  01:55:00      -32.023      130.417      -21.431       22.067       39.284       18.184      486.933     1543.238      330.656        1.043        0.118      134.291       19.481        0.021      336.296        7.503      867.629
12/22/2014  01:56:00      -37.726      104.925       -8.793       32.271       39.349       18.892     1041.407     1548.309      356.911        0.773        0.147      111.501       18.813        0.028      336.241        7.410      867.654
12/22/2014  01:57:00       12.162      175.282      -31.315       23.152       22.276       14.047      536.024      496.227      197.322        1.654        0.061      175.703       12.416        0.005      336.368        7.623      867.645
12/22/2014  01:58:00       20.323      158.133      -37.721       16.734       22.357       11.984      280.026      499.825      143.627        1.388        0.046      159.433        8.311        0.003      336.463        7.782      867.644
12/22/2014  01:59:00      -36.634       62.854       -6.617       35.823       65.551       26.211     1283.273     4296.938      687.040        0.580        0.313       72.750       31.663        0.189      336.248        7.424      867.689
12/22/2014  02:00:00      -21.309      -16.204        0.706       14.916       14.789       10.697      222.476      218.728      114.431        0.064        0.028       26.770        5.295        0.039      335.945        6.916      867.735
12/22/2014  02:01:00      -48.302       -3.368      -10.753       15.359       27.825       12.156      235.884      774.252      147.766        0.181        0.058       48.419       15.649        0.104      335.972        6.963      867.745
12/22/2014  02:02:00      -59.950        3.006       -8.508       23.183       26.097       12.938      537.457      681.033      167.400        0.253        0.069       60.025       11.523        0.037      335.956        6.935      867.736
12/22/2014  02:03:00      -40.758      -12.430       -9.491       24.668       19.844       13.196      608.527      393.783      174.126        0.154        0.059       42.611       11.641        0.075      335.872        6.796      867.710
12/22/2014  02:04:00      -80.040       -9.420       -6.114       24.498       19.875       13.308      600.153      395.012      177.091        0.385        0.059       80.592       12.735        0.025      335.645        6.417      867.712
12/22/2014  02:05:00     -108.051      -37.476      -11.362       21.796       16.919       10.451      475.081      286.237      109.220        0.704        0.044      114.365       10.181        0.008      335.566        6.286      867.718
12/22/2014  02:06:00      -96.740      -27.574      -15.628       13.095       18.273        8.899      171.481      333.917       79.192        0.547        0.029      100.593        3.478        0.001      335.754        6.599      867.708
12/22/2014  02:07:00     -123.302       14.039      -12.375       22.849       15.583        8.320      522.069      242.844       69.216        0.819        0.042      124.098       10.090        0.007      335.937        6.904      867.714
12/22/2014  02:08:00      -74.529        2.877      -10.763       41.548       23.276       18.126     1726.266      541.752      328.568        0.414        0.130       74.584       21.039        0.080      335.648        6.420      867.742
12/22/2014  02:09:00      -15.626      -27.626       -2.514       22.514       17.589       11.425      506.870      309.359      130.537        0.098        0.047       31.739       10.170        0.103      335.659        6.441      867.757
12/22/2014  02:10:00      -28.921      -24.289      -10.869       21.181       23.329       10.849      448.645      544.261      117.690        0.133        0.056       37.767       11.469        0.092      336.282        7.481      867.772
12/22/2014  02:11:00      -41.615      -19.844       -7.291       13.598       14.737        8.236      184.911      217.166       67.829        0.132        0.023       46.104        3.459        0.006      335.884        6.815      867.800
12/22/2014  02:12:00        1.354       10.152       -3.851       10.194       23.079        7.477      103.915      532.637       55.903        0.041        0.035       10.242        6.737        0.433      336.111        7.195      867.833
12/22/2014  02:13:00       13.529       19.138        3.146       11.836       12.232       10.869      140.087      149.630      118.128        0.048        0.020       23.437        4.666        0.040      336.306        7.519      867.859
12/22/2014  02:14:00        5.319       83.494      -10.547        9.503       21.865        8.819       90.307      478.064       77.767        0.388        0.032       83.663       10.586        0.016      336.132        7.229      867.881
12/22/2014  02:15:00       -1.335      109.876      -14.953       15.216       17.075        6.740      231.522      291.558       45.425        0.643        0.028      109.885        5.261        0.002      336.179        7.307      867.925
12/22/2014  02:16:00      -22.220      107.855      -19.479       21.173       27.040       11.325      448.297      731.155      128.250        0.691        0.065      110.120        6.390        0.003      336.512        7.866      867.953
12/22/2014  02:17:00      -44.570      -14.999        1.080       26.752       29.058       13.034      715.667      844.343      169.875        0.197        0.086       47.026       13.931        0.088      335.825        6.716      867.970
12/22/2014  02:18:00      -63.762      -29.393       -8.660       17.771       11.212        8.861      315.796      125.703       78.521        0.276        0.026       70.210        5.494        0.006      335.411        6.028      867.964
12/22/2014  02:19:00      -56.513      -13.669       -5.915       26.917       21.749       11.181      724.520      473.032      125.007        0.237        0.066       58.143        5.750        0.010      335.373        5.962      867.933
12/22/2014  02:20:00      -26.580        5.166       -5.702       29.210       11.687       10.816      853.246      136.594      116.976        0.094        0.055       27.078       11.438        0.178      335.631        6.393      867.884
12/22/2014  02:21:00       28.476       27.240        4.342        9.503        7.104        8.171       90.312       50.470       66.760        0.089        0.010       39.407        5.034        0.016      336.052        7.094      867.845
12/22/2014  02:22:00       -4.435        3.020       11.359       29.248       31.941       13.801      855.451     1020.259      190.455        0.111        0.103        5.365       12.797        5.689      335.746        6.586      867.834
12/22/2014  02:23:00      -75.407      -38.435      -16.565       15.799        8.318        7.237      249.597       69.186       52.377        0.390        0.019       84.637        6.634        0.006      335.461        6.109      867.819
12/22/2014  02:24:00      -87.770      -25.001      -12.711        9.022       11.152        8.489       81.399      124.366       72.062        0.438        0.014       91.261        2.035        0.000      335.338        5.905      867.795
12/22/2014  02:25:00      -95.828      -14.667      -16.397       22.194       18.925       10.707      492.595      358.157      114.630        0.532        0.048       96.944        8.925        0.008      335.369        5.956      867.771
12/22/2014  02:26:00      -59.921       -0.690      -18.885       34.299       11.264        6.625     1176.391      126.878       43.892        0.265        0.067       59.925        5.582        0.009      335.734        6.567      867.754
12/22/2014  02:27:00       28.499       13.825       -2.704       11.016       10.159        9.792      121.344      103.205       95.887        0.067        0.016       31.675        8.953        0.080      336.398        7.671      867.735
12/22/2014  02:28:00       31.131       26.249        2.063        8.557        6.518        4.737       73.214       42.490       22.442        0.090        0.007       40.720        4.548        0.012      336.352        7.598      867.722
12/22/2014  02:29:00       19.897       36.456       -1.692       15.402        9.840        4.621      237.236       96.818       21.350        0.104        0.018       41.532        6.227        0.022      336.651        8.097      867.726
12/22/2014  02:30:00      -23.663       32.570       -4.446       16.533       15.602       10.745      273.350      243.410      115.456        0.114        0.032       40.258        9.256        0.053      336.454        7.767      867.732
12/22/2014  02:31:00      -77.999       -9.398      -10.609       21.163       32.304       10.909      447.890     1043.559      119.010        0.395        0.081       78.563        5.945        0.006      335.472        6.129      867.719
12/22/2014  02:32:00     -126.803      -30.997      -16.822       29.635       23.781       17.140      878.260      565.557      293.774        0.953        0.087      130.537       12.816        0.010      335.102        5.515      867.690
12/22/2014  02:33:00     -127.770      -24.668      -15.872       39.314       35.773       22.085     1545.563     1279.680      487.768        1.025        0.166      130.129       12.712        0.010      335.103        5.516      867.678
12/22/2014  02:34:00      -93.556        5.370       -7.058       44.245       37.986       28.388     1957.649     1442.967      805.881        0.652        0.210       93.710       22.756        0.059      335.161        5.612      867.695
12/22/2014  02:35:00     -122.183       -2.966       -8.552       63.427       52.552       26.359     4023.033     2761.745      694.774        1.124        0.374      122.219       25.465        0.043      335.480        6.141      867.723
12/22/2014  02:36:00     -150.218       60.847      -16.741       45.962       35.228       29.182     2112.535     1241.029      851.562        1.538        0.210      162.073       17.885        0.012      335.754        6.598      867.746
12/22/2014  02:37:00      -84.777       37.011       -4.117       60.791       30.166       22.792     3695.495      910.014      519.491        0.685        0.256       92.504       21.343        0.053      335.720        6.543      867.750
12/22/2014  02:38:00      -76.118       30.835      -16.361       21.969       20.990       13.426      482.623      440.566      180.257        0.406        0.055       82.127       10.378        0.016      335.937        6.903      867.734
12/22/2014  02:39:00      -40.132       29.160       -7.228       32.782       26.360       17.125     1074.629      694.849      293.250        0.229        0.103       49.607       20.415        0.169      336.191        7.327      867.712
12/22/2014  02:40:00        2.075       35.138       -3.175       27.925       23.682       17.977      779.797      560.851      323.188        0.146        0.083       35.199       13.947        0.157      336.330        7.559      867.695
12/22/2014  02:41:00       13.596       53.121       -5.673       24.298       21.530       14.420      590.400      463.534      207.939        0.215        0.063       54.833        9.784        0.032      336.433        7.731      867.671
12/22/2014  02:42:00      -69.537        1.030       -3.826       33.488       45.028       19.146     1121.443     2027.506      366.566        0.418        0.176       69.544       18.640        0.072      335.841        6.744      867.672
12/22/2014  02:43:00     -124.049      -22.663      -20.843       19.100       22.073       14.405      364.803      487.233      207.499        0.870        0.053      126.102        8.387        0.004      335.238        5.739      867.696
12/22/2014  02:44:00      -98.580        8.368      -12.270       23.430       20.901       18.508      548.946      436.868      342.548        0.563        0.066       98.935       14.674        0.022      335.459        6.107      867.694
12/22/2014  02:45:00      -26.446       24.233       -7.010       28.547       37.283       11.546      814.940     1390.047      133.315        0.184        0.117       35.869        9.937        0.077      336.105        7.184      867.645
12/22/2014  02:46:00       24.137       53.672       -0.583       11.010       21.486       12.198      121.226      461.664      148.798        0.210        0.037       58.850       13.238        0.051      336.409        7.692      867.596
12/22/2014  02:47:00        8.194       23.747       -0.245        8.571       13.391        7.425       73.456      179.311       55.131        0.047        0.015       25.121        3.838        0.023      336.165        7.283      867.579
12/22/2014  02:48:00      -13.105       25.994       -5.910       10.033       13.055        4.606      100.656      170.421       21.219        0.059        0.015       29.110        3.017        0.011      336.468        7.791      867.582
12/22/2014  02:49:00       11.037       39.204        2.348       12.808       12.913        6.992      164.033      166.742       48.894        0.102        0.019       40.728        6.139        0.023      336.728        8.225      867.589
12/22/2014  02:50:00       18.324        9.858        5.969       10.067       12.711       10.562      101.351      161.563      111.553        0.042        0.019       20.808        4.023        0.037      336.272        7.462      867.592
12/22/2014  02:51:00       -2.928       -9.702        3.119       12.548       13.224        4.818      157.453      174.883       23.212        0.023        0.018       10.134        5.578        0.303      336.231        7.394      867.582
12/22/2014  02:52:00      -37.672      -31.057       -8.021       13.501        8.857        9.156      182.276       78.455       83.829        0.140        0.017       48.823        5.398        0.012      335.866        6.786      867.570
12/22/2014  02:53:00      -54.939      -15.775      -10.593       16.827       10.735        5.315      283.158      115.238       28.252        0.190        0.021       57.159        6.237        0.012      335.798        6.672      867.549
12/22/2014  02:54:00     -103.682       -0.604      -17.284       19.598        7.588        7.161      384.071       57.584       51.281        0.577        0.025      103.684        4.806        0.002      335.445        6.082      867.546
12/22/2014  02:55:00      -94.451       -5.720      -16.749       30.861       26.953       14.833      952.419      726.442      220.012        0.557        0.095       94.624       11.438        0.015      335.320        5.875      867.585
12/22/2014  02:56:00      -61.471      -12.787       -7.909       46.702       27.277       18.483     2181.117      744.055      341.639        0.364        0.163       62.787       16.434        0.069      335.352        5.928      867.595
12/22/2014  02:57:00     -140.225      -40.504      -10.049       42.162       29.607       18.389     1777.626      876.601      338.138        1.220        0.150      145.958       16.435        0.013      335.207        5.688      867.619
12/22/2014  02:58:00     -143.017      -49.855       -7.885       33.760       46.828       23.268     1139.740     2192.852      541.403        1.344        0.194      151.457       20.123        0.018      335.247        5.753      867.661
12/22/2014  02:59:00     -148.372      -21.362      -21.884       36.539       26.528       27.523     1335.122      703.759      757.512        1.287        0.140      149.902       18.507        0.015      335.309        5.858      867.672
12/22/2014  03:00:00      -48.086       -9.388        2.652       29.034       26.365       21.619      842.982      695.123      467.378        0.221        0.100       48.994       14.531        0.088      335.334        5.898      867.628
12/22/2014  03:01:00      -86.432        2.493       -1.723       42.061       20.173       14.487     1769.169      406.961      209.867        0.493        0.119       86.467       17.592        0.041      335.291        5.826      867.602
12/22/2014  03:02:00      -89.711        4.973       -8.403       29.868       23.818       18.629      892.109      567.302      347.024        0.497        0.090       89.849       15.903        0.031      335.535        6.234      867.608
12/22/2014  03:03:00      -53.429      -27.498      -10.400       25.221       17.435       11.168      636.116      303.992      124.729        0.239        0.053       60.090        9.586        0.025      335.459        6.107      867.605
12/22/2014  03:04:00      -42.750      -25.349      -10.497       14.318       12.548        9.842      205.016      157.441       96.863        0.152        0.023       49.701        3.739        0.006      335.842        6.746      867.570
12/22/2014  03:05:00      -39.703      -14.232       -4.353       11.338        8.628        9.870      128.548       74.447       97.424        0.105        0.015       42.177        4.157        0.010      335.799        6.674      867.526
12/22/2014  03:06:00      -56.139       -8.822      -11.406       21.289       17.843        8.795      453.226      318.360       77.357        0.210        0.042       56.828       10.107        0.032      335.552        6.262      867.500
12/22/2014  03:07:00      -88.176       -1.864      -17.142       22.050       10.578       12.782      486.205      111.903      163.373        0.442        0.038       88.195        6.480        0.005      335.375        5.965      867.520
12/22/2014  03:08:00      -69.742      -16.999       -9.471       29.420       19.706       11.938      865.526      388.333      142.524        0.332        0.070       71.784       12.665        0.031      335.311        5.859      867.552
12/22/2014  03:09:00      -99.092      -22.871      -16.044       19.880       19.763       15.000      395.225      390.569      225.003        0.581        0.051      101.698        8.197        0.006      335.140        5.577      867.567
12/22/2014  03:10:00      -99.130      -13.254      -17.374       26.576       28.875       15.011      706.268      833.774      225.341        0.603        0.088      100.012       10.565        0.011      335.086        5.487      867.578
12/22/2014  03:11:00      -75.842       -8.276       -8.878       25.574       21.688       15.260      654.012      470.371      232.874        0.363        0.068       76.293       15.395        0.041      335.077        5.472      867.589
12/22/2014  03:12:00     -103.530       -5.271      -11.407       39.528       29.886       19.369     1562.427      893.192      375.156        0.685        0.142      103.664       19.216        0.034      335.272        5.795      867.588
12/22/2014  03:13:00      -90.131      -14.090       -5.220       50.675       40.896       22.937     2567.974     1672.515      526.108        0.656        0.238       91.225       23.098        0.064      335.401        6.009      867.587
12/22/2014  03:14:00      -89.836       -4.069       -6.066       51.339       36.076       20.650     2635.676     1301.470      426.423        0.624        0.218       89.928       21.856        0.059      335.455        6.100      867.573
12/22/2014  03:15:00      -78.162        0.008       -7.470       50.745       31.957       24.491     2575.014     1021.264      599.811        0.518        0.210       78.162       25.125        0.103      335.535        6.234      867.542
12/22/2014  03:16:00      -93.372        9.373      -18.397       32.780       33.490       17.321     1074.509     1121.574      300.028        0.582        0.125       93.842       11.264        0.014      335.437        6.070      867.500
12/22/2014  03:17:00      -70.820      -22.240      -14.851       22.493       33.438       19.294      505.943     1118.098      372.250        0.386        0.100       74.230       14.575        0.039      335.397        6.002      867.455
12/22/2014  03:18:00      -57.782      -27.275      -10.274       19.872       21.908       12.571      394.893      479.974      158.018        0.261        0.052       63.896        7.734        0.015      335.211        5.693      867.445
12/22/2014  03:19:00      -45.847      -33.955       -5.433       16.306       15.455       12.992      265.901      238.849      168.797        0.198        0.034       57.051        7.727        0.018      335.304        5.847      867.446
12/22/2014  03:20:00      -76.545      -18.758      -14.829       28.591       22.861       10.432      817.471      522.608      108.835        0.394        0.072       78.810       13.609        0.030      335.494        6.165      867.436
12/22/2014  03:21:00      -98.232      -36.294      -14.704       16.448       21.920       13.310      270.541      480.497      177.162        0.606        0.046      104.722       10.576        0.010      335.178        5.639      867.412
12/22/2014  03:22:00      -36.067      -10.962       -0.290       41.912       40.547       17.293     1756.603     1644.093      299.051        0.256        0.185       37.696       14.045        0.139      335.268        5.791      867.391
12/22/2014  03:23:00      -13.381       20.255       -3.545       32.026       23.949       15.629     1025.685      573.557      244.263        0.122        0.092       24.276       15.318        0.398      335.563        6.280      867.382
12/22/2014  03:24:00       -8.767       33.804       -9.460       15.619       15.705       10.764      243.947      246.637      115.864        0.096        0.030       34.923        7.729        0.049      335.865        6.785      867.372
12/22/2014  03:25:00      -38.016       -3.418       -2.356       29.688       26.079       13.721      881.372      680.112      188.265        0.161        0.087       38.169       17.258        0.204      335.768        6.620      867.382
12/22/2014  03:26:00      -93.876      -48.809      -14.839       16.351       14.244       10.875      267.361      202.882      118.267        0.600        0.029      105.807        7.747        0.005      335.270        5.792      867.400
12/22/2014  03:27:00      -96.824      -47.309      -19.273       19.948       23.421       15.168      397.929      548.531      230.081        0.658        0.059      107.764       11.088        0.011      335.206        5.684      867.407
12/22/2014  03:28:00      -68.215      -49.996       -3.907       42.058       22.274       22.371     1768.862      496.133      500.482        0.497        0.138       84.575       27.108        0.103      335.168        5.622      867.393
12/22/2014  03:29:00      -83.848      -48.725      -10.788       41.440       30.380       26.386     1717.277      922.940      696.233        0.643        0.167       96.977       15.079        0.024      335.191        5.661      867.377
12/22/2014  03:30:00     -121.835      -30.739       -7.284       23.079       24.521       16.233      532.628      601.266      263.525        0.862        0.070      125.653        9.965        0.006      335.199        5.675      867.362
12/22/2014  03:31:00     -102.277      -39.329       -6.932       30.286       23.159       14.034      917.221      536.317      196.955        0.685        0.083      109.578       13.291        0.015      335.299        5.838      867.358
12/22/2014  03:32:00      -94.720      -33.906      -14.476       13.826       10.581       10.501      191.168      111.965      110.268        0.537        0.021      100.606        5.233        0.003      335.383        5.981      867.369
12/22/2014  03:33:00      -94.717      -40.426      -10.543       17.095       15.717       13.333      292.222      247.027      177.763        0.572        0.036      102.983        9.499        0.009      335.335        5.898      867.381
12/22/2014  03:34:00     -101.103      -53.010       -7.405       19.993       15.834       12.276      399.731      250.718      150.688        0.694        0.040      114.157        9.053        0.006      335.327        5.886      867.361
12/22/2014  03:35:00      -76.687      -45.046       -8.203       13.222       14.028        8.663      174.834      196.778       75.056        0.421        0.022       88.938        6.986        0.006      335.345        5.918      867.319
12/22/2014  03:36:00      -87.416      -30.608      -10.084       15.408       13.977       12.503      237.411      195.348      156.323        0.463        0.029       92.620        9.421        0.010      335.355        5.931      867.280
12/22/2014  03:37:00     -127.781      -44.418      -14.240       22.130       12.531       12.936      489.735      157.024      167.328        0.966        0.041      135.281        9.597        0.005      335.443        6.080      867.269
12/22/2014  03:38:00     -129.868      -56.908       -8.662       20.159       20.202       11.823      406.392      408.135      139.776        1.057        0.048      141.789        7.562        0.003      335.328        5.889      867.255
12/22/2014  03:39:00      -80.359      -43.202       -5.100       19.329       16.008       14.740      373.619      256.256      217.253        0.460        0.042       91.236       10.314        0.013      335.161        5.611      867.239
12/22/2014  03:40:00      -65.409      -15.162       -9.531       11.997       10.484        6.307      143.919      109.907       39.776        0.245        0.015       67.144        4.892        0.005      335.301        5.843      867.239
12/22/2014  03:41:00      -64.485       -1.571      -10.443       31.173       16.057        9.658      971.765      257.822       93.280        0.280        0.066       64.504        7.987        0.015      335.427        6.052      867.269
12/22/2014  03:42:00      -35.933      -12.231       -9.263       18.906       25.843       11.623      357.446      667.879      135.085        0.134        0.058       37.958        6.524        0.030      335.366        5.951      867.298
12/22/2014  03:43:00      -29.126      -45.664       -5.141       23.360       17.922       14.103      545.712      321.211      198.892        0.201        0.053       54.162       13.791        0.065      335.353        5.930      867.299
12/22/2014  03:44:00      -26.253      -33.792        5.250       41.729       35.096       22.673     1741.334     1231.745      514.050        0.267        0.174       42.792       23.189        0.294      335.317        5.870      867.276
12/22/2014  03:45:00     -128.301      -42.883      -12.385       15.105       21.581       12.631      228.164      465.743      159.545        0.965        0.043      135.278        5.019        0.001      335.227        5.718      867.245
12/22/2014  03:46:00      -96.211      -31.292       -7.783       28.344       27.113       16.887      803.399      735.127      285.161        0.606        0.091      101.172       13.547        0.018      335.159        5.609      867.248
12/22/2014  03:47:00      -97.202      -45.712      -14.272       16.220       17.475       10.599      263.099      305.378      112.337        0.621        0.034      107.414        6.755        0.004      335.176        5.635      867.265
12/22/2014  03:48:00      -78.007      -31.758      -11.468       15.030       16.832       10.051      225.904      283.316      101.014        0.392        0.031       84.224        6.854        0.007      335.196        5.669      867.267
12/22/2014  03:49:00      -72.938      -29.002      -15.681       10.456        7.945        6.886      109.332       63.117       47.414        0.331        0.011       78.492        3.915        0.002      335.317        5.870      867.244
12/22/2014  03:50:00     -107.344      -38.610      -22.058       18.141       15.610        9.898      329.096      243.660       97.967        0.709        0.034      114.076        9.105        0.006      335.215        5.698      867.219
12/22/2014  03:51:00     -135.321      -36.374      -22.037       15.247       17.077       12.508      232.484      291.623      156.448        1.040        0.034      140.124        8.332        0.004      335.176        5.636      867.202
12/22/2014  03:52:00     -157.380      -57.872      -12.203       39.555       28.449       20.284     1564.570      809.373      411.442        1.553        0.139      167.683       20.072        0.014      335.025        5.385      867.213
12/22/2014  03:53:00      -99.998        9.650        0.416       58.392       42.473       28.629     3409.660     1803.949      819.592        0.806        0.302      100.463       28.469        0.080      335.332        5.897      867.210
12/22/2014  03:54:00      -37.630       -1.936        3.474       32.731       34.103       21.606     1071.323     1163.015      466.806        0.207        0.135       37.680       19.280        0.262      335.184        5.649      867.189
12/22/2014  03:55:00      -49.042      -23.707       -8.952       36.970       22.734       19.826     1366.780      516.846      393.083        0.266        0.114       54.471       21.164        0.151      335.172        5.628      867.186
12/22/2014  03:56:00      -82.559      -11.354       -1.347       50.434       36.649       23.239     2543.592     1343.171      540.047        0.569        0.221       83.336       24.418        0.086      335.274        5.800      867.214
12/22/2014  03:57:00      -93.397       35.940       -2.943       53.909       40.982       30.057     2906.134     1679.543      903.435        0.776        0.274      100.073       27.933        0.078      335.338        5.905      867.249
12/22/2014  03:58:00      -72.804       16.529      -10.847       28.716       36.556       19.808      824.613     1336.349      392.362        0.412        0.128       74.657       14.139        0.036      335.128        5.557      867.272
12/22/2014  03:59:00      -52.139       12.774      -12.475       27.603       24.232       16.185      761.950      587.184      261.961        0.232        0.081       53.681       14.336        0.071      335.187        5.654      867.266
12/22/2014  04:00:00        0.221        5.580        1.894       19.855       16.522       10.937      394.228      272.971      119.627        0.041        0.039        5.584       11.147        3.985      335.487        6.153      867.258
12/22/2014  04:01:00       -6.499       30.421        2.487       16.203       13.934       13.212      262.540      194.170      174.560        0.080        0.032       31.107        7.831        0.063      335.630        6.391      867.250
12/22/2014  04:02:00      -32.638      -16.542       -3.436       20.956       13.961       11.235      439.146      194.917      126.232        0.106        0.038       36.591       10.236        0.078      335.300        5.840      867.240
12/22/2014  04:03:00      -80.385      -41.206      -17.974       26.136       18.333       10.680      683.091      336.091      114.071        0.481        0.057       90.331       10.656        0.014      335.055        5.436      867.226
12/22/2014  04:04:00     -145.950      -72.448      -22.494       26.043       34.211       16.841      678.234     1170.392      283.619        1.459        0.107      162.942       14.580        0.008      334.894        5.167      867.198
12/22/2014  04:05:00     -129.110      -59.847      -19.360       33.952       26.338       18.413     1152.751      693.672      339.043        1.141        0.109      142.307       11.054        0.006      334.904        5.184      867.174
12/22/2014  04:06:00     -145.336      -30.988      -15.244       37.616       26.172       23.742     1414.993      684.968      563.672        1.249        0.133      148.603       20.427        0.019      334.809        5.025      867.153
12/22/2014  04:07:00     -162.886      -18.476      -18.269       51.456       42.555       24.246     2647.729     1810.954      587.867        1.613        0.252      163.931       20.999        0.016      334.904        5.184      867.139
12/22/2014  04:08:00     -145.221      -17.721       -5.139       46.990       32.908       29.990     2208.098     1082.915      899.421        1.281        0.210      146.298       26.384        0.033      334.872        5.132      867.134
12/22/2014  04:09:00     -112.008       -2.883       -7.702       66.681       48.561       27.242     4446.293     2358.172      742.115        1.008        0.377      112.045       30.983        0.076      334.894        5.168      867.131
12/22/2014  04:10:00      -77.372       12.700        0.682       47.943       40.911       30.761     2298.559     1673.692      946.241        0.553        0.246       78.408       29.473        0.141      335.120        5.542      867.126
12/22/2014  04:11:00      -32.082      -24.637        2.202       26.887       20.430       19.140      722.922      417.389      366.322        0.157        0.075       40.450       14.076        0.121      335.021        5.379      867.113
12/22/2014  04:12:00      -79.129      -30.439       -1.294       41.513       16.600       17.002     1723.369      275.556      289.076        0.474        0.114       84.782       22.239        0.069      335.015        5.368      867.103
12/22/2014  04:13:00     -107.244      -32.716      -11.014       22.432       13.509       12.182      503.208      182.502      148.391        0.676        0.042      112.123        9.476        0.007      335.008        5.357      867.103
12/22/2014  04:14:00     -118.515      -20.868      -19.380       21.720       18.861       15.863      471.741      355.751      251.650        0.797        0.054      120.338        9.978        0.007      334.986        5.321      867.109
12/22/2014  04:15:00     -114.816      -51.120      -12.949       17.810       16.751       15.058      317.212      280.608      226.732        0.839        0.041      125.682        4.671        0.001      334.891        5.163      867.102
12/22/2014  04:16:00     -112.951       -6.601       -6.436       55.987       48.165       29.573     3134.573     2319.848      874.580        0.958        0.316      113.144       25.444        0.051      335.042        5.414      867.109
12/22/2014  04:17:00     -144.264       54.828      -18.977       81.789       48.026       32.688     6689.440     2306.460     1068.504        1.712        0.503      154.332       25.469        0.027      335.451        6.092      867.128
12/22/2014  04:18:00     -205.804       68.502      -20.401       62.630       54.134       31.080     3922.496     2930.467      965.936        2.764        0.391      216.905       29.204        0.018      335.301        5.841      867.154
12/22/2014  04:19:00     -101.359       -9.787      -12.826       44.712       46.464       29.814     1999.120     2158.875      888.860        0.779        0.252      101.830       29.768        0.085      335.132        5.564      867.144
12/22/2014  04:20:00      -56.263      -26.024       -8.958       27.148       21.245       16.252      737.027      451.352      264.144        0.269        0.073       61.990       12.053        0.038      335.049        5.427      867.124
12/22/2014  04:21:00      -58.692      -38.387       -6.413       21.532       16.332       14.874      463.648      266.726      221.232        0.296        0.048       70.131       11.820        0.028      335.007        5.355      867.109
12/22/2014  04:22:00      -42.408      -11.509        3.770       25.043       14.354       15.956      627.127      206.051      254.598        0.152        0.054       43.942       13.448        0.094      335.135        5.568      867.105
12/22/2014  04:23:00       10.571        6.823        3.653       22.776       19.817       10.151      518.762      392.694      103.047        0.059        0.051       12.582        7.671        0.372      335.189        5.657      867.117
12/22/2014  04:24:00       30.775       21.803       13.780       17.390       20.063       11.113      302.410      402.512      123.500        0.122        0.041       37.715        6.943        0.034      335.164        5.616      867.121
12/22/2014  04:25:00        0.960      -20.444        6.935       15.379       36.663       17.320      236.517     1344.167      299.986        0.117        0.094       20.466       19.602        0.917      335.141        5.578      867.113
12/22/2014  04:26:00      -19.807      -44.146        9.359       30.070       38.092       36.757      904.205     1451.037     1351.075        0.307        0.185       48.386       17.396        0.129      335.010        5.362      867.086
12/22/2014  04:27:00       -6.096        1.694       38.501       14.392       37.090       16.640      207.123     1375.638      276.905        0.169        0.093        6.327       12.742        4.056      334.897        5.173      867.072
12/22/2014  04:28:00       -3.701        5.387       30.243        9.816       15.597        8.145       96.357      243.268       66.349        0.068        0.020        6.536        4.412        0.456      334.906        5.187      867.076
12/22/2014  04:29:00       10.246       27.357       41.834       20.982       22.122       13.958      440.261      489.370      194.839        0.186        0.056       29.213       16.387        0.315      334.869        5.126      867.055
12/22/2014  04:30:00       11.839       68.020       76.782       28.019       28.631       19.219      785.053      819.724      369.386        0.632        0.099       69.042       20.059        0.084      334.836        5.072      867.053
12/22/2014  04:31:00       24.600       38.579       40.012       25.513       19.225       19.603      650.934      369.601      384.290        0.255        0.070       45.755        9.832        0.046      334.815        5.037      867.076
12/22/2014  04:32:00       -3.753       49.243       65.564       20.619       29.489       21.672      425.152      869.629      469.662        0.425        0.088       49.386       21.515        0.190      334.836        5.070      867.084
12/22/2014  04:33:00        1.287       47.350       76.570       27.603       40.847       31.333      761.929     1668.446      981.760        0.576        0.171       47.367       30.750        0.421      334.837        5.073      867.083
12/22/2014  04:34:00       23.040       42.792       68.159       32.641       39.302       27.891     1065.439     1544.684      777.889        0.520        0.169       48.600       29.335        0.364      334.819        5.043      867.075
12/22/2014  04:35:00       68.476      -50.999        9.146       48.019       49.127       40.672     2305.868     2413.480     1654.245        0.687        0.319       85.380       31.223        0.134      335.036        5.405      867.060
12/22/2014  04:36:00       56.059      -89.123       -7.143       39.561       43.001       23.757     1565.067     1849.058      564.409        0.756        0.199      105.288       18.123        0.030      335.315        5.865      867.071
12/22/2014  04:37:00      -18.486      -42.957       -8.373       25.574       18.401       17.311      654.025      338.598      299.656        0.177        0.065       46.766        6.342        0.018      335.045        5.419      867.090
12/22/2014  04:38:00      -51.706      -24.028       -1.841       32.201       16.839       10.504     1036.905      283.545      110.333        0.234        0.072       57.017       10.597        0.035      334.942        5.247      867.091
12/22/2014  04:39:00      -13.634      -43.811        5.619       27.903       16.224       18.416      778.552      263.228      339.166        0.176        0.069       45.883       16.661        0.132      334.960        5.278      867.067
12/22/2014  04:40:00      -13.497      -43.032       -7.582       32.534       23.924       19.147     1058.490      572.356      366.618        0.204        0.100       45.099       13.249        0.086      335.242        5.745      867.013
12/22/2014  04:41:00      -71.250      -36.592        3.615       39.406       31.716       19.963     1552.816     1005.884      398.514        0.469        0.148       80.097       18.772        0.055      335.112        5.530      866.979
12/22/2014  04:42:00      -96.992      -56.009        3.151       45.661       42.038       27.618     2084.911     1767.190      762.728        0.858        0.231      112.002       25.444        0.052      335.052        5.432      866.986
12/22/2014  04:43:00      -97.743      -26.910       -3.644       35.170       38.086       24.289     1236.898     1450.573      589.949        0.678        0.164      101.380       19.219        0.036      334.997        5.340      867.016
12/22/2014  04:44:00      -90.729       -4.398       -1.672       61.592       31.819       24.133     3793.516     1012.439      582.415        0.682        0.269       90.836       30.141        0.110      334.943        5.248      867.028
12/22/2014  04:45:00      -97.927       69.702       -8.771       33.756       29.960       33.580     1139.448      897.626     1127.630        0.884        0.158      120.200       24.449        0.041      334.964        5.285      867.028
12/22/2014  04:46:00      -59.868       72.480      -12.255       27.067       23.116       18.488      732.644      534.364      341.795        0.530        0.080       94.008       13.179        0.020      335.085        5.485      867.019
12/22/2014  04:47:00      -13.920       81.786      -12.268       33.981       37.117       15.556     1154.710     1377.637      241.996        0.490        0.139       82.962       16.055        0.037      335.144        5.583      866.995
12/22/2014  04:48:00      -11.949       92.633       -9.878       24.480       37.171       18.686      599.249     1381.670      349.181        0.558        0.117       93.401       19.973        0.046      335.039        5.410      866.988
12/22/2014  04:49:00      -41.604       62.676       -9.962       20.238       39.431       14.212      409.574     1554.842      201.981        0.396        0.108       75.228       15.618        0.043      335.018        5.374      866.988
12/22/2014  04:50:00      -72.300       26.054       -7.636       21.373       21.336       16.110      456.798      455.205      259.543        0.357        0.059       76.851        9.474        0.015      335.142        5.580      866.995
12/22/2014  04:51:00      -65.674       43.515      -20.615       16.177       18.141       11.365      261.684      329.082      129.167        0.368        0.036       78.782        6.370        0.007      334.937        5.239      867.004
12/22/2014  04:52:00      -35.941       59.431      -14.482       21.920       34.322       15.261      480.503     1178.012      232.892        0.346        0.095       69.453       12.235        0.031      335.326        5.885      867.029
12/22/2014  04:53:00       -6.576       53.980       -6.867       19.731       25.501       18.379      389.313      650.283      337.806        0.219        0.069       54.379       17.981        0.109      335.299        5.839      867.033
12/22/2014  04:54:00        3.389       54.483       -6.571       16.277       14.796        9.241      264.926      218.932       85.394        0.180        0.028       54.588        9.028        0.027      335.113        5.530      867.030
12/22/2014  04:55:00      -30.235      -14.187       -1.542       26.657       36.903       10.799      710.573     1361.827      116.612        0.165        0.109       33.398       12.816        0.147      335.005        5.353      867.018
12/22/2014  04:56:00      -69.038      -35.427       -9.255       18.450       13.113        8.395      340.391      171.963       70.480        0.334        0.029       77.597        6.472        0.007      334.932        5.232      866.990
12/22/2014  04:57:00     -107.023      -21.568      -18.339       24.454       12.816       13.620      597.993      164.244      185.498        0.660        0.047      109.175       14.059        0.017      334.881        5.145      866.965
12/22/2014  04:58:00      -93.295      -28.486      -18.575       29.301       20.650       18.239      858.570      426.404      332.650        0.574        0.081       97.547       19.030        0.038      334.816        5.037      866.943
12/22/2014  04:59:00      -49.587      -30.363        0.064       25.262       16.068       13.097      638.155      258.180      171.542        0.222        0.053       58.144       12.644        0.047      334.869        5.126      866.898
12/22/2014  05:00:00      -32.467      -35.137       -4.113       20.949       10.855       10.023      438.879      117.824      100.466        0.148        0.033       47.840        3.917        0.007      334.893        5.164      866.847
12/22/2014  05:01:00      -93.264      -53.004       -5.292       18.047       14.279       11.411      325.695      203.878      130.219        0.610        0.033      107.274        6.247        0.003      334.816        5.036      866.836
12/22/2014  05:02:00     -103.079      -64.368      -15.119       30.630       21.539       20.283      938.174      463.913      411.408        0.840        0.091      121.526       11.834        0.009      334.713        4.866      866.845
12/22/2014  05:03:00     -133.049      -71.762        2.666       33.825       28.121       23.136     1144.148      790.784      535.290        1.266        0.124      151.168       23.502        0.024      334.781        4.980      866.844
12/22/2014  05:04:00     -106.235      -37.905       -2.969       25.471       21.343       18.820      648.754      455.543      354.203        0.709        0.073      112.795       10.795        0.009      334.744        4.918      866.837
12/22/2014  05:05:00     -106.081      -16.805      -12.995       21.749       16.047       12.855      473.039      257.501      165.240        0.630        0.045      107.404       10.733        0.010      334.718        4.875      866.824
12/22/2014  05:06:00     -108.036      -16.000      -10.608       16.563       12.577       10.487      274.318      158.181      109.979        0.629        0.027      109.214        8.090        0.005      334.678        4.809      866.809
12/22/2014  05:07:00     -119.344      -38.452      -10.793       13.466       22.151       14.025      181.346      490.676      196.705        0.835        0.043      125.386       10.242        0.007      334.674        4.802      866.804
12/22/2014  05:08:00     -120.761      -42.023      -14.506       18.395       26.951       12.870      338.366      726.346      165.642        0.889        0.062      127.864        8.558        0.004      334.429        4.396      866.797
12/22/2014  05:09:00      -91.202       -3.690       -6.723       34.351       32.748       26.720     1179.973     1072.404      713.950        0.567        0.148       91.277       23.793        0.068      334.906        5.187      866.799
12/22/2014  05:10:00      -88.121       44.490      -12.477       30.397       33.519       21.651      924.008     1123.547      468.787        0.621        0.126       98.715       16.485        0.028      335.083        5.483      866.796
12/22/2014  05:11:00      -76.232       28.904      -10.189       35.124       30.084       20.172     1233.689      905.068      406.902        0.465        0.127       81.528       19.392        0.057      335.244        5.748      866.801
12/22/2014  05:12:00      -85.628       -9.003      -16.239       34.848       30.857       20.234     1214.349      952.168      409.417        0.513        0.129       86.100       16.337        0.036      335.096        5.504      866.819
12/22/2014  05:13:00      -84.601      -30.661       -5.534       49.386       38.654       22.900     2438.991     1494.114      524.430        0.629        0.223       89.986       17.708        0.039      334.588        4.660      866.830
12/22/2014  05:14:00      -55.672      -23.917        2.584       44.679       43.999       25.504     1996.216     1935.911      650.476        0.413        0.229       60.592       17.103        0.080      334.590        4.663      866.819
12/22/2014  05:15:00      -81.457      -17.091      -10.968       45.178       42.031       22.879     2041.017     1766.616      523.471        0.569        0.217       83.230       19.341        0.054      334.598        4.676      866.789
12/22/2014  05:16:00     -153.818      -14.252      -14.464       52.595       58.278       30.912     2766.208     3396.343      955.527        1.559        0.356      154.477       24.201        0.025      334.522        4.549      866.776
12/22/2014  05:17:00     -156.532       14.367      -13.375       47.119       51.217       27.383     2220.235     2623.142      749.840        1.524        0.280      157.190       22.054        0.020      334.582        4.650      866.785
12/22/2014  05:18:00     -195.879       51.832      -19.310       53.450       41.252       28.054     2856.905     1701.741      787.053        2.339        0.267      202.621       15.380        0.006      334.813        5.031      866.800
12/22/2014  05:19:00     -179.221       27.426      -13.733       69.224       40.121       24.765     4791.990     1609.670      613.303        2.004        0.351      181.307       20.957        0.013      334.617        4.706      866.817
12/22/2014  05:20:00      -74.368       35.644        0.489       54.764       32.284       26.442     2999.128     1042.245      699.157        0.577        0.237       82.469       14.873        0.033      334.851        5.096      866.786
12/22/2014  05:21:00      -52.220       39.291       -5.102       30.914       25.797       15.519      955.689      665.493      240.831        0.308        0.093       65.351        8.800        0.018      334.905        5.186      866.778
12/22/2014  05:22:00     -108.093        4.117      -10.576       24.428       34.078       19.659      596.746     1161.331      386.492        0.698        0.107      108.171       17.132        0.025      334.949        5.258      866.818
12/22/2014  05:23:00      -83.146      -45.388      -10.680       41.871       24.423       21.133     1753.142      596.489      446.595        0.594        0.140       94.728        8.796        0.009      334.561        4.615      866.838
12/22/2014  05:24:00       -5.648      -30.605       14.656       15.773       27.955       12.303      248.776      781.469      151.373        0.118        0.059       31.122       12.567        0.163      334.627        4.725      866.827
12/22/2014  05:25:00        0.402      -23.478        2.336       13.582       17.814       14.097      184.472      317.330      198.735        0.063        0.035       23.481        8.369        0.127      334.834        5.067      866.824
12/22/2014  05:26:00      -18.148      -15.476        2.947       17.955       15.345       11.850      322.394      235.475      140.414        0.064        0.035       23.850        8.514        0.127      334.724        4.887      866.833
12/22/2014  05:27:00       -8.515      -53.405       -8.927       17.978       13.146       10.949      323.202      172.821      119.872        0.181        0.031       54.080        2.945        0.003      334.781        4.981      866.828
12/22/2014  05:28:00      -74.148      -40.541      -11.320       38.865       28.017       22.409     1510.523      784.974      502.173        0.503        0.140       84.507       14.920        0.031      334.622        4.715      866.836
12/22/2014  05:29:00      -43.055      -49.181      -11.880       41.907       20.776       24.445     1756.182      431.630      597.568        0.360        0.139       65.365       23.323        0.127      334.505        4.522      866.837
12/22/2014  05:30:00       -9.983       21.083       -0.568       26.456       28.478       14.398      699.901      810.975      207.298        0.113        0.086       23.327        9.333        0.160      334.622        4.717      866.802
12/22/2014  05:31:00        8.311       47.838       -9.568       23.007       11.504        8.788      529.333      132.353       77.229        0.159        0.037       48.555        8.037        0.027      334.946        5.256      866.782
12/22/2014  05:32:00      -65.722      -18.795       -9.395       45.748       27.838        8.717     2092.876      774.959       75.985        0.385        0.147       68.357        8.449        0.015      334.624        4.721      866.820
12/22/2014  05:33:00     -114.802      -32.040      -16.472        8.511       17.523       10.751       72.437      307.042      115.590        0.749        0.025      119.189        7.186        0.004      334.368        4.295      866.841
12/22/2014  05:34:00      -75.331      -34.563      -13.720       20.881       20.393       14.011      436.022      415.883      196.310        0.405        0.052       82.882       12.086        0.021      334.449        4.429      866.855
12/22/2014  05:35:00      -46.053      -20.887       -7.843        8.719        5.621        6.302       76.020       31.598       39.709        0.138        0.007       50.568        2.525        0.002      334.619        4.711      866.836
12/22/2014  05:36:00      -60.593      -31.842       -8.813       13.001        6.752        5.163      169.035       45.587       26.652        0.250        0.012       68.450        4.108        0.004      334.717        4.874      866.817
12/22/2014  05:37:00      -87.552      -40.503       -4.911       26.418       20.420       19.507      697.907      416.960      380.529        0.541        0.075       96.466       14.963        0.024      334.665        4.787      866.836
12/22/2014  05:38:00      -50.794      -40.842        2.764       25.918       17.832       17.722      671.724      317.991      314.055        0.278        0.065       65.178       15.656        0.058      334.636        4.739      866.850
12/22/2014  05:39:00      -67.618      -21.993       -6.183       14.745        7.208        7.954      217.413       51.957       63.261        0.271        0.017       71.104        3.447        0.002      334.634        4.735      866.843
12/22/2014  05:40:00     -131.785      -32.120      -11.358       28.783       27.060       13.543      828.454      732.254      183.405        1.014        0.087      135.643       10.679        0.006      334.563        4.617      866.880
12/22/2014  05:41:00      -91.869      -83.152        9.551       50.359       47.891       25.643     2535.994     2293.513      657.571        1.047        0.274      123.912       28.308        0.052      334.473        4.469      866.913
12/22/2014  05:42:00      -22.199      -75.285        1.451       34.525       37.376       17.084     1191.974     1396.981      291.854        0.452        0.144       78.490       16.285        0.043      334.606        4.688      866.881
12/22/2014  05:43:00       -8.106       33.869       35.306       25.348       22.407       20.339      642.525      502.077      413.686        0.201        0.078       34.826       11.105        0.102      334.576        4.639      866.861
12/22/2014  05:44:00      -42.991      -10.486        0.318       25.409       19.700       17.275      645.595      388.106      298.436        0.164        0.067       44.251        9.265        0.044      334.911        5.196      866.898
12/22/2014  05:45:00       -8.076       16.946       11.529       33.576       21.717       14.293     1127.335      471.620      204.276        0.114        0.090       18.772       14.590        0.604      334.669        4.794      866.948
12/22/2014  05:46:00       31.672       75.751      -12.369       20.103       34.364       20.174      404.135     1180.883      407.002        0.444        0.100       82.106       22.124        0.073      334.387        4.328      867.027
12/22/2014  05:47:00       50.802       29.176        1.770       33.546       21.405       19.235     1125.305      458.174      369.993        0.269        0.098       58.584       15.695        0.072      334.250        4.099      867.032
12/22/2014  05:48:00       15.210       40.104       39.170       18.179       17.839       10.622      330.462      318.232      112.818        0.207        0.038       42.892        6.119        0.020      334.176        3.977      866.974
12/22/2014  05:49:00      -10.074        1.800       14.176       20.250       11.807       10.745      410.058      139.395      115.464        0.049        0.033       10.234        5.382        0.277      334.258        4.114      866.970
12/22/2014  05:50:00      -13.096      -16.777       11.824        8.826       11.710       10.269       77.900      137.136      105.445        0.046        0.016       21.283        5.852        0.076      334.328        4.229      866.957
12/22/2014  05:51:00       -2.323       11.431        0.274        7.874       11.991        6.937       61.994      143.796       48.124        0.019        0.013       11.665        2.501        0.046      334.303        4.187      866.928
12/22/2014  05:52:00       12.108       32.807        3.065        7.588       13.820        9.005       57.580      190.995       81.092        0.078        0.016       34.970        4.282        0.015      334.408        4.361      866.906
12/22/2014  05:53:00        3.693       19.572        2.470        7.293       11.202        6.377       53.189      125.494       40.670        0.031        0.011       19.918        3.565        0.032      334.609        4.694      866.897
12/22/2014  05:54:00       14.204        4.113        6.377        5.891        4.718        5.230       34.699       22.256       27.355        0.017        0.004       14.788        2.757        0.035      334.733        4.900      866.892
12/22/2014  05:55:00       17.228       29.361       -0.649       10.908        6.501        6.420      118.981       42.265       41.222        0.068        0.010       34.042        5.806        0.029      334.461        4.450      866.861
12/22/2014  05:56:00      -11.299       19.980       -5.414        8.955        7.941        3.922       80.197       63.067       15.381        0.036        0.008       22.953        2.379        0.011      334.492        4.502      866.848
12/22/2014  05:57:00      -59.447       14.844       -7.470       12.453       15.296        7.608      155.081      233.973       57.883        0.213        0.022       61.272        2.454        0.002      334.347        4.258      866.884
12/22/2014  05:58:00      -41.070       17.281       -8.545       16.189        7.577        7.668      262.073       57.407       58.800        0.122        0.019       44.557        4.683        0.011      334.265        4.124      866.916
12/22/2014  05:59:00        6.201       22.060        7.169       18.774       11.274       12.871      352.470      127.110      165.670        0.061        0.032       22.915       12.373        0.292      334.441        4.415      866.885
12/22/2014  06:00:00       -2.539       29.930       -9.812       17.991       16.707       11.419      323.659      279.137      130.391        0.087        0.037       30.038       11.609        0.149      334.274        4.139      866.848
12/22/2014  06:01:00      -55.740       -7.291       -9.359       25.729       10.583        8.712      662.003      112.005       75.901        0.205        0.042       56.214        9.434        0.028      334.322        4.216      866.836
12/22/2014  06:02:00      -82.673      -12.570      -13.078       14.266       12.845        8.863      203.521      165.005       78.559        0.381        0.022       83.623        7.460        0.008      334.250        4.099      866.855
12/22/2014  06:03:00      -78.778        5.235       -8.095       27.465       23.153       16.877      754.312      536.041      284.840        0.394        0.079       78.951       16.167        0.042      334.425        4.390      866.859
12/22/2014  06:04:00      -70.121       -3.697      -14.747       30.831       17.131       10.114      950.573      293.482      102.296        0.325        0.067       70.219        6.496        0.009      334.425        4.391      866.807
12/22/2014  06:05:00       -1.108       16.554        5.463       13.058       13.490       10.825      170.506      181.974      117.174        0.039        0.023       16.591        7.833        0.223      334.637        4.740      866.754
12/22/2014  06:06:00       10.613       32.202        7.349        9.841       10.560        7.181       96.851      111.513       51.574        0.073        0.013       33.906        5.056        0.022      334.626        4.723      866.740
12/22/2014  06:07:00        4.727       66.079      -15.736        6.613       12.280        4.022       43.730      150.798       16.173        0.242        0.011       66.248        4.258        0.004      334.629        4.729      866.748
12/22/2014  06:08:00        8.193       48.418       -6.071        5.881        5.499        4.896       34.585       30.243       23.974        0.127        0.004       49.107        2.493        0.003      334.810        5.028      866.726
12/22/2014  06:09:00        2.599       34.835       -3.945        7.007        4.576        4.910       49.095       20.937       24.107        0.066        0.005       34.932        4.234        0.015      334.880        5.145      866.714
12/22/2014  06:10:00       23.381       33.680        2.812       12.368       14.031       10.982      152.979      196.856      120.599        0.108        0.024       41.000        9.535        0.054      334.678        4.810      866.708
12/22/2014  06:11:00       10.284       74.529      -11.693       11.940       24.188        9.417      142.570      585.052       88.684        0.331        0.041       75.235       12.401        0.027      334.387        4.326      866.708
12/22/2014  06:12:00      -21.755      132.528      -24.700       15.546       20.320        8.346      241.690      412.900       69.662        0.969        0.036      134.302        6.365        0.002      334.570        4.629      866.727
12/22/2014  06:13:00      -10.874       94.475      -10.560       23.034       23.998       14.412      530.572      575.913      207.698        0.523        0.066       95.099       14.976        0.025      334.776        4.972      866.718
12/22/2014  06:14:00      -18.327       15.999       -1.382       22.139       31.277       14.861      490.146      978.223      220.859        0.114        0.084       24.328       12.885        0.281      334.490        4.497      866.704
12/22/2014  06:15:00      -16.325      -23.834       -1.188       13.102       13.387       14.933      171.656      179.208      223.001        0.070        0.029       28.889       10.578        0.134      334.212        4.036      866.695
12/22/2014  06:16:00      -31.548      -10.667       -6.287       14.568        8.549        6.552      212.229       73.082       42.927        0.074        0.016       33.302        5.028        0.023      334.041        3.752      866.716
12/22/2014  06:17:00        3.973       63.089       -8.292       21.254       35.598       13.147      451.713     1267.223      172.835        0.298        0.095       63.214       13.141        0.043      334.604        4.686      866.738
12/22/2014  06:18:00       -9.676        5.672        0.292       15.199       11.053       11.242      230.997      122.161      126.393        0.030        0.024       11.216        9.372        0.698      334.453        4.437      866.732
12/22/2014  06:19:00      -45.525        2.918      -10.249       15.984        9.504       10.423      255.490       90.320      108.641        0.132        0.023       45.619        7.597        0.028      334.150        3.931      866.748
12/22/2014  06:20:00      -63.807       13.498       -7.500       21.273       15.786       12.060      452.531      249.207      145.453        0.258        0.042       65.219        6.725        0.011      334.053        3.772      866.795
12/22/2014  06:21:00      -19.989        0.126        1.207       26.213        6.673        6.958      687.107       44.528       48.411        0.059        0.039       19.990        7.713        0.149      334.349        4.264      866.794
12/22/2014  06:22:00      -43.241       -1.001      -13.936       19.463       14.891       10.369      378.797      221.750      107.509        0.139        0.035       43.253       10.752        0.062      334.262        4.118      866.794
12/22/2014  06:23:00      -66.852      -14.458      -10.438       12.546       12.569        8.187      157.397      157.967       67.026        0.258        0.019       68.398        5.808        0.007      333.941        3.588      866.797
12/22/2014  06:24:00      -84.924        8.907      -11.039       12.594       15.345        7.241      158.615      235.458       52.434        0.393        0.022       85.390        3.998        0.002      334.075        3.809      866.794
12/22/2014  06:25:00      -75.967       23.423       -8.512       29.496       14.625       13.855      870.013      213.880      191.966        0.383        0.064       79.496       14.632        0.034      334.249        4.098      866.814
12/22/2014  06:26:00      -48.768       54.127      -12.062       20.487       25.778       15.592      419.715      664.494      243.100        0.339        0.066       72.857       14.274        0.038      334.523        4.553      866.818
12/22/2014  06:27:00      -34.973       58.625       -6.229       24.341       26.426       18.502      592.503      698.314      342.322        0.317        0.082       68.264       11.935        0.031      334.448        4.427      866.831
12/22/2014  06:28:00       -7.223       74.167       -0.309       30.514       26.265       18.343      931.093      689.831      336.467        0.375        0.098       74.518       13.870        0.035      334.627        4.726      866.847
12/22/2014  06:29:00       -7.044      129.725      -19.759       27.650       33.463       17.037      764.545     1119.794      290.273        0.972        0.109      129.916       17.564        0.018      334.811        5.029      866.855
12/22/2014  06:30:00       14.187      127.665      -22.442       24.988       23.586        9.566      624.404      556.291       91.499        0.914        0.064      128.451       11.885        0.009      334.819        5.043      866.862
12/22/2014  06:31:00      -21.015      100.402      -15.200       21.434       33.383       14.529      459.411     1114.443      211.091        0.627        0.089      102.577       11.227        0.012      334.872        5.132      866.879
12/22/2014  06:32:00      -59.944       55.755      -14.291       21.987       27.627       18.037      483.416      763.230      325.324        0.424        0.079       81.866       12.994        0.025      334.763        4.952      866.910
12/22/2014  06:33:00      -54.280      -19.128       -7.373       18.883       20.884       12.626      356.580      436.132      159.419        0.216        0.048       57.552        8.695        0.023      334.318        4.212      866.922
12/22/2014  06:34:00      -84.907      -44.088      -10.221       29.373       19.895       15.841      862.792      395.823      250.924        0.538        0.075       95.671       13.264        0.019      334.066        3.794      866.936
12/22/2014  06:35:00      -85.596      -40.605      -21.417       35.084       18.002       15.764     1230.900      324.066      248.513        0.562        0.090       94.739       13.526        0.020      334.014        3.708      866.957
12/22/2014  06:36:00      -83.073       12.252      -10.827       29.854       17.621       15.012      891.261      310.489      225.370        0.430        0.071       83.971       12.371        0.022      334.204        4.022      866.966
12/22/2014  06:37:00      -68.628       75.174      -24.652       19.454       42.097       17.662      378.448     1772.135      311.956        0.672        0.123      101.789       21.282        0.044      334.834        5.068      866.983
12/22/2014  06:38:00      -58.154      115.344      -19.380       28.250       22.423       16.515      798.087      502.772      272.730        0.932        0.079      129.174        8.378        0.004      334.892        5.165      866.983
12/22/2014  06:39:00      -13.315       95.885       -7.475       22.151       20.570       12.910      490.653      423.142      166.659        0.525        0.054       96.805        7.332        0.006      335.134        5.566      866.983
12/22/2014  06:40:00       -2.289       25.968        2.722       22.989       49.409       17.240      528.500     2441.287      297.216        0.198        0.163       26.068       21.881        0.705      334.975        5.303      866.978
12/22/2014  06:41:00      -65.435      -15.704      -11.250       18.013       12.330        8.962      324.486      152.020       80.309        0.261        0.028       67.293        8.089        0.014      334.387        4.326      867.023
12/22/2014  06:42:00      -99.563        1.652      -17.281       19.516       15.008       13.931      380.881      225.233      194.080        0.551        0.040       99.577        8.462        0.007      334.449        4.429      867.096
12/22/2014  06:43:00      -46.915        6.646      -13.319       34.253       21.002       17.117     1173.272      441.094      292.983        0.216        0.095       47.384       17.587        0.138      334.498        4.509      867.123
12/22/2014  06:44:00       -6.619       91.065      -11.392       31.602       20.623       14.201      998.687      425.310      201.660        0.505        0.081       91.306       13.898        0.023      335.455        6.100      867.094
12/22/2014  06:45:00      -37.422       49.579      -10.424       19.947       53.567       11.568      397.876     2869.426      133.828        0.368        0.170       62.117       14.905        0.058      335.222        5.712      867.090
12/22/2014  06:46:00      -53.948      -25.529       -7.010       18.862       16.182       12.255      355.780      261.848      150.179        0.219        0.038       59.684       10.082        0.029      334.299        4.180      867.109
12/22/2014  06:47:00      -35.330      -35.946       -5.621       18.977       21.620       12.005      360.128      467.418      144.117        0.177        0.049       50.402        6.326        0.016      334.101        3.851      867.125
12/22/2014  06:48:00      -34.945      -27.463       -4.112       15.045       13.533        7.427      226.363      183.148       55.162        0.123        0.023       44.445        4.705        0.011      334.141        3.919      867.134
12/22/2014  06:49:00      -28.026      -19.534       -9.575       10.298        8.069        6.776      106.055       65.107       45.914        0.074        0.011       34.162        2.145        0.004      334.216        4.043      867.145
12/22/2014  06:50:00      -30.187      -10.737       -4.762       16.949       13.180        5.718      287.275      173.714       32.696        0.077        0.025       32.040        7.835        0.060      334.302        4.186      867.147
12/22/2014  06:51:00      -41.960       -2.686        1.125       18.389       17.700       13.924      338.171      313.307      193.873        0.131        0.042       42.046       13.345        0.101      334.386        4.325      867.158
12/22/2014  06:52:00      -93.583      -16.038      -19.717       15.254        9.119        8.842      232.681       83.163       78.189        0.490        0.020       94.948        7.733        0.007      334.215        4.041      867.193
12/22/2014  06:53:00     -121.383      -17.157      -21.098       15.033       12.779        9.330      225.991      163.311       87.048        0.797        0.024      122.590        4.967        0.002      334.084        3.823      867.218
12/22/2014  06:54:00      -56.451        5.061      -13.098       32.327       22.884       15.292     1045.043      523.665      233.836        0.259        0.090       56.678       13.437        0.056      334.449        4.429      867.226
12/22/2014  06:55:00       15.549       50.552       -3.486       29.185       17.579       15.489      851.770      309.038      239.921        0.210        0.070       52.890       15.040        0.081      335.150        5.593      867.211
12/22/2014  06:56:00       48.405       30.035       18.456       23.458       19.493       18.536      550.264      379.985      343.567        0.243        0.064       56.967       11.616        0.042      334.715        4.871      867.200
12/22/2014  06:57:00        2.864        2.971        0.414       21.716       12.314       10.724      471.588      151.631      115.000        0.038        0.037        4.127       11.177        7.334      334.725        4.887      867.235
12/22/2014  06:58:00      -28.138        0.917        1.034       27.500       19.958       10.491      756.250      398.325      110.070        0.103        0.063       28.152       10.117        0.129      334.859        5.110      867.300
12/22/2014  06:59:00      -65.467      -21.594       -9.983        8.534        9.800        7.177       72.838       96.045       51.502        0.254        0.011       68.936        5.066        0.005      334.321        4.217      867.376
12/22/2014  07:00:00      -30.012      -28.777       -3.180       13.170       11.163        6.162      173.460      124.610       37.968        0.104        0.017       41.579        6.175        0.022      334.263        4.120      867.417
12/22/2014  07:01:00      -53.886      -10.919       -9.001       14.505       11.268        9.347      210.393      126.966       87.374        0.176        0.021       54.981        7.636        0.019      334.416        4.374      867.442
12/22/2014  07:02:00      -20.767       -6.237       -8.192       16.967        6.793        3.705      287.893       46.149       13.725        0.044        0.017       21.684        4.135        0.036      334.592        4.666      867.470
12/22/2014  07:03:00        2.488        8.922       -4.219        7.743       11.284        9.324       59.953      127.331       86.932        0.019        0.014        9.262        7.660        0.684      334.886        5.153      867.486
12/22/2014  07:04:00        8.705       11.885       -1.418        8.874        7.051        5.088       78.744       49.719       25.891        0.019        0.008       14.732        4.384        0.089      334.967        5.290      867.479
12/22/2014  07:05:00      -32.682       -8.890       -9.179       16.789        8.675        7.761      281.871       75.262       60.236        0.082        0.021       33.869       11.154        0.108      334.782        4.981      867.478
12/22/2014  07:06:00      -53.256      -13.498      -12.816        4.734        6.693        3.924       22.412       44.792       15.402        0.163        0.004       54.940        1.945        0.001      334.418        4.376      867.490
12/22/2014  07:07:00      -57.640       -8.458      -11.096        8.798       12.652       13.828       77.404      160.062      191.212        0.197        0.021       58.257        9.640        0.027      334.602        4.684      867.479
12/22/2014  07:08:00      -46.856      -12.349       -6.559       24.710       15.569       13.921      610.583      242.387      193.795        0.172        0.052       48.456        6.573        0.018      335.083        5.481      867.464
12/22/2014  07:09:00      -48.777       -9.809        0.770       17.380       23.380       13.302      302.054      546.607      176.950        0.175        0.051       49.753        6.964        0.020      334.861        5.112      867.460
12/22/2014  07:10:00      -81.952      -24.808      -12.282       15.119       17.828        8.932      228.573      317.845       79.785        0.405        0.031       85.624        7.258        0.007      334.400        4.347      867.444
12/22/2014  07:11:00      -76.012      -19.835      -14.328       15.083       19.290       12.661      227.500      372.096      160.309        0.357        0.038       78.558        7.993        0.010      334.347        4.260      867.437
12/22/2014  07:12:00      -47.523       -3.662      -13.664       19.260       10.693       11.888      370.950      114.331      141.313        0.154        0.031       47.664        6.653        0.019      334.487        4.491      867.426
12/22/2014  07:13:00      -41.393       -1.417      -10.006       15.466       12.674        5.812      239.210      160.642       33.781        0.112        0.022       41.417        2.931        0.005      334.660        4.780      867.422
12/22/2014  07:14:00      -51.203      -35.200      -12.837        9.938        9.726        6.967       98.769       94.600       48.536        0.213        0.012       62.135        4.637        0.006      334.458        4.445      867.437
12/22/2014  07:15:00      -80.034      -22.402      -15.723       11.273       11.367        8.636      127.082      129.209       74.572        0.374        0.017       83.111        4.856        0.003      334.313        4.203      867.453
12/22/2014  07:16:00      -81.609        4.170      -12.169       19.971       15.510       15.228      398.831      240.573      231.902        0.385        0.044       81.715        8.488        0.011      334.417        4.376      867.462
12/22/2014  07:17:00      -48.810       18.238      -11.778       13.924       14.871       14.236      193.864      221.138      202.654        0.174        0.031       52.106        4.554        0.008      334.829        5.060      867.483
12/22/2014  07:18:00        2.595       12.517       -1.311       11.718       10.920       11.060      137.302      119.253      122.328        0.027        0.019       12.783        9.146        0.512      335.046        5.420      867.528
12/22/2014  07:19:00      -36.723       -7.786       -6.236       13.413       19.189        9.078      179.901      368.233       82.407        0.104        0.032       37.539        3.735        0.010      334.641        4.748      867.567
12/22/2014  07:20:00       -1.872      -19.657        6.026       24.389        8.985        7.760      594.834       80.725       60.212        0.058        0.037       19.746        7.419        0.141      334.594        4.670      867.589
12/22/2014  07:21:00       23.636      -12.894        6.472       20.242       22.140       20.786      409.747      490.175      432.047        0.105        0.067       26.924       21.545        0.640      334.433        4.403      867.592
12/22/2014  07:22:00        4.029      -12.062        7.925       14.897       29.236       19.764      221.911      854.752      390.633        0.085        0.073       12.718       22.537        3.140      334.416        4.376      867.626
12/22/2014  07:23:00      -57.373      -12.803       -8.916       13.262       12.850        6.050      175.887      165.115       36.604        0.196        0.019       58.784        2.993        0.003      334.343        4.253      867.671
12/22/2014  07:24:00      -44.488      -38.720        1.809       20.757        9.920       11.248      430.863       98.412      126.523        0.207        0.033       58.978       11.278        0.037      334.186        3.993      867.702
12/22/2014  07:25:00      -46.872      -36.079       -1.061       19.729       12.310        9.783      389.224      151.526       95.706        0.207        0.032       59.150        5.180        0.008      334.377        4.310      867.733
12/22/2014  07:26:00     -112.488      -71.276       -2.231       29.268       32.790       21.945      856.594     1075.212      481.598        1.008        0.121      133.168       21.627        0.026      334.306        4.191      867.769
12/22/2014  07:27:00      -96.349      -51.120       -0.205       49.309       46.715       30.216     2431.396     2182.292      912.985        0.871        0.276      109.071       30.849        0.080      334.221        4.050      867.787
12/22/2014  07:28:00     -137.193      -84.452       -6.426       52.922       39.571       30.232     2800.785     1565.888      913.978        1.564        0.264      161.102       24.470        0.023      334.150        3.933      867.786
12/22/2014  07:29:00     -126.563      -93.178       -5.601       31.130       35.177       18.258      969.056     1237.418      333.342        1.364        0.127      157.164        9.557        0.004      334.130        3.899      867.776
12/22/2014  07:30:00     -137.482      -62.940      -10.596       29.528       33.262       22.053      871.926     1106.354      486.317        1.272        0.123      151.205       15.829        0.011      334.127        3.895      867.775
12/22/2014  07:31:00     -108.202      -68.745        7.713       41.943       39.708       27.176     1759.248     1576.729      738.524        1.028        0.204      128.193       26.355        0.042      334.117        3.878      867.790
12/22/2014  07:32:00     -122.494      -84.538       -3.175       44.989       32.604       23.039     2024.007     1062.990      530.789        1.289        0.181      148.833       20.018        0.018      334.226        4.060      867.819
12/22/2014  07:33:00     -128.762      -80.415        0.126       40.687       39.050       27.048     1655.464     1524.941      731.577        1.348        0.196      151.810       16.388        0.012      334.213        4.037      867.844
12/22/2014  07:34:00     -121.732      -63.910       -7.166       34.164       39.868       20.475     1167.181     1589.447      419.240        1.106        0.159      137.489       20.680        0.023      334.248        4.095      867.857
12/22/2014  07:35:00      -94.145      -54.916       -5.139       30.053       37.761       18.079      903.208     1425.857      326.845        0.728        0.133      108.991        9.945        0.008      334.352        4.270      867.879
12/22/2014  07:36:00      -84.418      -59.154       -6.940       26.801       24.500       17.197      718.291      600.272      295.728        0.614        0.081      103.080       16.159        0.025      334.326        4.226      867.918
12/22/2014  07:37:00      -58.501      -59.457       -7.963       16.239       24.606        9.381      263.705      605.432       88.012        0.399        0.048       83.412        5.786        0.005      334.423        4.386      867.958
12/22/2014  07:38:00      -23.328      -48.360       -5.963        9.661        8.718        7.537       93.344       75.997       56.806        0.157        0.011       53.692        2.511        0.002      334.491        4.496      867.955
12/22/2014  07:39:00      -58.349      -39.517       -4.747       18.780       19.366       12.166      352.686      375.036      148.004        0.293        0.044       70.472        6.862        0.009      334.551        4.596      867.940
12/22/2014  07:40:00      -55.653      -59.654       -1.671       33.400       25.014       14.211     1115.557      625.710      201.943        0.430        0.097       81.583       11.676        0.020      334.504        4.520      867.929
12/22/2014  07:41:00      -34.278      -35.885       -1.990       21.192       22.328       13.240      449.106      498.522      175.297        0.179        0.056       49.626       13.225        0.071      334.633        4.732      867.920
12/22/2014  07:42:00      -79.767      -51.288       -1.029       65.535       32.607       21.103     4294.867     1063.185      445.319        0.740        0.290       94.833       21.385        0.051      334.599        4.677      867.935
12/22/2014  07:43:00      -86.812      -68.125        4.669       62.352       40.958       25.901     3887.779     1677.560      670.863        0.922        0.312      110.351       28.655        0.067      334.461        4.449      867.935
12/22/2014  07:44:00     -111.072     -111.347       -3.523       42.231       36.845       31.455     1783.478     1357.525      989.446        1.444        0.207      157.274       29.510        0.035      334.434        4.405      867.930
12/22/2014  07:45:00      -63.369      -57.579        6.565       44.916       41.800       24.060     2017.487     1747.253      578.890        0.586        0.217       85.621       20.893        0.060      334.436        4.407      867.955
12/22/2014  07:46:00      -48.748      -35.401        9.133       43.106       24.684       17.528     1858.162      609.322      307.220        0.324        0.139       60.246       20.841        0.120      334.478        4.478      867.982
12/22/2014  07:47:00      -37.350      -30.195        4.686       20.042       16.442       14.932      401.688      270.325      222.953        0.161        0.045       48.029       11.787        0.060      334.537        4.574      868.001
12/22/2014  07:48:00      -25.357      -44.345       -1.091       16.123       26.215        8.846      259.942      687.203       78.256        0.182        0.051       51.083        6.707        0.017      334.537        4.576      868.030
12/22/2014  07:49:00      -39.996      -22.128       10.850       16.801       15.041       13.221      282.285      226.231      174.798        0.145        0.034       45.709        9.901        0.047      334.609        4.695      868.051
12/22/2014  07:50:00      -47.713      -11.873        3.039       10.393       12.766       13.910      108.010      162.970      193.493        0.145        0.023       49.168       10.406        0.045      334.741        4.914      868.082
12/22/2014  07:51:00      -83.502      -22.189      -12.506       19.181       10.235        8.670      367.916      104.747       75.165        0.408        0.027       86.400        9.131        0.011      334.569        4.626      868.120
12/22/2014  07:52:00     -105.504      -34.789      -11.507       13.034       14.896       10.949      169.897      221.899      119.873        0.649        0.026      111.091       11.776        0.011      334.554        4.604      868.142
12/22/2014  07:53:00      -89.420      -32.843       -1.388       19.038       20.427       13.355      362.433      417.267      178.367        0.502        0.048       95.261        8.411        0.008      334.467        4.458      868.160
12/22/2014  07:54:00     -105.555      -19.850       -7.800       23.781       15.562       12.595      565.549      242.163      158.633        0.628        0.048      107.405       12.045        0.013      334.454        4.438      868.172
12/22/2014  07:55:00     -102.934      -50.098        2.865       29.031       16.947       15.624      842.792      287.190      244.104        0.724        0.069      114.478       18.859        0.027      334.515        4.538      868.188
12/22/2014  07:56:00      -86.565      -57.700        1.084       29.734       17.749       19.750      884.131      315.038      390.056        0.621        0.079      104.032       19.335        0.035      334.567        4.626      868.183
12/22/2014  07:57:00     -107.266      -52.085       -6.365       16.029       23.490       13.807      256.925      551.789      190.621        0.763        0.050      119.243       10.039        0.007      334.612        4.699      868.187
12/22/2014  07:58:00      -86.319      -30.775       -6.642       27.874       20.190       15.484      776.944      407.628      239.760        0.493        0.071       91.641       17.972        0.038      334.625        4.720      868.214
12/22/2014  07:59:00      -80.764      -19.693       -3.673       33.414       29.227       17.934     1116.527      854.213      321.618        0.461        0.115       83.130       17.985        0.047      334.737        4.908      868.249
12/22/2014  08:00:00     -125.200      -11.214      -17.392       30.170       25.757       19.781      910.258      663.445      391.291        0.903        0.098      125.701       20.588        0.027      334.855        5.102      868.245
12/22/2014  08:01:00     -134.032      -23.262      -17.887       34.660       27.750       19.557     1201.285      770.069      382.457        1.059        0.118      136.036       18.553        0.019      334.756        4.939      868.264
12/22/2014  08:02:00     -124.087       -2.619       -5.026       60.186       36.858       29.281     3622.303     1358.528      857.361        1.063        0.292      124.114       31.502        0.064      335.020        5.379      868.293
12/22/2014  08:03:00     -193.411       53.718      -20.569       36.092       29.585       17.727     1302.655      875.290      314.258        2.160        0.125      200.732       11.082        0.003      335.148        5.589      868.321
12/22/2014  08:04:00     -146.260       11.664      -12.301       36.031       33.525       23.170     1298.228     1123.927      536.842        1.232        0.148      146.724       15.366        0.011      335.105        5.519      868.332
12/22/2014  08:05:00     -117.962      -14.194       -2.037       43.487       46.859       29.014     1891.102     2195.764      841.833        0.952        0.246      118.813       22.839        0.037      335.133        5.565      868.328
12/22/2014  08:06:00     -126.916        2.034      -15.041       37.422       34.603       24.979     1400.415     1197.371      623.928        0.978        0.161      126.932       21.125        0.028      335.107        5.521      868.336
12/22/2014  08:07:00     -156.951      -15.757      -18.871       53.196       27.514       26.638     2829.852      757.014      709.583        1.477        0.215      157.740       25.791        0.027      335.020        5.378      868.354
12/22/2014  08:08:00     -188.486      -11.525      -16.742       60.441       45.749       29.921     3653.089     2092.959      895.258        2.129        0.332      188.838       30.118        0.025      335.222        5.711      868.352
12/22/2014  08:09:00     -186.412        4.712      -16.715       38.400       31.787       22.097     1474.579     1010.415      488.283        1.901        0.149      186.472       18.386        0.010      335.154        5.600      868.360
12/22/2014  08:10:00     -167.242       25.883      -12.590       63.197       32.426       21.291     3993.832     1051.439      453.287        1.715        0.275      169.234       29.046        0.029      335.304        5.849      868.387
12/22/2014  08:11:00     -225.385       25.930      -26.563       16.998       24.727       17.682      288.947      611.411      312.644        2.669        0.061      226.871       10.619        0.002      335.254        5.762      868.439
12/22/2014  08:12:00     -154.312       -7.766      -16.028       51.692       40.250       30.237     2672.055     1620.078      914.306        1.467        0.260      154.507       32.053        0.043      335.307        5.852      868.478
12/22/2014  08:13:00     -115.000      -32.049       -7.254       32.096       41.060       21.757     1030.134     1685.935      473.384        0.875        0.159      119.383       17.049        0.020      335.408        6.022      868.498
12/22/2014  08:14:00     -135.482      -35.015        0.186       51.172       30.228       23.154     2618.601      913.752      536.094        1.182        0.203      139.934       27.081        0.037      335.294        5.831      868.544
12/22/2014  08:15:00      -53.588      -25.566        3.310       36.288       25.975       13.918     1316.820      674.710      193.713        0.286        0.109       59.375       17.844        0.090      335.353        5.929      868.574
12/22/2014  08:16:00      -91.473      -42.366       -7.453       22.446       22.714       15.859      503.821      515.939      251.501        0.574        0.064      100.807        9.710        0.009      335.366        5.953      868.603
12/22/2014  08:17:00      -39.812       -9.966        0.853       26.755       12.894       11.773      715.838      166.258      138.613        0.135        0.051       41.041        5.904        0.021      335.404        6.016      868.627
12/22/2014  08:18:00      -35.901      -51.171        3.874       36.702       22.132       16.795     1347.023      489.816      282.071        0.302        0.106       62.509       15.291        0.060      335.553        6.262      868.636
12/22/2014  08:19:00      -30.356      -45.781        5.808       34.038       27.912       16.100     1158.592      779.069      259.222        0.262        0.110       54.930       18.050        0.108      335.648        6.423      868.652
12/22/2014  08:20:00      -49.363      -70.944       -8.028       16.901       32.513       13.359      285.649     1057.121      178.453        0.453        0.076       86.428        7.411        0.007      335.764        6.616      868.659
12/22/2014  08:21:00      -47.643      -91.736       -3.362       13.213       20.521       12.548      174.576      421.117      157.462        0.572        0.038      103.370        8.449        0.007      335.865        6.784      868.670
12/22/2014  08:22:00      -36.376      -54.607        0.540       24.210       31.736       15.189      586.124     1007.178      230.718        0.306        0.091       65.613       15.669        0.057      335.944        6.914      868.695
12/22/2014  08:23:00      -95.171      -79.044      -11.285       22.499       13.686       12.115      506.197      187.304      146.764        0.814        0.042      123.715        5.105        0.002      335.950        6.924      868.723
12/22/2014  08:24:00      -99.298      -80.706       -1.408       42.652       34.741       27.585     1819.203     1206.911      760.940        1.008        0.189      127.960       24.154        0.036      335.910        6.859      868.746
12/22/2014  08:25:00     -102.107      -73.788        1.254       62.826       37.529       25.220     3947.141     1408.431      636.028        1.093        0.300      125.978       32.658        0.067      335.985        6.982      868.776
12/22/2014  08:26:00     -111.172      -92.340        1.260       49.996       45.550       28.725     2499.564     2074.842      825.113        1.314        0.270      144.519       26.642        0.034      335.998        7.004      868.800
12/22/2014  08:27:00      -69.580      -70.713        3.157       43.516       44.143       21.399     1893.634     1948.631      457.925        0.708        0.215       99.205       14.296        0.021      336.031        7.060      868.817
12/22/2014  08:28:00      -69.978     -110.261        1.360       31.626       32.673       25.930     1000.217     1067.556      672.350        0.990        0.137      130.592       24.738        0.036      336.023        7.045      868.840
12/22/2014  08:29:00      -57.827     -106.724       -1.411       27.740       14.798       17.449      769.523      218.992      304.466        0.801        0.065      121.384        9.741        0.006      336.056        7.102      868.854
12/22/2014  08:30:00      -84.637     -109.037      -11.320       27.969       28.173       18.154      782.250      793.699      329.581        1.054        0.095      138.031       16.344        0.014      336.099        7.174      868.876
12/22/2014  08:31:00      -56.567      -98.756       -0.675       17.789       16.927       13.553      316.466      286.539      183.678        0.687        0.039      113.810       11.920        0.011      336.186        7.317      868.894
12/22/2014  08:32:00      -36.539      -46.559       -0.505       15.878       35.938       16.332      252.107     1291.514      266.738        0.266        0.091       59.185        9.908        0.028      336.250        7.426      868.924
12/22/2014  08:33:00      -51.169      -63.376       -6.969       20.573       20.072       17.237      423.248      402.869      297.106        0.390        0.056       81.454       14.324        0.031      336.306        7.518      868.960
12/22/2014  08:34:00      -50.575      -78.965       -7.853       21.726       17.940       10.299      472.031      321.845      106.073        0.488        0.045       93.773       11.555        0.015      336.318        7.538      868.990
12/22/2014  08:35:00      -84.885      -69.310       -6.836       26.512       22.108       15.897      702.881      488.762      252.730        0.675        0.072      109.587       14.302        0.017      336.347        7.586      869.009
12/22/2014  08:36:00      -30.310      -63.707        3.019       24.946       24.543       16.234      622.298      602.344      263.547        0.324        0.074       70.549       11.631        0.027      336.388        7.657      869.014
12/22/2014  08:37:00      -38.728      -73.671       -3.254       22.340       34.251       12.298      499.085     1173.115      151.247        0.438        0.091       83.230        9.333        0.013      336.404        7.684      869.009
12/22/2014  08:38:00      -44.959      -46.686       -3.578       43.172       28.537       22.255     1863.831      814.370      495.295        0.369        0.159       64.814       27.107        0.175      336.493        7.832      868.990
12/22/2014  08:39:00      -30.622      -85.943       -2.730       17.364       19.087        9.524      301.494      364.297       90.701        0.454        0.038       91.235        8.598        0.009      336.450        7.759      868.958
12/22/2014  08:40:00      -50.257      -73.065       -5.505       20.396       17.452       10.724      415.999      304.576      114.994        0.436        0.042       88.680        6.908        0.006      336.477        7.806      868.927
12/22/2014  08:41:00      -29.727      -54.534        0.456       14.920       13.088       12.266      222.613      171.307      150.463        0.220        0.027       62.110        8.406        0.018      336.511        7.862      868.933
12/22/2014  08:42:00      -20.386      -49.282       -2.972       11.370       11.980        8.604      129.267      143.512       74.020        0.160        0.017       53.332        3.881        0.005      336.647        8.091      868.951
12/22/2014  08:43:00      -12.185       16.557       38.821       14.414       31.463       23.485      207.768      989.923      551.556        0.184        0.087       20.557       24.825        1.458      337.073        8.801      868.944
12/22/2014  08:44:00       -5.862       32.822       50.775       12.851       20.057       12.422      165.137      402.301      154.309        0.221        0.036       33.341       11.246        0.114      337.119        8.878      868.947
12/22/2014  08:45:00        8.371       40.484       47.186       22.474       22.306       20.302      505.087      497.547      412.154        0.267        0.071       41.340       10.790        0.068      337.109        8.861      868.957
12/22/2014  08:46:00       22.219       52.909       56.389       27.813       39.909       31.111      773.572     1592.692      967.899        0.490        0.167       57.385       22.306        0.151      337.133        8.900      868.960
12/22/2014  08:47:00       33.659       66.877       67.969       49.106       38.948       32.346     2411.417     1516.984     1046.253        0.760        0.249       74.869       32.430        0.188      337.087        8.824      868.956
12/22/2014  08:48:00       73.336       84.258       86.713       60.069       40.081       32.129     3608.249     1606.511     1032.245        1.312        0.312      111.703       26.865        0.058      336.944        8.585      868.957
12/22/2014  08:49:00       -8.705       67.176      102.695       29.595       58.500       26.926      875.878     3422.196      725.016        1.008        0.251       67.738       27.205        0.161      336.994        8.668      868.965
12/22/2014  08:50:00       58.095      113.288      105.020       61.079       40.088       42.786     3730.634     1607.058     1830.604        1.720        0.358      127.315       40.955        0.103      336.550        7.927      868.986
12/22/2014  08:51:00       83.725      105.470       80.705       50.646       37.286       37.775     2564.972     1390.223     1426.984        1.501        0.269      134.662       32.690        0.059      336.378        7.641      869.000
12/22/2014  08:52:00       78.932       98.668       75.866       49.104       37.488       28.195     2411.248     1405.353      794.941        1.317        0.231      126.355       18.588        0.022      336.431        7.728      869.020
12/22/2014  08:53:00      105.120      113.666       76.352       48.285       27.508       30.281     2331.443      756.664      916.951        1.690        0.200      154.823       23.396        0.023      336.341        7.578      869.048
12/22/2014  08:54:00      112.169       97.180       56.533       47.788       37.767       41.263     2283.739     1426.313     1702.646        1.532        0.271      148.412       27.722        0.035      336.357        7.605      869.081
12/22/2014  08:55:00      116.543       73.227       38.111       52.883       43.185       42.996     2796.634     1864.944     1848.693        1.345        0.326      137.639       37.061        0.073      336.301        7.510      869.117
12/22/2014  08:56:00       87.558      109.737       84.941       41.346       27.836       26.573     1709.474      774.869      706.149        1.506        0.160      140.387       22.634        0.026      336.427        7.721      869.148
12/22/2014  08:57:00       83.180       99.030       52.098       40.773       31.783       38.171     1662.437     1010.160     1457.022        1.178        0.206      129.329       23.899        0.034      336.341        7.578      869.174
12/22/2014  08:58:00      121.340       80.892       33.858       38.494       24.738       32.458     1481.767      611.973     1053.531        1.278        0.157      145.832       17.248        0.014      336.289        7.491      869.211
12/22/2014  08:59:00       66.960       75.887       47.034       40.225       29.666       29.879     1618.029      880.045      892.741        0.792        0.170      101.205       24.301        0.058      336.559        7.943      869.252
12/22/2014  09:00:00       92.046       86.510       57.096       46.692       25.660       29.153     2180.180      658.436      849.877        1.145        0.184      126.318       19.407        0.024      336.388        7.657      869.287
12/22/2014  09:01:00       91.365       47.110       22.673       30.700       24.960       27.129      942.478      622.982      735.989        0.669        0.115      102.795       15.732        0.023      336.308        7.523      869.312
12/22/2014  09:02:00       12.091       49.108       61.236       28.637       31.788       34.311      820.058     1010.504     1177.232        0.466        0.150       50.574       29.106        0.331      336.655        8.104      869.323
12/22/2014  09:03:00       40.581       71.300       66.010       58.322       38.969       41.380     3401.408     1518.544     1712.325        0.886        0.332       82.040       38.814        0.224      336.634        8.068      869.328
12/22/2014  09:04:00       14.222       78.027       95.384       39.811       51.297       34.980     1584.905     2631.353     1223.602        1.041        0.272       79.313       32.414        0.167      336.640        8.079      869.342
12/22/2014  09:05:00       10.676      114.075      115.864       29.234       33.363       17.194      854.654     1113.076      295.617        1.441        0.113      114.573       17.847        0.024      336.468        7.789      869.360
12/22/2014  09:06:00       70.934       94.716       94.294       50.773       49.142       37.908     2577.930     2414.934     1436.982        1.466        0.321      118.333       34.117        0.083      336.496        7.836      869.363
12/22/2014  09:07:00       82.208      104.752       87.240       42.388       32.430       30.004     1796.781     1051.715      900.224        1.454        0.187      133.158       20.335        0.023      336.447        7.754      869.375
12/22/2014  09:08:00      114.673       78.145       41.875       52.034       21.349       36.120     2707.563      455.798     1304.620        1.274        0.223      138.768       27.795        0.040      336.377        7.638      869.393
12/22/2014  09:09:00      103.392       68.898       43.729       55.950       36.574       39.657     3130.449     1337.671     1572.675        1.169        0.302      124.245       38.688        0.097      336.543        7.916      869.390
12/22/2014  09:10:00       71.295       79.818       76.238       50.410       45.494       32.778     2541.135     2069.710     1074.387        1.147        0.284      107.023       33.631        0.099      336.531        7.896      869.377
12/22/2014  09:11:00        0.794       29.982       67.718       37.460       54.116       25.094     1403.226     2928.522      629.690        0.522        0.248       29.993       31.501        1.103      336.810        8.362      869.373
12/22/2014  09:12:00      -16.245      -24.693       35.844       33.358       50.536       31.013     1112.771     2553.923      961.783        0.339        0.231       29.557       25.352        0.736      337.015        8.703      869.374
12/22/2014  09:13:00        8.775       61.196       84.397       28.294       54.275       32.809      800.533     2945.772     1076.436        0.788        0.241       61.822       35.664        0.333      337.028        8.726      869.370
12/22/2014  09:14:00       -4.432       55.872       70.573       19.414       31.796       17.103      376.904     1010.972      292.504        0.490        0.084       56.048       16.088        0.082      336.936        8.571      869.384
12/22/2014  09:15:00        5.715       18.252       42.546       28.041       31.325       28.358      786.296      981.245      804.155        0.237        0.129       19.125       10.400        0.296      337.206        9.024      869.407
12/22/2014  09:16:00        7.123      -17.825       30.135       36.865       59.109       43.461     1359.034     3493.932     1888.861        0.401        0.337       19.195       41.719        4.724      337.125        8.888      869.416
12/22/2014  09:17:00      -46.576      -48.686       -5.984       41.211       36.125       23.029     1698.308     1305.022      530.340        0.405        0.177       67.377       16.574        0.061      336.842        8.416      869.433
12/22/2014  09:18:00      -18.589      -33.207       22.658       33.775       27.972       27.871     1140.751      782.419      776.767        0.233        0.135       38.056       16.647        0.191      337.101        8.848      869.444
12/22/2014  09:19:00       -9.871       -9.788       24.034       28.962       36.845       38.639      838.819     1357.547     1492.936        0.223        0.184       13.901       25.129        3.268      337.278        9.144      869.444
12/22/2014  09:20:00      -15.519       22.718       48.843       15.010       27.507       26.061      225.307      756.640      679.179        0.240        0.083       27.513       22.872        0.691      337.423        9.386      869.467
12/22/2014  09:21:00      -13.463        1.405       37.353       29.573       23.932       28.127      874.550      572.731      791.118        0.191        0.112       13.536       18.728        1.914      337.300        9.180      869.482
12/22/2014  09:22:00       -1.772       57.278      100.357       33.750       53.936       40.364     1139.089     2909.126     1629.275        0.952        0.284       57.306       37.879        0.437      337.242        9.084      869.484
12/22/2014  09:23:00       23.655      -22.005       60.834       64.096      101.805       53.018     4108.349    10364.346     2810.908        1.101        0.864       32.308       67.712        4.393      337.084        8.819      869.505
12/22/2014  09:24:00       18.489       24.349       89.280       72.173       92.043       66.236     5208.892     8471.881     4387.266        1.348        0.903       30.573       74.298        5.906      337.076        8.806      869.538
12/22/2014  09:25:00       92.819      -54.453       19.685       68.372       79.411       57.180     4674.664     6306.083     3269.499        1.311        0.713      107.613       61.605        0.328      336.955        8.604      869.570
12/22/2014  09:26:00       54.589       47.164       60.537       56.908       63.051       55.352     3238.470     3975.388     3063.857        0.957        0.514       72.141       47.674        0.437      336.855        8.436      869.616
12/22/2014  09:27:00       71.563      -73.948       24.289       74.877       79.315       44.482     5606.574     6290.832     1978.681        1.253        0.694      102.906       46.325        0.203      336.903        8.517      869.641
12/22/2014  09:28:00       72.444     -100.956       10.852       54.316       99.860       56.169     2950.220     9971.965     3154.903        1.581        0.804      124.259       60.829        0.240      336.852        8.430      869.673
12/22/2014  09:29:00      107.736      -91.283       19.715       83.994       84.011       58.407     7055.053     7057.797     3411.347        1.892        0.876      141.208       59.298        0.176      336.778        8.307      869.713
12/22/2014  09:30:00       56.146       -1.095       65.733       61.027      109.280       56.078     3724.348    11942.030     3144.741        1.314        0.941       56.157       72.791        1.680      336.907        8.524      869.762
12/22/2014  09:31:00       61.692      -18.144       57.007       61.498      143.419       73.785     3782.040    20568.992     5444.157        1.858        1.490       64.304       96.274        2.241      336.714        8.201      869.774
12/22/2014  09:32:00      103.567     -104.418      -11.157       76.083       88.608       61.679     5788.644     7851.352     3804.254        1.960        0.872      147.069       59.955        0.166      336.757        8.271      869.753
12/22/2014  09:33:00      117.710     -122.332      -17.188       56.819       86.504       38.914     3228.445     7482.985     1514.304        2.067        0.611      169.767       38.909        0.053      336.707        8.188      869.746
12/22/2014  09:34:00       62.877       35.340       64.589       67.604       72.285       52.350     4570.368     5225.084     2740.511        1.095        0.627       72.128       55.574        0.594      336.966        8.621      869.740
12/22/2014  09:35:00       16.375      -13.131       47.330       41.685       45.425       29.573     1737.617     2063.419      874.564        0.368        0.234       20.990        5.748        0.075      337.047        8.757      869.737
12/22/2014  09:36:00       45.992      -64.658        8.546       63.162       67.416       48.558     3989.487     4544.973     2357.884        0.863        0.545       79.347       52.573        0.439      336.892        8.496      869.712
12/22/2014  09:37:00      -10.832      -30.929       26.123       39.143       38.977       35.731     1532.172     1519.222     1276.722        0.304        0.216       32.771       27.656        0.712      337.030        8.729      869.677
12/22/2014  09:38:00      -34.939      -38.753        5.849       36.189       44.346       26.048     1309.658     1966.585      678.499        0.335        0.198       52.178       28.354        0.295      336.968        8.626      869.617
12/22/2014  09:39:00       14.192      -34.293       33.749       39.218       69.095       40.949     1538.019     4774.185     1676.860        0.525        0.399       37.114       34.652        0.872      337.218        9.044      869.577
12/22/2014  09:40:00       28.116      -89.318       -2.139       68.685       52.424       32.771     4717.640     2748.248     1073.940        0.865        0.427       93.639       33.624        0.129      337.080        8.811      869.547
12/22/2014  09:41:00      -15.747      -11.119       31.049       39.261       48.924       41.309     1541.425     2393.600     1706.428        0.349        0.282       19.277       33.165        2.960      337.220        9.046      869.550
12/22/2014  09:42:00      -41.662      -53.638      -19.317       37.903       27.752       25.477     1436.610      770.149      649.082        0.392        0.143       67.917       18.938        0.078      336.947        8.590      869.552
12/22/2014  09:43:00     -105.387      -79.838       -6.144       35.694       30.755       21.720     1274.038      945.842      471.754        1.010        0.135      132.214       12.652        0.009      336.828        8.391      869.547
12/22/2014  09:44:00     -100.052      -61.357        4.392       45.027       45.100       23.586     2027.458     2034.001      556.292        0.921        0.231      117.368       16.187        0.019      336.925        8.554      869.522
12/22/2014  09:45:00      -52.207      -74.450      -10.989       31.838       38.812       28.109     1013.644     1506.371      790.123        0.585        0.166       90.931       15.743        0.030      337.036        8.739      869.466
12/22/2014  09:46:00      -34.478      -25.978        5.336       37.149       41.953       20.634     1380.013     1760.026      425.779        0.273        0.178       43.169       26.147        0.367      337.516        9.544      869.410
12/22/2014  09:47:00      -27.002      -44.091        1.791       25.995       27.305       23.549      675.748      745.563      554.568        0.233        0.099       51.702        8.225        0.025      337.264        9.121      869.407
12/22/2014  09:48:00      -84.169      -15.433       -0.928       34.424       27.286       14.579     1185.032      744.540      212.538        0.473        0.107       85.573        9.436        0.012      337.195        9.005      869.433
12/22/2014  09:49:00     -104.595      -17.968       -2.595       44.936       35.205       26.201     2019.219     1239.375      686.513        0.761        0.197      106.127       19.844        0.035      337.156        8.939      869.473
12/22/2014  09:50:00      -74.049      -51.345        6.689       42.096       32.725       21.222     1772.058     1070.902      450.378        0.573        0.165       90.108       21.462        0.057      337.223        9.051      869.519
12/22/2014  09:51:00      -91.470      -83.237       -0.859       52.001       37.062       26.629     2704.063     1373.589      709.109        1.004        0.239      123.674       28.117        0.052      337.238        9.078      869.534
12/22/2014  09:52:00      -54.625      -63.200        9.947       49.728       46.405       25.360     2472.847     2153.388      643.142        0.617        0.263       83.536       28.236        0.114      337.216        9.042      869.515
12/22/2014  09:53:00      -57.343      -79.497       -0.894       21.945       42.801       16.166      481.579     1831.927      261.354        0.609        0.129       98.020       12.460        0.016      337.132        8.899      869.490
12/22/2014  09:54:00      -53.765      -36.769        6.530       38.614       31.755       22.930     1491.015     1008.381      525.782        0.365        0.151       65.136       18.562        0.081      337.270        9.131      869.476
12/22/2014  09:55:00      -83.307      -51.916        2.453       53.973       27.212       23.684     2913.109      740.495      560.913        0.693        0.211       98.159       23.089        0.055      337.256        9.107      869.474
12/22/2014  09:56:00      -73.380      -41.373        5.481       74.663       36.987       32.439     5574.539     1368.028     1052.302        0.756        0.400       84.240       41.574        0.244      337.423        9.388      869.457
12/22/2014  09:57:00      -68.431      -33.902       -1.631       28.598       30.532       20.514      817.866      932.223      420.836        0.400        0.109       76.369       13.871        0.033      337.346        9.258      869.440
12/22/2014  09:58:00      -15.366      -17.777       28.028       34.900       55.441       35.200     1218.012     3073.690     1239.070        0.343        0.277       23.497       41.496        3.119      337.702        9.855      869.452
12/22/2014  09:59:00      -15.779        9.104       41.191       28.190       36.699       43.057      794.684     1346.798     1853.874        0.301        0.200       18.217       31.331        2.958      337.855       10.113      869.468
12/22/2014  10:00:00      -27.617      -43.344        5.540       34.482       23.375       19.338     1188.984      546.407      373.951        0.239        0.105       51.395       11.799        0.053      337.573        9.638      869.465
12/22/2014  10:01:00      -29.864       -0.210       27.325       24.769       35.892       20.880      613.519     1288.239      435.959        0.199        0.117       29.864       19.579        0.430      337.732        9.904      869.448
12/22/2014  10:02:00       24.445       54.085       45.927       32.123       29.551       30.836     1031.899      873.239      950.840        0.424        0.143       59.352       24.224        0.167      337.818       10.050      869.404
12/22/2014  10:03:00      -19.373       -1.867       38.613       24.681       36.331       32.793      609.137     1319.922     1075.394        0.244        0.150       19.462       26.456        1.848      338.051       10.439      869.378
12/22/2014  10:04:00      -21.147        4.862       38.536       23.707       42.181       23.855      562.017     1779.260      569.063        0.243        0.146       21.699       18.563        0.732      337.996       10.347      869.408
12/22/2014  10:05:00       15.741       22.839       65.638       37.337       60.334       35.802     1394.069     3640.199     1281.795        0.570        0.316       27.738       40.068        2.087      337.949       10.268      869.446
12/22/2014  10:06:00       48.440       71.166       88.360       50.266       54.475       31.889     2526.684     2967.497     1016.885        1.086        0.326       86.087       20.241        0.055      337.849       10.101      869.472
12/22/2014  10:07:00       30.263       13.885       74.707       40.950       95.525       41.138     1676.925     9124.947     1692.373        0.959        0.625       33.296       50.705        2.319      337.792       10.005      869.476
12/22/2014  10:08:00       38.778       85.493       86.750       49.549       47.830       37.593     2455.067     2287.749     1413.261        1.125        0.308       93.876       28.168        0.090      337.671        9.802      869.484
12/22/2014  10:09:00       81.046       87.547       77.477       62.855       45.140       46.925     3950.758     2037.580     2201.943        1.421        0.410      119.302       32.698        0.075      337.669        9.800      869.487
12/22/2014  10:10:00      160.942       94.332       44.781       58.368       44.126       52.065     3406.790     1947.067     2710.733        2.243        0.403      186.549       34.621        0.034      337.567        9.626      869.488
12/22/2014  10:11:00      114.205      126.417       94.671       85.390       44.747       52.540     7291.416     2002.315     2760.440        2.502        0.603      170.364       53.482        0.099      337.610        9.698      869.460
12/22/2014  10:12:00      116.371       90.905       65.416       52.016       46.031       56.442     2705.630     2118.849     3185.672        1.705        0.401      147.668       44.958        0.093      337.334        9.237      869.471
12/22/2014  10:13:00       56.326       69.659       79.983       53.911       46.477       32.305     2906.373     2160.093     1043.608        1.026        0.306       89.582       36.000        0.161      337.651        9.770      869.512
12/22/2014  10:14:00       46.865      -66.445        5.282       43.294       44.776       28.323     1874.358     2004.879      802.186        0.566        0.234       81.310       32.493        0.160      337.726        9.895      869.544
12/22/2014  10:15:00       31.714      -36.865       24.992       41.443       86.855       43.774     1717.552     7543.748     1916.142        0.708        0.559       48.629       56.281        1.339      337.917       10.215      869.534
12/22/2014  10:16:00       14.482       65.033       76.108       33.552       51.617       45.099     1125.760     2664.312     2033.941        0.803        0.291       66.626       37.766        0.321      337.975       10.312      869.492
12/22/2014  10:17:00       75.675      118.393       89.968       48.577       35.913       35.169     2359.753     1289.764     1236.876        1.636        0.244      140.512       24.145        0.030      337.573        9.639      869.479
12/22/2014  10:18:00       85.035       81.130       76.948       58.710       48.094       29.003     3446.820     2313.062      841.169        1.317        0.330      117.529       29.095        0.061      337.614        9.708      869.481
12/22/2014  10:19:00       52.270       41.825       55.534       48.267       55.143       44.423     2329.662     3040.776     1973.378        0.745        0.367       66.944       37.808        0.319      337.838       10.083      869.482
12/22/2014  10:20:00       17.987       43.484       61.234       30.735       37.196       25.795      944.660     1383.507      665.387        0.448        0.150       47.057       15.513        0.109      337.866       10.128      869.475
12/22/2014  10:21:00       24.286       60.189       67.470       26.900       37.356       23.091      723.633     1395.453      533.199        0.571        0.133       64.904       25.752        0.157      337.750        9.935      869.448
12/22/2014  10:22:00       68.089       26.984       32.987       29.314       26.530       34.118      859.291      703.857     1164.054        0.459        0.136       73.241       20.437        0.078      337.579        9.648      869.438
12/22/2014  10:23:00       38.244        8.218        6.894       23.513       39.550       21.431      552.857     1564.210      459.272        0.208        0.129       39.117       15.599        0.159      337.775        9.978      869.427
12/22/2014  10:24:00       42.879       52.681       19.364       44.577       42.699       28.441     1987.098     1823.204      808.887        0.480        0.231       67.925       32.876        0.234      338.168       10.638      869.408
12/22/2014  10:25:00       49.413       77.693       52.669       36.300       41.300       32.996     1317.723     1705.720     1088.752        0.768        0.206       92.075       24.498        0.071      338.188       10.670      869.382
12/22/2014  10:26:00       52.646       32.538       42.127       26.499       46.249       27.639      702.213     2138.990      763.903        0.460        0.180       61.890       32.328        0.273      337.738        9.915      869.351
12/22/2014  10:27:00       54.707       35.400       30.315       21.177       23.434       26.668      448.453      549.145      711.183        0.344        0.085       65.162        9.005        0.019      337.742        9.923      869.332
12/22/2014  10:28:00       64.468       67.719       28.022       31.852       21.063       32.276     1014.525      443.666     1041.731        0.601        0.125       93.498       16.962        0.033      337.911       10.204      869.292
12/22/2014  10:29:00       14.481       50.000       60.812       27.166       34.621       18.436      737.970     1198.588      339.886        0.434        0.114       52.055       11.757        0.051      338.339       10.925      869.258
12/22/2014  10:30:00       21.265      -11.045       41.503       23.221       46.431       27.295      539.194     2155.792      745.043        0.287        0.172       23.963       30.397        1.609      338.118       10.552      869.265
12/22/2014  10:31:00       37.231      -32.597       17.114       25.188       25.583       25.940      634.425      654.513      672.867        0.235        0.098       49.485       15.161        0.094      338.016       10.381      869.273
12/22/2014  10:32:00       33.192       35.455        9.725       28.410       33.057       21.681      807.156     1092.764      470.060        0.241        0.118       48.568       12.650        0.068      337.995       10.346      869.247
12/22/2014  10:33:00       56.168       60.796        9.947       26.619       28.128       29.182      708.546      791.168      851.601        0.465        0.118       82.771        8.153        0.010      337.958       10.284      869.203
12/22/2014  10:34:00       26.168       32.858       35.121       27.813       23.145       18.789      773.554      535.676      353.037        0.233        0.083       42.005       14.952        0.127      338.230       10.740      869.172
12/22/2014  10:35:00        6.126        0.726       35.757       29.771       36.127       30.097      886.305     1305.150      905.851        0.221        0.155        6.168       25.597       17.220      338.640       11.428      869.117
12/22/2014  10:36:00        9.305       53.417       76.789       28.555       31.899       24.459      815.373     1017.528      598.259        0.563        0.122       54.221       21.726        0.161      338.660       11.462      869.081
12/22/2014  10:37:00        8.958       61.374       81.106       31.778       40.729       30.187     1009.818     1658.873      911.237        0.700        0.179       62.024       23.495        0.143      338.306       10.868      869.063
12/22/2014  10:38:00       61.649       12.387       53.237       55.808       85.187       55.065     3114.567     7256.740     3032.104        1.009        0.670       62.881       68.209        1.177      338.351       10.945      869.079
12/22/2014  10:39:00       37.798      -80.338        8.106       70.256       60.386       52.906     4935.972     3646.446     2799.040        0.966        0.569       88.786       54.102        0.371      338.256       10.783      869.092
12/22/2014  10:40:00       40.672      -14.853       36.888       37.430       58.591       51.146     1400.984     3432.956     2615.892        0.534        0.372       43.299       40.870        0.891      338.477       11.156      869.085
12/22/2014  10:41:00        5.538       -1.162       64.177       57.346       79.166       48.852     3288.621     6267.293     2386.498        0.804        0.597        5.658       47.904       71.680      338.545       11.269      869.056
12/22/2014  10:42:00        5.047      -32.564       32.353       48.961       83.528       54.919     2397.194     6976.884     3016.069        0.726        0.620       32.953       43.479        1.741      338.479       11.159      869.024
12/22/2014  10:43:00       14.512      -20.228       49.035       66.414       63.472       53.547     4410.880     4028.731     2867.262        0.716        0.565       24.895       49.559        3.963      338.416       11.052      868.999
12/22/2014  10:44:00        4.933        4.178       72.308       40.142       55.811       33.125     1611.346     3114.904     1097.278        0.555        0.291        6.464       19.970        9.543      338.588       11.341      869.005
12/22/2014  10:45:00       51.307     -106.670        7.853       58.864       80.051       54.180     3464.915     6408.101     2935.434        1.344        0.640      118.368       49.818        0.177      338.255       10.783      869.008
12/22/2014  10:46:00       66.607      -71.164       19.714       59.921       99.598       71.273     3590.539     9919.697     5079.876        1.424        0.930       97.472       74.115        0.578      338.408       11.039      868.988
12/22/2014  10:47:00       87.241      -99.241      -25.660       71.756       92.320       45.519     5148.941     8522.955     2072.001        1.693        0.787      132.136       44.362        0.113      338.367       10.969      868.984
12/22/2014  10:48:00      130.070     -145.562      -27.333       51.786       55.574       43.815     2681.808     3088.438     1919.713        2.327        0.384      195.209       43.792        0.050      338.104       10.526      868.973
12/22/2014  10:49:00       -7.947      -22.142       40.706       39.665       65.394       37.720     1573.284     4276.391     1422.785        0.474        0.364       23.525       33.889        2.075      338.519       11.225      868.974
12/22/2014  10:50:00       29.830     -112.544      -12.331      100.108       70.477       58.707    10021.678     4967.064     3446.551        1.607        0.922      116.431       67.933        0.340      338.241       10.758      868.965
12/22/2014  10:51:00       96.154     -128.350      -32.324       82.670       77.872       44.816     6834.258     6063.978     2008.457        2.083        0.745      160.372       43.342        0.073      338.150       10.603      868.954
12/22/2014  10:52:00      142.166     -159.130      -28.713       47.972       63.660       35.449     2301.281     4052.553     1256.602        2.698        0.381      213.386       23.207        0.012      338.145       10.596      868.941
12/22/2014  10:53:00      126.651     -133.671      -24.892       42.309       57.244       30.556     1790.093     3276.835      933.668        2.026        0.300      184.143       30.876        0.028      338.124       10.560      868.930
12/22/2014  10:54:00       82.114     -127.070       -3.788       48.773       66.935       39.179     2378.803     4480.299     1534.970        1.565        0.420      151.293       36.689        0.059      338.249       10.773      868.926
12/22/2014  10:55:00       48.809      -95.800       -4.068       57.398       89.458       45.024     3294.498     8002.727     2027.181        1.245        0.666      107.518       49.606        0.213      338.498       11.189      868.928
12/22/2014  10:56:00      127.386     -162.077      -43.348       59.802       71.504       34.694     3576.241     5112.797     1203.682        2.713        0.495      206.146       28.597        0.019      338.109       10.533      868.912
12/22/2014  10:57:00       75.502      -40.047        7.387       68.296       82.113       50.322     4664.410     6742.547     2532.321        1.065        0.697       85.465       61.181        0.512      338.335       10.917      868.914
12/22/2014  10:58:00       50.172        4.409       64.638       72.517       89.345       69.845     5258.752     7982.524     4878.386        1.241        0.906       50.366       75.981        2.276      338.475       11.152      868.916
12/22/2014  10:59:00       17.221       -4.050       44.593       57.154       53.316       48.700     3266.571     2842.645     2371.712        0.539        0.424       17.690       29.359        2.754      338.603       11.368      868.920
12/22/2014  11:00:00       10.255       48.960       74.889       37.577       47.489       30.211     1412.042     2255.195      912.697        0.634        0.229       50.022       25.764        0.265      338.602       11.365      868.903
12/22/2014  11:01:00        0.323       46.481       78.730       28.993       34.756       23.527      840.581     1207.969      553.534        0.548        0.130       46.483       17.214        0.137      338.655       11.455      868.886
12/22/2014  11:02:00      -16.259        5.102       78.553       29.874       57.216       29.917      892.447     3273.640      895.040        0.576        0.253       17.041       26.740        2.462      338.671       11.480      868.852
12/22/2014  11:03:00      -14.283      -35.814       20.777       42.689       29.279       19.698     1822.393      857.267      388.029        0.249        0.153       38.557       17.133        0.197      338.544       11.268      868.831
12/22/2014  11:04:00       29.132      -39.454       17.514       43.697       72.558       46.069     1909.421     5264.647     2122.384        0.600        0.465       49.043       46.031        0.881      338.717       11.557      868.797
12/22/2014  11:05:00      -32.125       24.530       72.919       25.391       59.023       35.519      644.722     3483.766     1261.600        0.617        0.270       40.420       36.179        0.801      338.935       11.925      868.789
12/22/2014  11:06:00      -13.141       71.350      104.871       34.504       39.465       30.659     1190.506     1557.506      939.999        0.997        0.184       72.549       26.063        0.129      338.766       11.641      868.783
12/22/2014  11:07:00       59.883       92.097       71.409       55.203       37.441       39.547     3047.361     1401.847     1563.997        1.159        0.301      109.853       33.922        0.095      338.635       11.421      868.771
12/22/2014  11:08:00       21.356       59.795       73.748       41.246       48.559       32.990     1701.201     2358.000     1088.337        0.731        0.257       63.494       33.189        0.273      338.811       11.715      868.776
12/22/2014  11:09:00       49.141       89.231       92.005       49.502       50.613       36.468     2450.459     2561.686     1329.951        1.259        0.317      101.867       30.691        0.091      338.675       11.487      868.760
12/22/2014  11:10:00       47.891       92.571       99.718       66.910       51.883       48.556     4476.933     2691.846     2357.642        1.516        0.476      104.225       46.029        0.195      338.711       11.548      868.720
12/22/2014  11:11:00       33.706       53.266       87.373       57.749       77.378       40.222     3334.968     5987.317     1617.805        1.127        0.547       63.034       36.853        0.342      338.687       11.507      868.688
12/22/2014  11:12:00       45.300       71.900       78.466       62.622       63.422       50.909     3921.562     4022.343     2591.754        1.196        0.527       84.981       56.754        0.446      338.806       11.708      868.691
12/22/2014  11:13:00       12.739       43.963       33.106       34.146       37.039       28.294     1165.916     1371.874      800.563        0.326        0.167       45.772       20.969        0.210      338.899       11.865      868.701
12/22/2014  11:14:00       -7.341       27.710        6.267       30.753       25.495       18.575      945.738      650.019      345.015        0.140        0.097       28.666       12.166        0.180      339.032       12.087      868.694
12/22/2014  11:15:00       59.866       44.408       28.038       63.341       48.951       35.052     4012.060     2396.225     1228.626        0.699        0.382       74.538       32.588        0.191      338.957       11.963      868.675
12/22/2014  11:16:00       44.019      -80.085        5.580       52.297       54.624       48.080     2735.013     2983.769     2311.657        0.820        0.402       91.385       35.546        0.151      338.898       11.861      868.642
12/22/2014  11:17:00       63.828      -48.095        6.452       42.463       71.714       55.776     1803.067     5142.861     3110.968        0.824        0.503       79.920       48.161        0.363      339.018       12.064      868.606
12/22/2014  11:18:00       40.426       21.667       43.030       45.097       74.797       46.482     2033.736     5594.618     2160.535        0.687        0.489       45.867       59.135        1.662      338.880       11.833      868.594
12/22/2014  11:19:00        5.099      -17.370       25.313       30.391       45.935       23.950      923.637     2110.027      573.597        0.229        0.180       18.103       24.007        1.759      339.179       12.335      868.580
12/22/2014  11:20:00       20.600      -58.271       21.486       36.283       41.697       35.123     1316.485     1738.616     1233.615        0.428        0.214       61.805       27.368        0.196      339.013       12.056      868.539
12/22/2014  11:21:00       55.728      -94.274      -15.943       37.024       32.855       24.578     1370.801     1079.481      604.056        0.765        0.153      109.514       19.376        0.031      338.822       11.734      868.498
12/22/2014  11:22:00       36.682      -61.566        8.965       44.165       54.544       36.361     1950.535     2975.010     1322.140        0.573        0.312       71.665       25.526        0.127      338.967       11.979      868.452
12/22/2014  11:23:00       39.229      -88.302       22.511       43.716       59.678       42.715     1911.071     3561.461     1824.529        0.857        0.365       96.624       34.856        0.130      339.083       12.174      868.409
12/22/2014  11:24:00       11.611      -30.872       18.117       32.514       46.383       29.350     1057.176     2151.410      861.451        0.274        0.204       32.983       20.825        0.399      339.137       12.265      868.395
12/22/2014  11:25:00       21.679      -22.960        9.179       46.997       40.809       37.988     2208.709     1665.392     1443.070        0.320        0.266       31.577       16.099        0.260      338.994       12.024      868.425
12/22/2014  11:26:00       46.192      -16.910       15.183       47.118       36.423       21.616     2220.144     1326.636      467.263        0.333        0.201       49.190       17.218        0.123      338.898       11.863      868.446
12/22/2014  11:27:00       -2.443       16.714       60.414       20.187       35.856       20.157      407.496     1285.630      406.325        0.302        0.105       16.891       19.914        1.390      339.177       12.331      868.458
12/22/2014  11:28:00       15.888       24.941       34.976       22.909       20.535       26.981      524.837      421.678      727.974        0.189        0.084       29.572       11.175        0.143      338.958       11.964      868.489
12/22/2014  11:29:00       21.444       41.030        2.736        8.837        8.555       12.101       78.101       73.183      146.437        0.122        0.015       46.296        6.479        0.020      338.613       11.384      868.491
12/22/2014  11:30:00       43.396       42.267        9.283       26.493       15.320       23.961      701.854      234.708      574.128        0.263        0.076       60.578       13.330        0.048      338.691       11.513      868.465
12/22/2014  11:31:00       75.760       64.885       20.434       27.539       24.488       21.553      758.410      599.642      464.537        0.609        0.091       99.748       11.719        0.014      338.762       11.634      868.443
12/22/2014  11:32:00       45.678       51.244       20.698       28.616       19.865       19.419      818.879      394.632      377.084        0.337        0.080       68.647       12.665        0.034      338.811       11.714      868.431
12/22/2014  11:33:00      -13.478       22.200       27.872       25.353       23.748       23.461      642.755      563.955      550.422        0.160        0.088       25.971       16.851        0.421      339.166       12.313      868.415
12/22/2014  11:34:00        7.555        6.904       33.179       27.724       26.564       22.792      768.597      705.633      519.456        0.160        0.100       10.235       13.731        1.800      339.455       12.800      868.404
12/22/2014  11:35:00       38.859      -36.135       27.072       47.703       63.211       49.937     2275.601     3995.618     2493.706        0.616        0.438       53.064       53.869        1.031      339.283       12.510      868.392
12/22/2014  11:36:00       63.322      -53.706       11.123       62.566       78.375       57.386     3914.449     6142.697     3293.163        1.018        0.668       83.030       49.790        0.360      339.199       12.368      868.402
12/22/2014  11:37:00       48.379     -105.921      -20.616       77.137       59.819       48.082     5950.101     3578.259     2311.859        1.291        0.592      116.446       36.626        0.099      339.168       12.316      868.426
12/22/2014  11:38:00      116.943     -129.806      -30.470       36.500       44.052       23.390     1332.276     1940.605      547.092        1.764        0.191      174.714       11.082        0.004      338.882       11.835      868.434
12/22/2014  11:39:00       73.413      -52.257        2.947       36.077       41.876       28.849     1301.519     1753.622      832.244        0.601        0.194       90.112       23.876        0.070      339.070       12.151      868.441
12/22/2014  11:40:00        1.859       48.061       61.039       16.770       22.915       15.640      281.218      525.096      244.606        0.354        0.053       48.097       14.538        0.091      339.463       12.813      868.442
12/22/2014  11:41:00        6.752       17.348       48.877       30.584       49.441       43.385      935.407     2444.400     1882.245        0.400        0.263       18.616       44.705        5.767      339.490       12.858      868.420
12/22/2014  11:42:00      102.210       74.256       49.614       55.827       48.458       46.979     3116.675     2348.166     2207.060        1.305        0.384      126.336       35.561        0.079      339.155       12.295      868.410
12/22/2014  11:43:00       30.566       46.801       51.824       34.615       39.669       36.393     1198.188     1573.651     1324.425        0.495        0.205       55.898       26.451        0.224      339.286       12.515      868.394
12/22/2014  11:44:00       -9.195      -20.103       43.409       37.564       61.176       34.282     1411.054     3742.498     1175.279        0.435        0.316       22.106       39.384        3.174      339.588       13.024      868.374
12/22/2014  11:45:00      101.383       27.664       12.598       57.110       70.375       44.990     3261.597     4952.659     2024.101        1.072        0.512      105.090       28.089        0.071      339.270       12.488      868.368
12/22/2014  11:46:00       37.666      -21.114       29.067       46.293       84.144       45.817     2143.049     7080.217     2099.167        0.701        0.566       43.180       55.639        1.660      339.491       12.860      868.373
12/22/2014  11:47:00      106.933     -121.439       -8.095       66.559       88.189       44.400     4430.119     7777.261     1971.344        2.021        0.709      161.809       47.459        0.086      339.331       12.590      868.367
12/22/2014  11:48:00       58.464      -43.759       22.202       52.840       88.336       67.637     2792.117     7803.313     4574.734        1.049        0.759       73.027       66.395        0.827      339.542       12.947      868.374
12/22/2014  11:49:00       33.820      -65.226       35.147       46.783      100.063       69.453     2188.667    10012.639     4823.730        1.183        0.851       73.473       74.302        1.023      339.623       13.082      868.390
12/22/2014  11:50:00       41.504       47.749       70.038       49.759       94.492       51.698     2475.912     8928.644     2672.681        1.149        0.704       63.266       60.267        0.907      339.627       13.090      868.423
12/22/2014  11:51:00       18.711       -9.717       27.086       30.411       49.920       38.064      924.804     2492.022     1448.846        0.302        0.243       21.084       29.032        1.896      339.682       13.182      868.443
12/22/2014  11:52:00       23.775        0.178       35.990       34.637       65.036       44.256     1199.721     4229.660     1958.568        0.462        0.369       23.775       47.374        3.970      339.845       13.458      868.447
12/22/2014  11:53:00       -0.757       15.853       10.032       28.718       27.891       23.457      824.695      777.902      550.251        0.125        0.108       15.871       19.122        1.452      339.704       13.220      868.432
12/22/2014  11:54:00       30.694      -55.778       -5.997       51.129       59.461       23.765     2614.178     3535.590      564.791        0.540        0.336       63.666       28.289        0.197      339.809       13.398      868.427
12/22/2014  11:55:00       -3.490        5.867       58.172       25.426       43.053       27.550      646.479     1853.546      758.990        0.334        0.163        6.827       27.894       16.696      340.240       14.123      868.427
12/22/2014  11:56:00       18.529       59.950       81.276       40.435       54.265       32.906     1634.978     2944.699     1082.816        0.810        0.283       62.748       32.218        0.264      339.994       13.709      868.442
12/22/2014  11:57:00       69.851       71.497       43.722       44.418       39.000       41.836     1972.935     1521.003     1750.243        0.857        0.262       99.955       26.295        0.069      339.756       13.308      868.455
12/22/2014  11:58:00        8.484       21.314        7.050       34.888       30.318       34.234     1217.199      919.173     1171.956        0.194        0.165       22.940       18.417        0.645      339.966       13.663      868.453
12/22/2014  11:59:00      -29.778       23.311        3.849       38.505       33.762       37.310     1482.654     1139.872     1392.023        0.273        0.201       37.817       33.792        0.798      340.240       14.125      868.446
12/22/2014  12:00:00       27.625      -92.684      -12.842       50.820       59.171       32.750     2582.632     3501.171     1072.557        0.834        0.358       96.713        8.245        0.007      339.829       13.431      868.448
12/22/2014  12:01:00       66.088      -53.634        6.328       46.906       46.886       39.694     2200.132     2198.337     1575.623        0.663        0.299       85.113       28.052        0.109      339.960       13.652      868.469
12/22/2014  12:02:00       33.034        4.850       69.458       56.641       81.895       56.999     3208.228     6706.842     3248.920        0.955        0.658       33.388       63.992        3.673      339.902       13.552      868.487
12/22/2014  12:03:00       43.406       95.000      100.435       53.185       44.397       39.453     2828.673     1971.065     1556.574        1.367        0.318      104.447       31.642        0.092      339.975       13.675      868.477
12/22/2014  12:04:00       16.642       24.242       62.732       63.781       59.692       52.748     4067.968     3563.080     2782.401        0.760        0.521       29.405       51.646        3.085      340.160       13.989      868.450
12/22/2014  12:05:00       46.917       -4.286       29.807       63.233       51.433       32.863     3998.434     2645.330     1079.974        0.541        0.386       47.112       25.054        0.283      339.973       13.674      868.446
12/22/2014  12:06:00       64.471       40.953       49.154       56.506       45.397       40.600     3192.960     2060.910     1648.383        0.757        0.345       76.378       28.517        0.139      340.005       13.727      868.424
12/22/2014  12:07:00       59.097       79.686       12.499       74.801       42.391       45.983     5595.165     1796.984     2114.482        0.975        0.475       99.209       11.348        0.013      339.862       13.486      868.371
12/22/2014  12:08:00        0.004       48.968       60.611       28.421       40.974       32.749      807.752     1678.876     1072.495        0.481        0.178       48.968       22.221        0.206      340.192       14.044      868.315
12/22/2014  12:09:00       46.098       54.437       70.415       51.960       53.453       39.813     2699.848     2857.246     1585.092        0.859        0.357       71.333       34.175        0.230      339.965       13.661      868.285
12/22/2014  12:10:00       44.129       12.706       51.773       43.052       72.136       35.791     1853.482     5203.639     1281.019        0.656        0.417       45.922       45.693        0.990      340.101       13.890      868.277
12/22/2014  12:11:00       -1.641       20.805       68.565       32.959       60.703       44.373     1086.269     3684.872     1968.966        0.594        0.337       20.869       46.006        4.860      340.263       14.163      868.239
12/22/2014  12:12:00        3.355        2.839       33.587       40.846       54.084       47.324     1668.389     2925.070     2239.597        0.399        0.342        4.395       14.770       11.295      340.297       14.220      868.198
12/22/2014  12:13:00       31.104       66.333       15.407       98.027       52.712       33.169     9609.338     2778.535     1100.179        0.954        0.674       73.264       16.489        0.051      340.330       14.276      868.199
12/22/2014  12:14:00     -142.911      -67.194       -3.442      101.362       61.973       29.937    10274.175     3840.681      896.217        1.998        0.751      157.920       37.693        0.057      340.208       14.068      868.202
12/22/2014  12:15:00     -246.773      -33.106      -22.848       68.584       61.760       33.850     4703.744     3814.314     1145.802        3.609        0.483      248.984       30.484        0.015      340.249       14.135      868.242
12/22/2014  12:16:00     -182.343       -4.395      -17.113       68.764       67.058       38.627     4728.462     4496.824     1492.060        2.214        0.536      182.396       29.602        0.026      340.451       14.480      868.300
12/22/2014  12:17:00     -280.800        0.958      -53.259       57.122       75.439       49.639     3262.899     5690.990     2463.991        4.655        0.571      280.802       29.191        0.011      340.016       13.742      868.278
12/22/2014  12:18:00      -78.268       57.414      -17.981       50.740       60.550       25.540     2574.572     3666.357      652.300        0.832        0.345       97.069       15.769        0.026      340.271       14.176      868.258
12/22/2014  12:19:00      -86.576      171.653      -21.691       87.908       72.774       48.550     7727.808     5296.121     2357.106        2.640        0.769      192.250       51.191        0.071      339.999       13.715      868.304
12/22/2014  12:20:00      -76.429      296.957      -46.367      114.832       84.521       52.160    13186.365     7143.733     2720.706        5.961        1.153      306.635       44.579        0.021      340.040       13.783      868.328
12/22/2014  12:21:00      -94.956      258.353      -31.643       59.340       89.413       55.236     3521.186     7994.697     3051.040        4.566        0.728      275.251       51.195        0.035      340.042       13.786      868.337
12/22/2014  12:22:00      -97.227      201.195      -26.429       52.273       76.515       43.050     2732.479     5854.514     1853.296        3.053        0.522      223.456       40.786        0.033      340.031       13.766      868.322
12/22/2014  12:23:00      -78.566      173.190      -22.946       48.112       72.525       33.706     2314.763     5259.913     1136.078        2.270        0.436      190.178       37.357        0.039      339.977       13.677      868.285
12/22/2014  12:24:00      -37.750      292.943      -40.860       35.716       73.126       36.759     1275.614     5347.431     1351.243        4.844        0.399      295.365       34.222        0.013      339.885       13.520      868.220
12/22/2014  12:25:00      -33.296      214.068      -39.984       41.218       78.213       36.703     1698.949     6117.293     1347.132        2.885        0.458      216.641       38.395        0.031      339.873       13.504      868.171
12/22/2014  12:26:00       26.253      212.407      -31.682       50.227       82.945       33.335     2522.739     6879.835     1111.224        2.866        0.526      214.023       45.582        0.045      339.912       13.566      868.155
12/22/2014  12:27:00       47.445      194.988      -36.269       45.675       63.448       33.596     2086.195     4025.711     1128.689        2.441        0.362      200.677       35.612        0.031      339.921       13.584      868.159
12/22/2014  12:28:00      133.544      122.712       13.523       55.974       45.402       50.535     3133.076     2061.316     2553.807        2.041        0.387      181.362       31.617        0.030      340.046       13.795      868.107
12/22/2014  12:29:00       80.561       57.155       11.984       53.950       47.813       34.818     2910.556     2286.049     1212.293        0.815        0.320       98.776       36.774        0.139      340.107       13.900      868.069
12/22/2014  12:30:00       26.135       25.454       -3.638       34.350       45.871       22.424     1179.896     2104.191      502.857        0.256        0.189       36.482       18.693        0.263      340.285       14.199      868.067
12/22/2014  12:31:00      -16.794       24.487       -7.946       34.331       25.792       21.532     1178.620      665.209      463.620        0.163        0.115       29.693        9.736        0.108      340.495       14.555      868.065
12/22/2014  12:32:00      -57.335      -24.483       -1.759       58.360       30.041       21.463     3405.906      902.455      460.671        0.433        0.238       62.343       16.953        0.074      340.397       14.388      868.077
12/22/2014  12:33:00      -20.826      -25.074       -3.686       57.387       24.616       27.675     3293.244      605.945      765.890        0.287        0.233       32.595        7.894        0.059      340.485       14.539      868.098
12/22/2014  12:34:00      -77.377      -32.420      -11.944       31.227       17.450       19.246      975.134      304.495      370.391        0.442        0.083       83.894       17.702        0.045      340.072       13.840      868.114
12/22/2014  12:35:00       -5.034      -28.171       -6.978       18.253       25.291       12.519      333.163      639.656      156.715        0.100        0.056       28.617        9.157        0.102      340.150       13.972      868.105
12/22/2014  12:36:00      -52.009      -10.877       -1.072       28.004       25.072       23.854      784.242      628.612      568.993        0.240        0.099       53.134       17.524        0.109      340.186       14.030      868.084
12/22/2014  12:37:00      -97.002      -22.296       -5.056       60.741       44.635       32.807     3689.451     1992.272     1076.328        0.834        0.338       99.531       31.665        0.101      340.375       14.352      868.096
12/22/2014  12:38:00     -118.747      156.952      -43.885       82.374      104.057       48.394     6785.436    10827.913     2341.950        3.030        0.998      196.812       60.829        0.096      340.444       14.465      868.108
12/22/2014  12:39:00       24.211       64.057       -0.980       81.716       82.023       36.447     6677.534     6727.788     1328.391        0.971        0.737       68.479       24.846        0.132      340.413       14.416      868.106
12/22/2014  12:40:00       35.984      169.318      -16.322       61.898      117.082       57.320     3831.325    13708.264     3285.538        2.552        1.041      173.099       72.487        0.175      340.275       14.181      868.112
12/22/2014  12:41:00       26.215       93.703      -18.698       57.989       69.235       39.535     3362.731     4793.500     1563.003        0.977        0.486       97.301       31.299        0.103      340.171       14.006      868.052
12/22/2014  12:42:00       41.334      155.956      -37.021       36.234       91.355       25.527     1312.893     8345.826      651.608        1.885        0.516      161.341       30.857        0.037      340.223       14.093      868.016
12/22/2014  12:43:00      -41.212      154.507      -27.617       40.590       51.794       27.613     1647.538     2682.659      762.454        1.571        0.255      159.909       26.968        0.028      340.211       14.074      868.005
12/22/2014  12:44:00      -65.111      163.162      -27.798       41.199       43.387       35.279     1697.337     1882.473     1244.643        1.823        0.241      175.674       30.931        0.031      340.186       14.031      868.014
12/22/2014  12:45:00      -79.328      241.955      -39.676       61.112      107.704       40.751     3734.632    11600.183     1660.655        4.170        0.850      254.627       47.082        0.034      340.248       14.134      868.048
12/22/2014  12:46:00     -149.518      280.918      -50.622       63.535       74.694       38.455     4036.717     5579.222     1478.817        5.746        0.555      318.230       30.990        0.009      340.156       13.977      868.066
12/22/2014  12:47:00     -120.611      180.513      -32.539       70.596       72.150       40.024     4983.751     5205.671     1601.952        2.999        0.590      217.098       37.004        0.029      340.267       14.166      868.100
12/22/2014  12:48:00     -101.736      266.138      -46.019       99.896      100.990       39.295     9979.112    10198.910     1544.087        5.251        1.086      284.921       32.456        0.013      340.248       14.134      868.139
12/22/2014  12:49:00     -134.308      114.202      -26.678       72.443       85.121       42.610     5248.021     7245.542     1815.649        2.305        0.715      176.297       44.324        0.063      340.256       14.149      868.155
12/22/2014  12:50:00     -141.975      143.267      -29.850       79.448       53.096       43.994     6312.033     2819.208     1935.472        2.632        0.553      201.699       47.923        0.056      340.132       13.940      868.137
12/22/2014  12:51:00      -53.064       94.795       -3.726       68.242       54.596       37.446     4656.955     2980.729     1402.176        1.043        0.452      108.637       33.460        0.095      340.287       14.204      868.134
12/22/2014  12:52:00      -67.058      148.805      -27.228       80.332       47.201       27.777     6453.211     2227.976      771.550        1.842        0.473      163.217       28.157        0.030      340.157       13.982      868.116
12/22/2014  12:53:00     -148.565       29.613      -24.875       54.818       55.219       34.282     3005.040     3049.191     1175.248        1.540        0.361      151.487       19.499        0.017      340.222       14.092      868.108
12/22/2014  12:54:00      -90.494       67.071        3.635       57.643       65.662       34.717     3322.727     4311.554     1205.253        1.077        0.442      112.640       30.685        0.074      340.410       14.412      868.112
12/22/2014  12:55:00      -30.588      114.366      -11.256       52.804       74.516       32.224     2788.304     5552.628     1038.360        1.176        0.469      118.386       32.061        0.073      340.286       14.202      868.120
12/22/2014  12:56:00        0.718      178.210      -24.434       54.617       44.235       32.039     2983.004     1956.735     1026.512        1.916        0.298      178.211       26.003        0.021      340.151       13.973      868.086
12/22/2014  12:57:00      -10.362      112.236      -12.602       58.363       68.894       37.336     3406.257     4746.416     1394.010        1.120        0.477      112.714       36.701        0.106      340.257       14.151      868.056
12/22/2014  12:58:00        6.351      219.845      -36.252       38.869       73.374       31.326     1510.815     5383.714      981.328        2.878        0.394      219.937       29.149        0.018      340.008       13.729      868.066
12/22/2014  12:59:00     -119.812      260.186      -45.714       92.216       97.045       46.205     8503.785     9417.679     2134.895        5.209        1.003      286.447       54.235        0.036      340.055       13.807      868.060
12/22/2014  13:00:00     -104.798      226.526      -49.807       65.158       96.906       44.155     4245.589     9390.775     1949.682        4.018        0.779      249.593       49.264        0.039      340.064       13.824      868.065
12/22/2014  13:01:00      -10.348      156.637      -33.747       39.525       53.968       16.876     1562.223     2912.493      284.805        1.527        0.238      156.979       21.166        0.018      340.072       13.842      868.036
12/22/2014  13:02:00      -18.758      224.748      -35.527       43.140       66.987       27.362     1861.088     4487.206      748.676        2.961        0.355      225.530       31.109        0.019      340.062       13.820      868.028
12/22/2014  13:03:00        8.128      201.828      -34.797       46.370       54.588       25.556     2150.198     2979.834      653.125        2.390        0.289      201.992       26.835        0.018      340.042       13.788      868.027
12/22/2014  13:04:00       -8.510      209.195      -28.710       75.603       60.701       42.930     5715.802     3684.555     1843.020        2.795        0.562      209.368       31.823        0.023      340.096       13.879      868.030
12/22/2014  13:05:00      -53.195      322.460      -42.444       73.042       84.409       45.515     5335.093     7124.904     2071.624        6.157        0.727      326.818       41.313        0.016      340.060       13.816      868.004
12/22/2014  13:06:00      -91.517      188.920      -28.789       70.478       82.995       45.084     4967.159     6888.115     2032.603        2.939        0.694      209.919       37.822        0.032      340.160       13.984      867.970
12/22/2014  13:07:00      -56.795      196.202      -35.501       71.017       90.641       31.585     5043.460     8215.789      997.605        2.862        0.713      204.257       35.934        0.031      340.156       13.978      867.969
12/22/2014  13:08:00      -21.321       88.596       -4.862       96.801       64.849       38.284     9370.345     4205.354     1465.658        1.168        0.752       91.126       30.367        0.111      340.184       14.028      867.980
12/22/2014  13:09:00     -100.363       83.301      -21.920       69.338       52.698       26.964     4807.824     2777.047      727.066        1.290        0.416      130.429       34.076        0.068      340.286       14.200      867.991
12/22/2014  13:10:00      -74.216       66.870      -14.467       87.285      106.787       41.232     7618.755    11403.403     1700.090        1.545        1.036       99.898       45.520        0.208      340.268       14.170      868.008
12/22/2014  13:11:00      -29.857       64.994       -6.104       57.724       57.795       39.369     3332.038     3340.244     1549.951        0.669        0.411       71.524       32.747        0.210      340.220       14.090      868.003
12/22/2014  13:12:00      -18.406       69.434       -0.989       36.417       55.336       35.292     1326.227     3062.076     1245.507        0.540        0.282       71.833       27.586        0.147      340.414       14.418      867.994
12/22/2014  13:13:00      -23.190       85.851       -0.730       47.506       53.796       33.067     2256.844     2893.979     1093.454        0.708        0.312       88.928       26.271        0.087      340.396       14.388      868.004
12/22/2014  13:14:00      -69.747       -8.673       -1.320       65.466       78.315       32.987     4285.851     6133.162     1088.130        0.822        0.575       70.284       21.006        0.089      340.356       14.319      868.010
12/22/2014  13:15:00      -98.697       75.098       -5.706       86.744       96.116       50.436     7524.566     9238.373     2543.774        1.736        0.965      124.019       56.939        0.211      340.437       14.456      868.032
12/22/2014  13:16:00      -81.330      260.826      -35.387       97.409      159.401       51.352     9488.561    25408.641     2637.074        5.671        1.877      273.212       61.299        0.050      340.309       14.237      868.016
12/22/2014  13:17:00     -170.790      215.924      -41.559      133.309      107.798       58.389    17771.334    11620.366     3409.229        5.515        1.640      275.304       52.533        0.036      340.335       14.282      868.015
12/22/2014  13:18:00     -120.250      221.729      -13.874      124.336       93.102       69.554    15459.430     8668.004     4837.798        4.639        1.448      252.238       71.954        0.081      340.267       14.166      868.000
12/22/2014  13:19:00      -85.894      399.504      -44.486      119.929      139.593       75.186    14383.036    19486.196     5652.968       10.423        1.976      408.633       71.110        0.030      340.168       13.999      867.971
12/22/2014  13:20:00     -171.897      427.958      -64.235      164.152      163.172       68.242    26945.975    26624.966     4657.033       13.751        2.911      461.190       69.804        0.023      340.170       14.002      867.957
12/22/2014  13:21:00      -86.879      240.641      -23.764      114.773      148.047       74.531    13172.791    21918.057     5554.909        5.333        2.032      255.844       72.339        0.080      340.251       14.139      867.930
12/22/2014  13:22:00     -157.956      405.897      -57.195      109.201      119.563       70.780    11924.877    14295.381     5009.745       11.210        1.562      435.549       64.619        0.022      340.148       13.965      867.919
12/22/2014  13:23:00     -178.273      262.783      -50.168      141.787      187.056       67.945    20103.522    34990.104     4616.469        8.152        2.986      317.548       83.804        0.070      340.192       14.039      867.910
12/22/2014  13:24:00     -174.399      209.075      -35.355      122.965      113.948       66.526    15120.486    12984.177     4425.763        5.395        1.627      272.264       62.050        0.052      340.231       14.105      867.915
12/22/2014  13:25:00      -91.645      318.686      -45.552      100.990      108.617       63.200    10199.033    11797.588     3994.178        6.901        1.300      331.602       63.694        0.037      340.183       14.023      867.915
12/22/2014  13:26:00      -20.953      235.529      -30.706       49.580       78.059       39.799     2458.141     6093.143     1583.944        3.349        0.507      236.459       35.328        0.022      340.237       14.115      867.871
12/22/2014  13:27:00      -82.735      187.853      -24.069       60.191      107.633       48.762     3622.961    11584.890     2377.700        3.015        0.879      205.265       51.239        0.062      340.407       14.403      867.855
12/22/2014  13:28:00      -81.488      159.724      -14.179       75.200       89.628       50.742     5655.102     8033.152     2574.796        2.430        0.813      179.310       41.854        0.054      340.393       14.381      867.850
12/22/2014  13:29:00     -134.120      173.720      -21.646      111.602      105.518       59.828    12455.057    11134.081     3579.384        3.790        1.358      219.469       73.361        0.112      340.415       14.418      867.855
12/22/2014  13:30:00      -20.368      298.429      -26.477       74.827       98.135       51.745     5599.011     9630.568     2677.561        5.404        0.895      299.124       51.783        0.030      340.263       14.157      867.860
12/22/2014  13:31:00      -61.774      204.447      -28.906       70.251       95.772       45.671     4935.181     9172.258     2085.866        3.132        0.810      213.576       47.336        0.049      340.271       14.171      867.872
12/22/2014  13:32:00      -61.027      242.627      -31.271       84.297      196.282       56.798     7106.068    38526.639     3225.977        5.620        2.443      250.184       83.876        0.112      340.284       14.197      867.895
12/22/2014  13:33:00     -102.232      379.305      -51.635      113.386      169.033       56.556    12856.364    28572.002     3198.536       10.080        2.231      392.841       70.389        0.032      340.177       14.014      867.928
12/22/2014  13:34:00      -33.286      521.071      -61.079      158.026      201.578       87.797    24972.343    40633.781     7708.282       17.482        3.666      522.133       98.714        0.036      340.083       13.856      867.934
12/22/2014  13:35:00      -35.584      541.014      -71.690      100.840      211.604       81.570    10168.743    44776.044     6653.713       18.034        3.080      542.183      103.069        0.036      340.037       13.778      867.946
12/22/2014  13:36:00      -89.682      402.333      -58.920      110.178       83.635       50.444    12139.139     6994.764     2544.615        9.753        1.084      412.207       42.278        0.011      340.090       13.866      867.987
12/22/2014  13:37:00        2.794      354.859      -69.622       92.723      132.355       46.780     8597.590    17517.752     2188.338        7.954        1.415      354.870       44.479        0.016      340.118       13.914      867.960
12/22/2014  13:38:00      -62.062      263.014      -32.069       78.381       90.021       46.446     6143.614     8103.789     2157.191        4.523        0.820      270.237       32.848        0.015      340.196       14.046      867.948
12/22/2014  13:39:00      -94.126      453.699      -55.637       95.315      173.413       53.627     9084.879    30072.239     2875.827       12.991        2.102      463.360       62.624        0.018      340.238       14.115      867.965
12/22/2014  13:40:00     -141.702      342.714      -50.123      102.085      167.419       60.337    10421.427    28029.230     3640.606        9.106        2.105      370.853       69.438        0.035      340.300       14.220      867.957
12/22/2014  13:41:00     -160.151      233.750      -32.381       73.887      102.848       55.355     5459.337    10577.788     3064.168        5.021        0.955      283.350       42.401        0.022      340.389       14.369      867.982
12/22/2014  13:42:00       -8.303      123.695      -13.422       93.284      129.748       39.572     8701.827    16834.594     1565.982        2.132        1.355      123.973       38.993        0.099      340.362       14.327      867.970
12/22/2014  13:43:00      -42.789      208.455      -32.641      128.833      148.461       59.796    16597.890    22040.596     3575.596        4.427        2.111      212.801       64.502        0.092      340.274       14.177      867.964
12/22/2014  13:44:00     -112.190      320.651      -47.939       94.019      180.107       59.098     8839.489    32438.365     3492.527        8.123        2.239      339.711       72.862        0.046      340.226       14.097      868.026
12/22/2014  13:45:00     -116.548      341.939      -41.566       86.954      105.393       57.772     7561.005    11107.618     3337.557        7.712        1.100      361.256       45.809        0.016      340.119       13.916      868.051
12/22/2014  13:46:00     -136.114      367.845      -63.009      129.198      128.285       65.849    16692.036    16456.980     4336.030        9.764        1.874      392.220       66.699        0.029      340.096       13.876      868.054
12/22/2014  13:47:00     -104.604      259.331      -17.717       89.728      105.641       61.264     8051.084    11160.067     3753.229        5.073        1.148      279.633       53.501        0.037      340.109       13.898      868.057
12/22/2014  13:48:00      -48.170      246.211      -32.874       68.496      100.751       49.353     4691.683    10150.751     2435.710        4.065        0.864      250.879       54.394        0.047      340.113       13.905      868.059
12/22/2014  13:49:00     -125.983      210.241      -27.694       87.773      146.987       60.619     7704.173    21605.199     3674.669        4.691        1.649      245.098       57.151        0.054      340.203       14.058      868.046
12/22/2014  13:50:00     -150.959      288.548      -55.969       89.223      113.814       60.451     7960.680    12953.578     3654.324        6.687        1.228      325.651       63.286        0.038      340.159       13.983      868.047
12/22/2014  13:51:00     -131.219      219.049      -31.201      104.098      122.991       65.731    10836.470    15126.839     4320.546        4.822        1.514      255.345       73.216        0.082      340.212       14.073      868.045
12/22/2014  13:52:00      -47.019      290.983      -38.167      150.368      159.209       65.435    22610.551    25347.507     4281.744        7.028        2.612      294.758       80.363        0.074      340.170       14.003      868.027
12/22/2014  13:53:00     -131.115      188.031      -34.440      127.976      122.981       58.658    16377.830    15124.430     3440.773        4.433        1.747      229.231       57.198        0.062      340.241       14.124      868.052
12/22/2014  13:54:00      -51.136      336.748      -48.337      149.225      109.053       79.991    22268.108    11892.628     6398.563        7.945        2.028      340.608       74.619        0.048      340.191       14.037      868.053
12/22/2014  13:55:00     -107.802      251.193      -19.054      143.955      181.030       77.017    20723.167    32771.763     5931.554        6.724        2.971      273.348       90.446        0.109      340.252       14.140      868.061
12/22/2014  13:56:00        5.596      452.292      -50.242      118.082      174.227       88.338    13943.396    30354.897     7803.571       12.960        2.605      452.327       92.155        0.042      340.158       13.981      868.058
12/22/2014  13:57:00     -144.973      375.941      -48.656      117.917      185.047       68.102    13904.469    34242.340     4637.821       10.874        2.639      402.925       72.133        0.032      340.233       14.109      868.076
12/22/2014  13:58:00     -129.436      417.073      -51.643      128.325      180.270       68.538    16467.212    32497.167     4697.472       12.351        2.683      436.697       85.784        0.039      340.179       14.018      868.081
12/22/2014  13:59:00      -52.843      346.365      -53.193       90.596      111.118       44.564     8207.551    12347.117     1985.956        7.406        1.127      350.372       46.171        0.017      340.178       14.015      868.071
12/22/2014  14:00:00     -110.165      467.601      -62.656      111.640      146.791       81.970    12463.436    21547.731     6719.041       13.771        2.037      480.403       76.296        0.025      340.150       13.968      868.061
12/22/2014  14:01:00      -46.692      519.891      -67.418      121.472      207.432       73.701    14755.374    43028.125     5431.875       17.010        3.161      521.984       81.111        0.024      340.135       13.943      868.070
12/22/2014  14:02:00      -51.589      503.003      -69.104      121.993      152.121       69.610    14882.360    23140.652     4845.554       15.165        2.143      505.641       75.323        0.022      340.076       13.842      868.058
12/22/2014  14:03:00     -259.124      480.254      -84.201      145.809       86.304       64.844    21260.166     7448.304     4204.758       16.889        1.646      545.701       57.793        0.011      340.103       13.889      868.081
12/22/2014  14:04:00     -156.547      299.802      -30.390      115.323      134.186       88.593    13299.344    18005.854     7848.709        7.723        1.958      338.214       66.467        0.039      340.120       13.918      868.053
12/22/2014  14:05:00      -81.014      525.421      -67.619       82.072      137.196       55.915     6735.832    18822.677     3126.479       15.794        1.434      531.630       62.851        0.014      340.067       13.827      868.050
12/22/2014  14:06:00      -91.573      606.159      -80.700      118.269      135.598       65.613    13987.531    18386.860     4305.038       20.950        1.834      613.037       60.584        0.010      340.061       13.818      868.038
12/22/2014  14:07:00     -157.154      455.297      -60.919      101.211      195.475       80.106    10243.688    38210.391     6416.977       14.528        2.744      481.656       79.412        0.027      340.087       13.862      868.055
12/22/2014  14:08:00     -183.167      306.125      -63.478      116.654      119.759       56.758    13608.168    14342.228     3221.515        8.123        1.559      356.740       60.376        0.029      340.106       13.893      868.042
12/22/2014  14:09:00     -189.715      389.119      -65.022      116.446      129.171       58.359    13559.573    16685.147     3405.803       11.264        1.683      432.904       55.138        0.016      340.076       13.843      868.031
12/22/2014  14:10:00     -130.120      321.667      -46.162       86.313      110.305       58.528     7449.982    12167.185     3425.474        7.278        1.152      346.989       50.993        0.022      340.103       13.889      868.031
12/22/2014  14:11:00     -194.352      421.835      -64.927      133.233      202.145       86.780    17751.134    40862.468     7530.814       14.303        3.307      464.454       89.958        0.038      340.088       13.863      868.046
12/22/2014  14:12:00     -104.037      405.638      -52.687      105.026      138.762       61.245    11030.535    19254.926     3750.951       10.608        1.702      418.767       59.375        0.020      340.086       13.859      868.068
12/22/2014  14:13:00     -175.352      322.610      -67.315      124.160       91.119       54.854    15415.715     8302.759     3008.990        8.304        1.336      367.186       56.111        0.023      340.091       13.867      868.085
12/22/2014  14:14:00     -174.612      430.678      -53.226      108.291      121.102       69.546    11726.957    14665.757     4836.651       12.501        1.561      464.729       68.925        0.022      340.072       13.838      868.120
12/22/2014  14:15:00     -192.542      238.712      -51.227      125.501      110.377       60.493    15750.390    12183.109     3659.431        6.413        1.580      306.685       67.687        0.049      340.125       13.926      868.116
12/22/2014  14:16:00     -151.959      183.326      -30.319      111.283       89.935       51.526    12383.960     8088.255     2654.901        4.037        1.156      238.118       44.132        0.034      340.127       13.931      868.119
12/22/2014  14:17:00     -103.034      165.401      -23.752       86.132      121.373       54.420     7418.662    14731.512     2961.583        3.182        1.256      194.868       63.738        0.107      340.117       13.914      868.141
12/22/2014  14:18:00      -71.794      150.670       -5.935       86.607       77.741       50.423     7500.840     6043.641     2542.524        2.199        0.804      166.900       38.738        0.054      340.142       13.959      868.120
12/22/2014  14:19:00        0.140      243.262      -30.204       82.354       93.041       59.763     6782.133     8656.674     3571.587        3.955        0.951      243.262       50.406        0.043      340.049       13.798      868.149
12/22/2014  14:20:00      -39.061      341.270      -37.053       76.980      143.049       66.668     5925.882    20463.031     4444.568        7.509        1.542      343.498       67.193        0.038      340.007       13.728      868.139
12/22/2014  14:21:00      -77.860      398.040      -57.867      123.888       98.090       52.762    15348.278     9621.708     2783.856        9.779        1.388      405.583       47.414        0.014      339.984       13.688      868.158
12/22/2014  14:22:00       -4.110      349.548      -45.823       96.842      162.572       67.940     9378.416    26429.565     4615.839        8.235        2.021      349.572       87.745        0.063      339.977       13.678      868.178
12/22/2014  14:23:00       29.662      351.838      -52.981       88.824      153.185       60.500     7889.714    23465.630     3660.277        8.124        1.751      353.086       79.558        0.051      339.950       13.633      868.164
12/22/2014  14:24:00      -81.869      471.011      -74.330      119.754      121.995       76.323    14340.954    14882.899     5825.187       13.456        1.752      478.073       72.551        0.023      339.961       13.650      868.151
12/22/2014  14:25:00      -36.087      371.382      -52.931       85.945       93.275       50.672     7386.503     8700.288     2567.663        8.034        0.933      373.131       44.581        0.014      339.978       13.678      868.191
12/22/2014  14:26:00      -56.224      220.558      -24.555       70.440       98.150       34.419     4961.862     9633.457     1184.668        3.409        0.789      227.612       35.250        0.024      340.056       13.811      868.183
12/22/2014  14:27:00     -150.612      187.509      -34.650       84.846      105.420       39.596     7198.792    11113.360     1567.829        3.946        0.994      240.507       39.538        0.027      340.096       13.877      868.191
12/22/2014  14:28:00     -140.079      199.929      -28.066       99.782      160.274       58.265     9956.481    25687.907     3394.790        4.970        1.952      244.118       55.484        0.052      340.099       13.884      868.176
12/22/2014  14:29:00     -139.578      235.515      -31.980       69.249       93.513       40.804     4795.457     8744.751     1664.950        4.559        0.760      273.768       38.982        0.020      340.045       13.791      868.152
12/22/2014  14:30:00      -36.735      167.954      -21.161       70.031       87.716       44.817     4904.388     7694.127     2008.535        2.230        0.730      171.924       45.720        0.071      340.125       13.930      868.145
12/22/2014  14:31:00     -146.144      211.854      -59.470       88.554      190.279       66.233     7841.878    36206.031     4386.833        5.910        2.422      257.372       91.378        0.126      340.100       13.885      868.174
12/22/2014  14:32:00     -225.581      450.647      -59.449      116.787      143.179       78.701    13639.271    20500.113     6193.886       14.891        2.017      503.954       78.256        0.024      340.005       13.724      868.187
12/22/2014  14:33:00     -121.085      389.346      -45.954      116.187      124.191       63.611    13499.469    15423.495     4046.414       10.066        1.648      407.740       62.875        0.024      339.983       13.686      868.158
12/22/2014  14:34:00     -101.947      334.261      -48.179       68.965      100.154       50.436     4756.157    10030.876     2543.823        7.088        0.867      349.462       49.418        0.020      340.004       13.722      868.154
12/22/2014  14:35:00     -137.299      266.414      -38.777       80.864      144.827       57.084     6539.021    20974.917     3258.536        6.105        1.539      299.713       67.123        0.050      340.008       13.729      868.176
12/22/2014  14:36:00     -145.006      166.096      -34.911       94.111      118.577       55.940     8856.927    14060.444     3129.328        3.793        1.302      220.487       69.232        0.099      340.052       13.805      868.160
12/22/2014  14:37:00     -150.817      238.055      -27.289      115.153      144.126       61.449    13260.142    20772.284     3775.923        5.898        1.890      281.809       57.424        0.042      340.012       13.735      868.152
12/22/2014  14:38:00     -166.036      277.026      -21.391      100.567      184.781       63.403    10113.795    34144.151     4019.926        7.651        2.414      322.973       78.718        0.059      339.967       13.660      868.151
12/22/2014  14:39:00      -77.153      128.579      -18.190       47.474       66.534       33.615     2253.735     4426.829     1129.956        1.531        0.391      149.951       33.401        0.050      340.002       13.722      868.119
12/22/2014  14:40:00      -40.508      194.872       -8.461      115.789      100.669       57.677    13407.036    10134.181     3326.616        3.327        1.343      199.038       47.561        0.057      339.973       13.671      868.103
12/22/2014  14:41:00     -214.273      341.473      -65.456      132.082      160.358       64.066    17445.741    25714.605     4104.424       10.702        2.363      403.134       66.932        0.028      339.971       13.667      868.104
12/22/2014  14:42:00     -189.322      193.291      -39.954       84.150      123.029       52.412     7081.217    15136.155     2746.980        4.988        1.248      270.563       58.904        0.047      339.986       13.691      868.084
12/22/2014  14:43:00      -93.157      181.791      -19.368       49.852       89.042       44.083     2485.248     7928.490     1943.342        2.723        0.618      204.270       37.905        0.034      339.966       13.659      868.092
12/22/2014  14:44:00     -151.389      229.005      -47.978       68.857       99.647       48.612     4741.222     9929.480     2363.109        4.735        0.852      274.521       48.096        0.031      339.966       13.659      868.094
12/22/2014  14:45:00     -118.825      346.296      -56.512       98.698      148.645       52.606     9741.222    22095.276     2767.352        8.591        1.730      366.115       49.795        0.018      339.976       13.674      868.115
12/22/2014  14:46:00      -87.468      277.246      -35.744       97.819      124.416       66.093     9568.654    15479.246     4368.223        5.760        1.471      290.716       65.663        0.051      340.022       13.753      868.100
12/22/2014  14:47:00      -61.975      244.491      -41.846       77.433       94.885       34.079     5995.813     9003.253     1161.388        4.076        0.808      252.223       24.638        0.010      340.050       13.798      868.113
12/22/2014  14:48:00     -106.098      244.979      -40.126       97.182       92.265       46.611     9444.336     8512.791     2172.589        4.650        1.006      266.967       18.770        0.005      340.129       13.931      868.151
12/22/2014  14:49:00       -6.094      276.739      -11.795       76.443       96.620       60.221     5843.574     9335.399     3626.624        4.778        0.940      276.806       48.955        0.031      340.068       13.828      868.170
12/22/2014  14:50:00     -107.873      186.245      -28.624       70.721      103.455       56.248     5001.506    10702.840     3163.809        3.300        0.943      215.229       49.926        0.054      340.172       14.008      868.188
12/22/2014  14:51:00      -91.622      142.219      -17.363      107.826       92.395       48.086    11626.417     8536.888     2312.258        2.569        1.124      169.177       59.690        0.124      340.194       14.045      868.212
12/22/2014  14:52:00     -100.329      203.372      -24.006      114.649      131.906       67.732    13144.325    17399.290     4587.594        4.356        1.757      226.773       62.143        0.075      340.187       14.031      868.209
12/22/2014  14:53:00      -28.463      301.927      -33.221       90.784      117.561       56.099     8241.803    13820.701     3147.081        5.914        1.260      303.266       46.733        0.024      340.146       13.962      868.239
12/22/2014  14:54:00     -190.246      356.371      -56.591       75.590      102.383       63.716     5713.852    10482.316     4059.681        9.332        1.013      403.973       57.255        0.020      340.144       13.959      868.226
12/22/2014  14:55:00     -127.424      262.746      -51.739       90.138      139.602       51.508     8124.842    19488.628     2653.065        5.910        1.513      292.014       41.242        0.020      340.205       14.062      868.248
12/22/2014  14:56:00      -84.722      286.519      -25.523      123.909      127.605       74.204    15353.457    16282.983     5506.226        6.353        1.857      298.783       64.719        0.047      340.240       14.121      868.260
12/22/2014  14:57:00     -165.526      333.508      -40.815      123.166      135.641       73.667    15169.920    18398.496     5426.845        8.964        1.950      372.326       76.494        0.042      340.175       14.010      868.289
12/22/2014  14:58:00     -153.994      197.638      -35.233       92.815      105.393       51.945     8614.540    11107.656     2698.239        4.321        1.121      250.549       52.551        0.044      340.247       14.132      868.277
12/22/2014  14:59:00     -188.176      181.151      -42.261      136.383      114.607       61.776    18600.409    13134.874     3816.233        5.277        1.778      261.201       54.232        0.043      340.250       14.138      868.280
12/22/2014  15:00:00     -176.090      193.887      -25.887       89.891      101.230       61.015     8080.373    10247.421     3722.868        4.566        1.103      261.916       50.787        0.038      340.238       14.117      868.285
12/22/2014  15:01:00     -107.109      138.875      -16.393      122.224      112.244       63.406    14938.736    12598.657     4020.359        3.129        1.578      175.381       70.272        0.161      340.255       14.147      868.280
12/22/2014  15:02:00     -196.624      191.920      -26.303      118.983      112.205       69.951    14156.850    12590.030     4893.134        5.391        1.582      274.763       76.304        0.077      340.204       14.060      868.259
12/22/2014  15:03:00     -129.510      171.837      -40.216       71.240       77.664       39.963     5075.142     6031.761     1597.080        3.031        0.635      215.176       38.232        0.032      340.157       13.981      868.254
12/22/2014  15:04:00      -89.057      129.362      -17.904       93.413       81.183       47.610     8725.958     6590.740     2266.735        2.128        0.879      157.053       39.045        0.062      340.221       14.089      868.257
12/22/2014  15:05:00     -128.984      137.580      -19.020       61.495      103.882       47.064     3781.625    10791.570     2215.055        2.635        0.839      188.587       47.528        0.064      340.241       14.125      868.257
12/22/2014  15:06:00      -80.020      123.544      -22.815       63.265       40.380       28.172     4002.465     1630.565      793.684        1.431        0.321      147.195       18.411        0.016      340.131       13.940      868.260
12/22/2014  15:07:00      -47.980      159.518      -24.036      110.156      103.766       43.053    12134.336    10767.375     1853.573        2.654        1.238      166.577       36.574        0.048      340.285       14.197      868.271
12/22/2014  15:08:00       -6.503      227.453      -30.975       68.514      129.712       46.385     4694.217    16825.173     2151.583        3.820        1.184      227.546       64.652        0.081      340.138       13.949      868.259
12/22/2014  15:09:00       37.799      373.474      -56.184       83.845       88.698       48.927     7029.947     7867.331     2393.809        8.068        0.865      375.382       42.753        0.013      340.063       13.820      868.249
12/22/2014  15:10:00       22.961      324.245      -43.010      101.895      100.089       59.579    10382.558    10017.903     3549.686        6.573        1.198      325.057       55.518        0.029      340.120       13.916      868.262
12/22/2014  15:11:00       18.131      264.828      -52.268       66.878       95.485       39.037     4472.605     9117.396     1523.855        4.415        0.756      265.448       47.148        0.032      340.100       13.883      868.279
12/22/2014  15:12:00      -48.495      157.005      -14.388       48.507       50.725       30.902     2352.939     2572.992      954.914        1.654        0.294      164.324       30.068        0.033      340.189       14.039      868.292
12/22/2014  15:13:00       11.388      169.590      -29.501       79.575       97.003       44.035     6332.195     9409.675     1939.056        2.372        0.884      169.972       52.986        0.097      340.207       14.066      868.298
12/22/2014  15:14:00       92.105      120.383       13.207       93.301      126.685       66.680     8705.013    16049.068     4446.269        2.617        1.460      151.576       69.201        0.208      340.236       14.116      868.250
12/22/2014  15:15:00      -26.822      257.812      -40.321      116.589       88.983       54.852    13593.083     7917.945     3008.783        4.666        1.226      259.204       52.612        0.041      340.266       14.164      868.280
12/22/2014  15:16:00     -125.357      150.347      -25.082       85.774      110.507       56.345     7357.104    12211.840     3174.717        3.084        1.137      195.752       60.483        0.095      340.330       14.274      868.292
12/22/2014  15:17:00     -175.337      218.882      -47.172       80.226       88.772       52.079     6436.250     7880.466     2712.262        4.895        0.851      280.451       51.936        0.034      340.236       14.114      868.299
12/22/2014  15:18:00      -29.981      221.523      -26.992       36.172      112.241       33.674     1308.394    12598.069     1133.964        3.287        0.752      223.543       49.990        0.050      340.185       14.028      868.308
12/22/2014  15:19:00      -49.225      177.624      -27.382       79.765       93.518       38.498     6362.474     8745.609     1482.097        2.565        0.830      184.318       13.674        0.006      340.387       14.371      868.334
12/22/2014  15:20:00      -84.323      260.033      -48.205      109.445      115.543       54.322    11978.237    13350.157     2950.901        5.266        1.414      273.364       54.772        0.040      340.224       14.092      868.350
12/22/2014  15:21:00      -14.702      256.075      -32.795       67.878       80.117       32.879     4607.412     6418.713     1081.013        3.948        0.605      256.497       33.873        0.017      340.132       13.938      868.367
12/22/2014  15:22:00      -56.981      285.929      -53.536       69.378       81.350       38.376     4813.251     6617.759     1472.741        5.038        0.645      291.552       42.483        0.021      340.061       13.818      868.387
12/22/2014  15:23:00      -11.823      142.731       -9.899       80.887       70.764       44.500     6542.629     5007.547     1980.208        1.707        0.677      143.220       48.579        0.115      340.140       13.953      868.396
12/22/2014  15:24:00      -40.620      248.173      -39.379       61.903       88.217       46.384     3831.941     7782.197     2151.448        3.928        0.688      251.476       52.759        0.044      340.053       13.804      868.369
12/22/2014  15:25:00      -31.817      207.619      -40.313       41.467       67.806       23.066     1719.533     4597.692      532.035        2.629        0.342      210.043       26.808        0.016      340.063       13.824      868.344
12/22/2014  15:26:00      -89.686      134.133      -30.674       53.462       54.797       29.919     2858.237     3002.740      895.173        1.686        0.338      161.355       26.507        0.027      340.159       13.986      868.352
12/22/2014  15:27:00      -74.235       76.427      -22.002       41.190       44.424       24.352     1696.646     1973.450      593.005        0.805        0.213      106.546       15.890        0.022      340.242       14.128      868.330
12/22/2014  15:28:00      -28.992      134.151      -20.009       50.410       80.421       25.340     2541.204     6467.461      642.118        1.444        0.483      137.249       32.044        0.055      340.208       14.069      868.323
12/22/2014  15:29:00      -68.718      157.957      -29.209       54.914       60.832       23.769     3015.543     3700.582      564.986        1.890        0.364      172.257       24.155        0.020      340.181       14.025      868.326
12/22/2014  15:30:00      -83.046      240.173      -33.013      118.917       94.086       57.023    14141.366     8852.247     3251.617        4.595        1.312      254.125       49.149        0.037      340.072       13.837      868.333
12/22/2014  15:31:00      -39.626      284.904      -36.246       81.655      100.958       46.786     6667.516    10192.452     2188.971        5.155        0.952      287.647       53.050        0.034      339.983       13.687      868.340
12/22/2014  15:32:00      -65.788      208.364      -32.573       57.007       74.884       32.220     3249.787     5607.618     1038.106        2.935        0.495      218.503       27.531        0.016      339.979       13.682      868.339
12/22/2014  15:33:00     -101.294      284.509      -40.853       92.585       92.939       59.416     8571.967     8637.708     3530.282        5.680        1.037      302.003       56.887        0.035      339.959       13.647      868.351
12/22/2014  15:34:00      -99.114      207.808      -34.262       83.983       86.607       42.355     7053.222     7500.859     1793.966        3.526        0.817      230.234       38.367        0.028      340.006       13.727      868.371
12/22/2014  15:35:00      -14.990      263.457      -38.488       58.916       69.989       38.266     3471.093     4898.421     1464.293        4.047        0.492      263.883       38.550        0.021      339.929       13.595      868.388
12/22/2014  15:36:00      -57.780      119.098      -12.660       50.634       75.585       39.646     2563.802     5713.022     1571.794        1.376        0.492      132.374       37.417        0.080      340.051       13.804      868.408
12/22/2014  15:37:00      -89.367      217.797      -22.209       50.317       88.579       43.229     2531.822     7846.211     1868.753        3.408        0.612      235.418       47.293        0.040      339.973       13.670      868.402
12/22/2014  15:38:00     -119.516      144.496      -27.996       66.634       81.000       47.451     4440.059     6560.950     2251.604        2.460        0.663      187.519       48.512        0.067      340.008       13.729      868.400
12/22/2014  15:39:00     -141.362      136.371      -20.527       66.411      103.328       47.359     4410.485    10676.600     2242.916        2.816        0.867      196.419       41.112        0.044      340.055       13.810      868.407
12/22/2014  15:40:00     -137.954      100.018      -21.866       53.331       86.548       39.957     2844.146     7490.485     1596.525        2.072        0.597      170.396       22.858        0.018      340.076       13.845      868.406
12/22/2014  15:41:00     -132.353      131.674      -31.098       47.126       74.221       33.887     2220.817     5508.714     1148.296        2.235        0.444      186.696       30.348        0.026      339.977       13.678      868.414
12/22/2014  15:42:00      -67.891      107.221      -10.247       62.151       78.595       39.406     3862.789     6177.099     1552.817        1.390        0.580      126.908       31.497        0.062      339.975       13.677      868.415
12/22/2014  15:43:00     -106.557      150.680      -25.214       59.918       53.533       36.913     3590.136     2865.766     1362.589        2.126        0.391      184.551       32.043        0.030      339.925       13.592      868.400
12/22/2014  15:44:00     -108.472      151.469      -20.626       58.006       67.663       36.489     3364.740     4578.268     1331.430        2.220        0.464      186.303       31.742        0.029      339.902       13.550      868.388
12/22/2014  15:45:00      -92.944      174.133      -31.896       49.168       64.900       40.266     2417.512     4212.043     1621.365        2.411        0.413      197.385       37.874        0.037      339.871       13.496      868.377
12/22/2014  15:46:00      -59.601       56.147       -8.346       48.820       61.176       32.641     2383.402     3742.461     1065.421        0.698        0.360       81.882       20.533        0.063      339.957       13.646      868.363
12/22/2014  15:47:00      -60.033       82.481      -17.520       53.341       75.647       24.618     2845.277     5722.461      606.029        0.994        0.459      102.015       30.972        0.092      339.978       13.680      868.350
12/22/2014  15:48:00      -71.237       84.990      -16.678       47.337       44.088       24.297     2240.755     1943.718      590.368        0.867        0.239      110.897       16.219        0.021      339.903       13.557      868.360
12/22/2014  15:49:00      -47.502       96.088       -7.314       54.825       39.305       27.271     3005.732     1544.868      743.681        0.842        0.265      107.188       22.093        0.042      339.921       13.587      868.364
12/22/2014  15:50:00      -67.666       46.230      -10.934       61.344       65.711       26.675     3763.105     4317.956      711.548        0.781        0.440       81.950       20.051        0.060      339.929       13.601      868.358
12/22/2014  15:51:00     -138.689       27.246      -25.071      104.929      103.130       49.111    11010.034    10635.841     2411.928        2.233        1.203      141.340       64.464        0.208      339.800       13.380      868.346
12/22/2014  15:52:00      -66.519      121.913      -16.132       57.274       46.582       33.402     3280.362     2169.875     1115.675        1.306        0.328      138.880       23.472        0.029      339.878       13.512      868.340
12/22/2014  15:53:00      -72.182       58.381       -9.941       53.970       59.402       26.994     2912.727     3528.563      728.680        0.794        0.358       92.837       27.357        0.087      339.894       13.541      868.344
12/22/2014  15:54:00     -110.284        5.695      -11.736       49.612       51.350       30.648     2461.371     2636.778      939.286        0.918        0.302      110.431       20.226        0.034      339.947       13.629      868.334
12/22/2014  15:55:00     -179.156       38.089      -27.476       60.468       62.878       38.715     3656.396     3953.691     1498.868        2.170        0.455      183.160       37.634        0.042      339.841       13.449      868.322
12/22/2014  15:56:00     -162.678       23.247      -20.317       50.286       54.356       28.825     2528.707     2954.550      830.886        1.686        0.316      164.330       21.774        0.018      339.934       13.608      868.310
12/22/2014  15:57:00     -102.932       20.698       22.131       56.450       49.520       52.179     3186.652     2452.182     2722.680        0.994        0.418      104.993       40.288        0.147      339.933       13.606      868.285
12/22/2014  15:58:00     -153.181      123.856      -25.413      113.112      111.032       44.886    12794.245    12328.135     2014.772        3.329        1.357      196.989       42.565        0.047      339.826       13.423      868.265
12/22/2014  15:59:00     -123.609       31.044        2.191       87.909       94.424       47.297     7728.013     8915.818     2237.000        1.756        0.944      127.448       42.960        0.114      339.905       13.558      868.252
12/22/2014  16:00:00     -137.993      -16.709      -24.266       56.068       73.181       47.017     3143.660     5355.424     2210.594        1.531        0.535      139.001       30.814        0.049      339.812       13.401      868.254
12/22/2014  16:01:00     -121.746      -13.815       -4.050       83.534       52.996       37.297     6978.008     2808.607     1391.060        1.310        0.559      122.528       43.508        0.126      339.737       13.274      868.260
12/22/2014  16:02:00     -142.023       -5.840      -12.681       61.579       56.057       44.363     3791.963     3142.417     1968.079        1.463        0.445      142.143       37.658        0.070      339.810       13.398      868.252
12/22/2014  16:03:00     -107.254      -16.608       -9.751       42.244       55.484       34.900     1784.591     3078.427     1218.007        0.898        0.304      108.533       22.052        0.041      339.841       13.450      868.234
12/22/2014  16:04:00     -131.314       24.420       -8.704       81.138       74.807       35.653     6583.455     5596.019     1271.103        1.568        0.673      133.565       40.191        0.091      339.934       13.608      868.238
12/22/2014  16:05:00      -56.473       25.916        3.206       84.175       47.272       35.724     7085.431     2234.619     1276.195        0.723        0.530       62.136       44.036        0.502      339.832       13.435      868.223
12/22/2014  16:06:00      -37.712       -2.518        0.669       42.278       36.889       31.004     1787.446     1360.834      961.231        0.277        0.205       37.796       20.354        0.290      339.833       13.436      868.226
12/22/2014  16:07:00      -65.205       43.469       -9.877       52.028       43.924       32.728     2706.884     1929.297     1071.099        0.597        0.285       78.366       40.845        0.272      339.889       13.533      868.226
12/22/2014  16:08:00      -51.791      -12.410        0.929       33.374       33.662       20.941     1113.856     1133.126      438.540        0.276        0.134       53.257       18.171        0.116      339.871       13.501      868.212
12/22/2014  16:09:00     -132.715      -49.661      -13.019       43.252       30.489       19.681     1870.711      929.588      387.345        1.172        0.159      141.702       14.603        0.011      339.623       13.084      868.202
12/22/2014  16:10:00     -122.685      -70.136      -10.978       50.461       26.747       24.457     2546.295      715.385      598.160        1.197        0.193      141.317       21.966        0.024      339.580       13.012      868.193
12/22/2014  16:11:00     -159.098      -68.553      -13.694       32.905       34.316       20.292     1082.736     1177.613      411.779        1.644        0.134      173.239       18.934        0.012      339.536       12.935      868.181
12/22/2014  16:12:00     -146.126        3.289      -11.865       45.647       40.002       28.425     2083.675     1600.150      807.989        1.300        0.225      146.163       27.189        0.035      339.745       13.289      868.168
12/22/2014  16:13:00     -104.296      -43.600      -13.855       56.271       42.567       23.139     3166.386     1811.991      535.428        0.924        0.276      113.043       21.261        0.035      339.576       13.003      868.150
12/22/2014  16:14:00     -106.443      -10.594       -3.136       62.610       38.869       30.905     3920.008     1510.780      955.095        0.892        0.319      106.969       35.910        0.113      339.548       12.957      868.137
12/22/2014  16:15:00      -70.877       -1.904       -7.906       51.222       37.602       23.130     2623.676     1413.908      534.979        0.483        0.229       70.903       25.295        0.127      339.742       13.284      868.127
12/22/2014  16:16:00     -118.227      -46.784      -14.474       22.833       25.275       19.779      521.364      638.826      391.210        0.896        0.078      127.147       15.257        0.014      339.458       12.806      868.119
12/22/2014  16:17:00     -106.332      -52.552      -13.459       46.230       27.494       24.113     2137.193      755.944      581.459        0.886        0.174      118.609       24.637        0.043      339.541       12.946      868.106
12/22/2014  16:18:00     -110.620      -19.935      -12.487       35.088       32.799       24.139     1231.135     1075.805      582.704        0.784        0.144      112.402       20.670        0.034      339.687       13.191      868.090
12/22/2014  16:19:00     -114.089      -42.946      -13.412       21.498       23.888       17.119      462.183      570.631      293.066        0.818        0.066      121.904       10.935        0.008      339.537       12.937      868.069
12/22/2014  16:20:00      -71.910      -50.663      -14.712       43.216       16.938       12.571     1867.607      286.884      158.027        0.513        0.116       87.965       17.177        0.038      339.487       12.854      868.051
12/22/2014  16:21:00      -39.590       -3.294       -3.060       46.113       26.145       19.082     2126.383      683.561      364.128        0.238        0.159       39.726       19.486        0.241      339.661       13.148      868.069
12/22/2014  16:22:00      -80.161      -29.961       -9.730       51.696       41.403       27.373     2672.479     1714.220      749.273        0.628        0.257       85.577       24.801        0.084      339.553       12.964      868.083
12/22/2014  16:23:00      -55.864      -31.631      -14.472       51.705       30.008       18.441     2673.449      900.458      340.070        0.412        0.196       64.197       18.718        0.085      339.490       12.859      868.081
12/22/2014  16:24:00      -36.159      -26.289        0.512       28.499       20.947       17.319      812.169      438.763      299.948        0.177        0.078       44.705       12.156        0.074      339.460       12.809      868.089
12/22/2014  16:25:00       -3.937        2.958       -0.887       13.234       15.398        9.459      175.132      237.090       89.466        0.026        0.025        4.924        5.388        1.197      339.455       12.801      868.078
12/22/2014  16:26:00        5.933       -5.538        3.809        9.688       13.129        9.225       93.864      172.358       85.103        0.022        0.018        8.116        4.435        0.299      339.398       12.704      868.069
12/22/2014  16:27:00      -25.936      -31.191        6.105       30.365       23.006       18.292      922.047      529.266      334.607        0.173        0.089       40.565       16.067        0.157      339.565       12.985      868.065
12/22/2014  16:28:00      -18.045      -15.007        3.557       22.052       27.212       15.193      486.294      740.478      230.833        0.101        0.073       23.469       11.331        0.233      339.450       12.791      868.054
12/22/2014  16:29:00      -58.492        5.433       -8.490       33.863       31.203       15.750     1146.721      973.597      248.059        0.295        0.118       58.744       12.655        0.046      339.699       13.212      868.049
12/22/2014  16:30:00      -89.383       -6.148       -8.150       44.295       36.044       22.166     1962.049     1299.201      491.332        0.592        0.188       89.594       20.979        0.055      339.629       13.094      868.054
12/22/2014  16:31:00      -86.602        5.078       -9.210       36.235       39.732       22.090     1312.997     1578.601      487.970        0.549        0.169       86.750       19.880        0.053      339.642       13.116      868.065
12/22/2014  16:32:00      -49.987       32.191       -4.116       23.661       28.828       19.226      559.847      831.056      369.648        0.266        0.088       59.456       11.325        0.036      339.581       13.014      868.063
12/22/2014  16:33:00      -61.960       27.397      -10.444       34.456       41.291       20.519     1187.199     1704.923      421.043        0.401        0.166       67.747       15.351        0.051      339.439       12.772      868.052
12/22/2014  16:34:00      -53.235       24.597      -12.680       32.292       27.117       18.557     1042.773      735.356      344.369        0.286        0.106       58.643       16.897        0.083      339.425       12.748      868.042
12/22/2014  16:35:00      -60.467      -12.101      -11.746       28.420       28.814       13.965      807.675      830.238      195.014        0.289        0.092       61.666       12.154        0.039      339.444       12.781      868.033
12/22/2014  16:36:00     -104.058      -43.710       -4.157       25.265       32.540       20.760      638.303     1058.875      430.966        0.744        0.106      112.866       12.990        0.013      339.287       12.517      868.032
12/22/2014  16:37:00      -73.918      -34.047        0.151       32.387       27.910       14.387     1048.919      778.951      206.986        0.433        0.102       81.382       11.830        0.021      339.162       12.305      868.037
12/22/2014  16:38:00      -60.104      -37.349       -3.272       41.379       26.186       19.865     1712.215      685.732      394.633        0.390        0.140       70.763       17.494        0.061      339.177       12.331      868.027
12/22/2014  16:39:00     -105.557      -61.274      -14.887       18.222       14.753       10.911      332.028      217.648      119.052        0.789        0.033      122.052        4.061        0.001      339.103       12.207      868.033
12/22/2014  16:40:00      -88.462      -26.533      -10.476       28.485       33.081       18.994      811.390     1094.330      360.775        0.545        0.113       92.355       14.937        0.026      339.239       12.435      868.052
12/22/2014  16:41:00      -57.906      -22.199        2.524       33.991       30.047       23.056     1155.368      902.796      531.564        0.322        0.129       62.015       15.454        0.062      339.093       12.189      868.072
12/22/2014  16:42:00      -89.009      -19.215       -6.235       42.255       28.287       18.395     1785.467      800.171      338.385        0.563        0.146       91.059       19.194        0.044      339.135       12.259      868.071
12/22/2014  16:43:00     -123.457      -27.010      -23.569       28.690       21.916       14.555      823.138      480.293      211.844        0.902        0.076      126.377       10.954        0.008      339.099       12.201      868.067
12/22/2014  16:44:00     -137.286      -14.259      -17.032       24.130       19.995       17.540      582.237      399.782      307.661        1.032        0.064      138.025       13.619        0.010      339.255       12.463      868.075
12/22/2014  16:45:00      -90.134      -19.604       -8.899       32.115       32.061       19.017     1031.360     1027.896      361.643        0.550        0.121       92.242       13.111        0.020      339.164       12.309      868.076
12/22/2014  16:46:00     -135.601       -8.982      -13.224       38.905       29.241       24.916     1513.566      855.060      620.827        1.082        0.149      135.898       21.628        0.025      339.250       12.455      868.090
12/22/2014  16:47:00     -106.374      -34.398      -19.460       29.772       45.535       22.171      886.363     2073.443      491.533        0.816        0.173      111.797       18.773        0.028      338.980       12.000      868.093
12/22/2014  16:48:00     -123.494      -45.101      -12.068       28.909       26.513       15.747      835.741      702.928      247.972        0.961        0.089      131.472       12.977        0.010      338.800       11.697      868.107
12/22/2014  16:49:00     -119.949      -37.460      -14.860       35.484       34.952       21.422     1259.118     1221.651      458.888        0.948        0.147      125.662       20.273        0.026      338.672       11.483      868.120
12/22/2014  16:50:00     -103.601      -18.598       -4.002       47.405       33.546       23.800     2247.216     1125.365      566.453        0.752        0.197      105.257       21.582        0.042      338.901       11.868      868.123
12/22/2014  16:51:00     -142.404      -32.609      -17.454       29.510       28.552       22.418      870.826      815.236      502.556        1.192        0.109      146.090       18.273        0.016      338.646       11.438      868.135
12/22/2014  16:52:00     -143.896      -38.664      -12.765       30.235       28.922       21.891      914.183      836.483      479.213        1.230        0.111      148.999       21.156        0.020      338.642       11.432      868.134
12/22/2014  16:53:00     -154.142      -46.419      -19.809       29.774       26.484       20.138      886.484      701.418      405.521        1.415        0.100      160.979       16.011        0.010      338.638       11.426      868.140
12/22/2014  16:54:00     -139.974      -34.386       -9.697       20.558       18.308       12.812      422.644      335.195      164.135        1.090        0.046      144.136        4.323        0.001      338.501       11.195      868.132
12/22/2014  16:55:00     -101.416      -48.553       -5.850       41.886       27.742       21.625     1754.444      769.625      467.661        0.783        0.150      112.440       19.108        0.029      338.451       11.113      868.144
12/22/2014  16:56:00      -88.108      -50.389        1.082       43.152       37.914       18.475     1862.088     1437.438      341.321        0.697        0.182      101.499       16.911        0.028      338.596       11.355      868.138
12/22/2014  16:57:00      -52.432      -22.984       -3.506       38.633       23.949       22.896     1492.496      573.577      524.234        0.294        0.130       57.249       19.094        0.111      338.513       11.216      868.142
12/22/2014  16:58:00     -107.965      -58.107      -27.373       20.573       17.742       15.981      423.250      314.788      255.387        0.839        0.050      122.609       11.552        0.009      338.464       11.131      868.146
12/22/2014  16:59:00     -110.130      -52.487      -10.355       20.874       23.084       14.806      435.717      532.873      219.231        0.809        0.059      121.998       10.993        0.008      338.454       11.116      868.154
12/22/2014  17:00:00     -102.672      -50.708      -13.911       29.228       26.108       22.389      854.293      681.642      501.289        0.767        0.102      114.511       14.942        0.017      338.444       11.099      868.160
12/22/2014  17:01:00     -102.413      -48.426       -2.653       32.763       24.196       19.104     1073.390      585.457      364.981        0.743        0.101      113.285       17.291        0.023      338.424       11.067      868.176
12/22/2014  17:02:00      -85.044      -46.837      -12.838       37.582       20.687       20.380     1412.436      427.945      415.354        0.592        0.113       97.088       19.031        0.038      338.412       11.044      868.173
12/22/2014  17:03:00     -119.538      -36.361      -20.721       23.845       22.598       15.852      568.583      510.659      251.279        0.869        0.067      124.946       11.592        0.009      338.523       11.231      868.175
12/22/2014  17:04:00     -117.825      -55.123      -19.782       26.542       15.100       12.149      704.461      228.003      147.597        0.920        0.054      130.082        8.767        0.005      338.394       11.017      868.161
12/22/2014  17:05:00      -89.876      -54.796        0.557       32.972       33.572       18.858     1087.178     1127.076      355.609        0.682        0.128      105.263       11.733        0.012      338.412       11.045      868.160
12/22/2014  17:06:00     -128.175      -27.753      -17.831       32.962       30.202       18.023     1086.501      912.183      324.824        0.992        0.116      131.145       17.871        0.019      338.575       11.319      868.166
12/22/2014  17:07:00     -104.905      -29.423       -9.860       37.935       27.529       20.900     1439.096      757.830      436.814        0.730        0.132      108.953       17.494        0.026      338.655       11.453      868.171
12/22/2014  17:08:00     -149.021      -26.917      -26.860       42.226       27.144       23.611     1783.003      736.793      557.498        1.336        0.154      151.432       12.869        0.007      338.582       11.330      868.152
12/22/2014  17:09:00     -145.336      -32.874      -14.503       26.139       33.525       18.900      683.252     1123.912      357.192        1.229        0.108      149.008       13.598        0.008      338.368       10.972      868.128
12/22/2014  17:10:00     -131.534      -22.554      -21.294       28.312       21.576       13.086      801.554      465.511      171.241        0.985        0.072      133.453       13.449        0.010      338.356       10.951      868.113
12/22/2014  17:11:00      -97.406      -54.817       -9.993       16.477       23.044       14.669      271.506      531.015      215.190        0.681        0.051      111.771        5.703        0.003      338.400       11.025      868.109
12/22/2014  17:12:00     -102.865      -52.031      -15.595       21.090       23.104       13.459      444.791      533.804      181.158        0.735        0.058      115.276       11.249        0.010      338.425       11.067      868.098
12/22/2014  17:13:00     -127.321      -35.491      -11.981       26.483       26.189       18.767      701.359      685.884      352.200        0.968        0.087      132.175        5.697        0.002      338.576       11.321      868.084
12/22/2014  17:14:00     -140.718      -35.450      -20.826       28.576       23.581       15.596      816.591      556.077      243.225        1.155        0.081      145.115       12.723        0.008      338.572       11.313      868.071
12/22/2014  17:15:00      -69.576      -25.043        1.048       32.258       30.172       23.976     1040.582      910.337      574.872        0.400        0.126       73.945       19.487        0.069      338.599       11.360      868.069
12/22/2014  17:16:00      -72.503      -31.483       -5.040       25.947       23.408       15.398      673.244      547.930      237.108        0.387        0.073       79.043        9.327        0.014      338.740       11.597      868.076
12/22/2014  17:17:00     -113.768      -29.107      -15.619       23.242       16.121       16.721      540.203      259.880      279.589        0.756        0.054      117.432       11.867        0.010      338.722       11.568      868.094
12/22/2014  17:18:00     -119.527      -44.245      -10.880       34.588       22.266       19.138     1196.301      495.754      366.265        0.921        0.103      127.453       19.402        0.023      338.514       11.216      868.085
12/22/2014  17:19:00     -114.108      -46.400      -15.255       19.692       15.237       14.771      387.777      232.165      218.175        0.812        0.042      123.181       10.997        0.008      338.543       11.265      868.081
12/22/2014  17:20:00     -129.623      -48.793      -17.623       22.011       13.691       11.778      484.463      187.443      138.726        1.015        0.041      138.502       11.617        0.007      338.527       11.238      868.069
12/22/2014  17:21:00     -123.904      -38.049      -10.403       18.805       22.244       15.176      353.618      494.790      230.315        0.899        0.054      129.615        9.345        0.005      338.554       11.284      868.069
12/22/2014  17:22:00     -118.983      -39.289       -5.033       26.454       20.353       16.691      699.832      414.252      278.580        0.856        0.070      125.302       15.079        0.014      338.529       11.243      868.062
12/22/2014  17:23:00     -106.300      -50.443       -8.664       26.498       20.308       17.795      702.141      412.399      316.657        0.767        0.072      117.661       16.443        0.020      338.525       11.235      868.052
12/22/2014  17:24:00     -121.869      -39.471      -13.739       24.792       15.412       16.422      614.628      237.531      269.680        0.886        0.056      128.101       15.256        0.014      338.566       11.304      868.030
12/22/2014  17:25:00     -118.191      -37.834      -19.998       19.962       17.872       14.027      398.480      319.404      196.745        0.836        0.046      124.099        6.260        0.003      338.611       11.381      868.024
12/22/2014  17:26:00     -111.338      -46.423      -17.548       15.118       12.989       11.440      228.556      168.715      130.863        0.769        0.026      120.629        8.347        0.005      338.595       11.354      868.025
12/22/2014  17:27:00     -134.512      -25.134      -16.155       22.479       21.433       16.327      505.300      459.385      266.587        1.011        0.062      136.840       12.347        0.008      338.623       11.401      868.049
12/22/2014  17:28:00     -123.699      -40.326      -13.792       22.294       21.361       16.513      497.007      456.287      272.681        0.917        0.061      130.106       10.748        0.007      338.547       11.274      868.069
12/22/2014  17:29:00      -76.186      -24.382       -8.394       44.463       31.647       22.660     1976.964     1001.562      513.461        0.498        0.175       79.993       25.059        0.098      338.766       11.641      868.083
12/22/2014  17:30:00     -108.388       -5.101       -9.253       42.731       25.620       22.687     1825.979      656.384      514.711        0.743        0.150      108.508       21.330        0.039      338.966       11.978      868.108
12/22/2014  17:31:00      -69.219       -0.874       -2.977       45.407       29.728       16.590     2061.833      883.762      275.234        0.401        0.161       69.224       14.275        0.043      338.866       11.809      868.136
12/22/2014  17:32:00      -70.864       21.359       -4.533       30.633       39.976       19.393      938.397     1598.117      376.093        0.420        0.146       74.013       16.703        0.051      338.846       11.775      868.171
12/22/2014  17:33:00      -83.311      -22.888       -7.288       26.506       32.863       16.511      702.583     1079.977      272.604        0.479        0.103       86.398       12.613        0.021      338.823       11.736      868.186
12/22/2014  17:34:00     -126.671      -46.550      -10.454       23.675       28.409       15.463      560.496      807.091      239.116        0.996        0.080      134.954       10.974        0.007      338.391       11.010      868.181
12/22/2014  17:35:00     -134.681      -47.579      -13.505       34.536       32.490       20.858     1192.766     1055.609      435.076        1.163        0.134      142.838       21.314        0.022      338.329       10.908      868.185
12/22/2014  17:36:00     -133.842      -59.900      -14.753       19.262       23.632       13.281      371.025      558.464      176.385        1.141        0.055      146.635        9.787        0.004      338.316       10.886      868.166
12/22/2014  17:37:00     -138.181      -56.785      -17.005       25.024       25.228       15.660      626.201      636.474      245.228        1.206        0.075      149.394       13.502        0.008      338.309       10.871      868.151
12/22/2014  17:38:00     -122.430      -49.230       -8.323       29.260       27.227       20.770      856.145      741.283      431.403        0.976        0.101      131.957       13.509        0.010      338.266       10.802      868.142
12/22/2014  17:39:00     -146.896      -47.705      -16.597       48.760       26.547       19.174     2377.570      704.740      367.626        1.379        0.172      154.448       17.892        0.013      338.264       10.797      868.111
12/22/2014  17:40:00     -168.064      -72.659      -15.289       36.863       30.512       26.025     1358.849      930.999      677.286        1.836        0.148      183.098       21.922        0.014      338.244       10.763      868.102
12/22/2014  17:41:00     -127.577      -48.226      -15.444       31.492       27.184       20.387      991.770      738.987      415.611        1.049        0.107      136.387       16.759        0.015      338.301       10.860      868.098
12/22/2014  17:42:00     -125.502      -41.672      -18.655       41.889       42.348       25.501     1754.699     1793.344      650.283        1.102        0.210      132.239       26.871        0.041      338.353       10.947      868.101
12/22/2014  17:43:00     -137.907      -32.645      -10.162       32.840       31.339       20.974     1078.442      982.112      439.896        1.134        0.125      141.718       20.151        0.020      338.244       10.763      868.105
12/22/2014  17:44:00     -175.860      -12.245      -22.932       26.625       28.409       20.227      708.895      807.066      409.147        1.676        0.096      176.286       14.572        0.007      338.247       10.767      868.095
12/22/2014  17:45:00     -154.648      -34.459      -22.703       31.274       34.212       23.001      978.060     1170.466      529.047        1.415        0.134      158.440       14.798        0.009      338.152       10.610      868.077
12/22/2014  17:46:00     -141.050      -45.538      -12.933       22.944       25.055       20.437      526.418      627.763      417.668        1.185        0.079      148.218       15.891        0.011      338.107       10.533      868.083
12/22/2014  17:47:00     -105.682      -48.323       -8.987       45.278       29.635       19.861     2050.079      878.227      394.447        0.845        0.166      116.206       18.320        0.025      338.093       10.510      868.091
12/22/2014  17:48:00     -136.198      -33.254      -18.845       25.158       27.936       17.574      632.905      780.440      308.844        1.087        0.086      140.199       15.300        0.012      338.087       10.502      868.097
12/22/2014  17:49:00     -107.143      -25.257      -12.245       28.711       27.290       18.428      824.350      744.755      339.582        0.709        0.095      110.080       13.350        0.015      338.264       10.799      868.115
12/22/2014  17:50:00     -134.425      -45.756      -19.645       29.704       16.726       15.200      882.314      279.755      231.028        1.097        0.070      141.999       14.718        0.011      338.046       10.431      868.120
12/22/2014  17:51:00     -127.206      -15.723       -7.657       30.906       25.036       21.667      955.192      626.792      469.475        0.927        0.103      128.174       18.502        0.021      338.065       10.464      868.129
12/22/2014  17:52:00     -148.732      -49.463      -21.505       26.328       20.749       13.750      693.162      430.513      189.071        1.317        0.066      156.741        9.034        0.003      337.997       10.349      868.134
12/22/2014  17:53:00     -174.818      -42.946      -14.746       24.965       22.050       17.164      623.260      486.206      294.599        1.701        0.070      180.016       11.207        0.004      337.918       10.217      868.129
12/22/2014  17:54:00     -165.295      -24.522      -30.223       22.590       28.876       19.460      510.287      833.806      378.699        1.528        0.086      167.104       13.840        0.007      337.988       10.334      868.122
12/22/2014  17:55:00     -148.741      -36.191      -16.316       36.750       28.713       19.300     1350.563      824.447      372.509        1.312        0.127      153.081       17.930        0.014      337.924       10.225      868.131
12/22/2014  17:56:00      -98.433      -23.754      -14.954       49.089       41.567       24.524     2409.749     1727.808      601.439        0.761        0.237      101.259       24.160        0.057      338.160       10.624      868.123
12/22/2014  17:57:00      -80.214      -49.086       -4.523       34.645       33.862       20.292     1200.304     1146.635      411.758        0.581        0.138       94.041       16.509        0.031      337.966       10.296      868.122
12/22/2014  17:58:00      -84.565      -53.880       -8.844       33.741       23.202       24.906     1138.442      538.347      620.323        0.621        0.115      100.271        9.440        0.009      337.886       10.163      868.127
12/22/2014  17:59:00     -127.053      -54.623       -8.783       30.606       23.520       20.005      936.731      553.195      400.192        1.055        0.095      138.297       15.990        0.013      337.887       10.165      868.122
12/22/2014  18:00:00     -109.339      -33.795       -5.224       56.988       33.314       23.606     3247.607     1109.843      557.253        0.902        0.246      114.443       25.894        0.051      338.015       10.380      868.096
12/22/2014  18:01:00     -146.707      -54.003      -15.544       25.363       34.515       18.551      643.257     1191.304      344.147        1.343        0.109      156.331       11.731        0.006      337.898       10.183      868.073
12/22/2014  18:02:00     -116.432      -55.881       -8.324       50.189       29.249       23.056     2518.945      855.533      531.564        1.033        0.195      129.148       22.710        0.031      337.873       10.141      868.062
12/22/2014  18:03:00     -122.680      -51.542       -6.845       34.624       35.016       24.738     1198.809     1226.154      611.975        1.039        0.152      133.067       19.374        0.021      337.878       10.150      868.047
12/22/2014  18:04:00     -129.832      -26.332      -18.913       25.303       21.294       20.522      640.241      453.423      421.161        0.971        0.076      132.476        7.877        0.004      337.963       10.292      868.025
12/22/2014  18:05:00     -163.780      -25.714      -28.330       21.407       32.777       18.802      458.275     1074.302      353.508        1.509        0.094      165.786        8.946        0.003      337.942       10.257      868.006
12/22/2014  18:06:00     -111.464      -30.568      -14.129       30.711       34.090       17.589      943.144     1162.121      309.383        0.799        0.121      115.579       14.827        0.016      337.913       10.209      867.976
12/22/2014  18:07:00      -92.017      -62.256      -12.107       36.754       34.511       17.817     1350.840     1191.012      317.456        0.767        0.143      111.098       12.955        0.014      337.754        9.942      867.955
12/22/2014  18:08:00     -122.661      -63.026      -11.191       39.825       31.250       22.673     1585.994      976.564      514.062        1.111        0.154      137.905       22.335        0.026      337.737        9.914      867.958
12/22/2014  18:09:00     -135.750      -60.439      -19.004       21.301       18.386       15.495      453.738      338.030      240.100        1.174        0.052      148.597        9.131        0.004      337.751        9.939      867.951
12/22/2014  18:10:00     -121.629      -80.996      -13.823       26.658       22.788       16.141      710.673      519.286      260.520        1.152        0.075      146.130       10.851        0.006      337.703        9.855      867.936
12/22/2014  18:11:00     -113.106      -76.915      -10.766       49.833       33.597       27.423     2483.282     1128.755      752.041        1.159        0.218      136.781       16.884        0.015      337.675        9.810      867.925
12/22/2014  18:12:00     -124.758      -87.813       -2.543       54.820       46.064       29.223     3005.203     2121.896      853.990        1.463        0.299      152.563       30.076        0.039      337.615        9.709      867.913
12/22/2014  18:13:00     -161.521     -105.204       -9.668       65.329       46.689       31.684     4267.891     2179.882     1003.848        2.235        0.373      192.762       33.081        0.029      337.659        9.781      867.895
12/22/2014  18:14:00     -138.574     -120.904      -14.056       57.801       56.472       29.896     3340.923     3189.089      893.794        2.072        0.371      183.904       16.446        0.008      337.757        9.944      867.895
12/22/2014  18:15:00     -113.788      -94.990       -9.139       59.386       48.647       27.688     3526.719     2366.559      766.630        1.436        0.333      148.225       27.170        0.034      337.851       10.103      867.915
12/22/2014  18:16:00      -84.262      -63.969        0.732       73.250       40.740       36.486     5365.632     1659.717     1331.214        0.977        0.418      105.792       41.620        0.155      337.837       10.081      867.937
12/22/2014  18:17:00      -96.692      -45.948       -3.612       48.533       23.838       23.174     2355.449      568.230      537.035        0.747        0.173      107.054       22.397        0.044      337.838       10.082      867.962
12/22/2014  18:18:00     -149.186      -41.989      -19.589       27.086       27.096       19.372      733.678      734.189      375.261        1.312        0.092      154.982       16.696        0.012      337.952       10.273      867.994
12/22/2014  18:19:00     -165.266      -34.509      -25.468       28.551       20.988       16.826      815.167      440.481      283.131        1.535        0.077      168.831       13.732        0.007      337.951       10.273      868.009
12/22/2014  18:20:00     -116.062      -39.776       -7.334       36.756       32.309       21.268     1350.970     1043.901      452.317        0.898        0.142      122.689       20.306        0.027      337.862       10.122      868.007
12/22/2014  18:21:00     -101.269      -59.930       -5.275       31.935       30.123       15.233     1019.851      907.384      232.031        0.802        0.108      117.673       14.964        0.016      337.795       10.009      868.007
12/22/2014  18:22:00     -111.910      -60.090       -8.085       30.486       28.522       17.797      929.376      813.477      316.733        0.913        0.103      127.022       19.420        0.023      337.787        9.997      868.010
12/22/2014  18:23:00     -134.027      -68.899       -7.209       30.087       22.328       20.216      905.229      498.552      408.669        1.229        0.091      150.699       18.821        0.016      337.841       10.087      868.007
12/22/2014  18:24:00     -124.102      -32.048       -9.718       48.144       29.589       26.231     2317.819      875.503      688.052        1.020        0.194      128.174       31.080        0.059      337.839       10.085      868.005
12/22/2014  18:25:00      -93.004      -41.976        0.121       28.512       19.003       14.002      812.950      361.123      196.068        0.589        0.069      102.038       10.759        0.011      337.761        9.954      868.009
12/22/2014  18:26:00      -86.947      -64.421       -1.192       50.583       35.536       20.497     2558.655     1262.837      420.133        0.798        0.212      108.212       18.623        0.030      337.787        9.998      868.022
12/22/2014  18:27:00      -81.297      -48.689        1.880       39.993       29.519       21.677     1599.464      871.380      469.900        0.596        0.147       94.762       16.001        0.029      337.767        9.963      868.029
12/22/2014  18:28:00      -95.241      -69.750       -3.083       30.947       23.078       19.251      957.733      532.599      370.588        0.790        0.093      118.050       17.730        0.023      337.865       10.127      868.030
12/22/2014  18:29:00      -80.703      -63.471        0.877       28.837       20.249       18.400      831.567      410.023      338.565        0.606        0.079      102.672       16.630        0.026      337.830       10.069      868.028
12/22/2014  18:30:00      -94.338      -33.944        3.349       29.183       17.646       15.265      851.631      311.376      233.008        0.573        0.070      100.259       15.613        0.024      337.760        9.950      868.032
12/22/2014  18:31:00      -71.917       -5.619       -8.456       28.313       28.774       16.312      801.600      827.915      266.077        0.358        0.095       72.136       12.936        0.032      337.834       10.075      868.035
12/22/2014  18:32:00      -60.682       -9.129       -5.675       39.912       39.401       27.108     1593.004     1552.402      734.844        0.384        0.194       61.365       23.081        0.141      337.866       10.130      868.044
12/22/2014  18:33:00     -117.149      -40.449      -12.855       35.783       27.106       20.917     1280.414      734.723      437.505        0.899        0.123      123.935       21.194        0.029      337.604        9.691      868.063
12/22/2014  18:34:00     -136.543      -62.708      -20.763       14.157       21.026       14.846      200.420      442.102      220.401        1.193        0.043      150.254        7.894        0.003      337.487        9.494      868.063
12/22/2014  18:35:00     -138.220      -38.319       -7.567       28.258       29.068       16.805      798.519      844.933      282.400        1.128        0.096      143.433       10.650        0.006      337.501        9.518      868.058
12/22/2014  18:36:00     -152.217      -21.983      -10.464       38.282       25.407       21.678     1465.522      645.518      469.925        1.317        0.129      153.796       19.609        0.016      337.571        9.635      868.066
12/22/2014  18:37:00     -143.060      -32.541       -8.568       34.603       29.628       20.213     1197.359      877.804      408.571        1.204        0.124      146.714       19.664        0.018      337.532        9.569      868.082
12/22/2014  18:38:00      -75.897      -26.813        7.016       45.372       47.625       30.090     2058.609     2268.112      905.433        0.588        0.262       80.494       28.343        0.124      337.545        9.590      868.088
12/22/2014  18:39:00     -109.602       -3.033      -12.028       32.467       26.189       17.859     1054.123      685.860      318.957        0.711        0.103      109.644        5.415        0.002      337.717        9.879      868.089
12/22/2014  18:40:00      -58.532       -9.087       -1.136       48.226       29.968       19.955     2325.743      898.093      398.219        0.357        0.181       59.233       22.402        0.143      337.717        9.880      868.089
12/22/2014  18:41:00     -112.393      -38.453      -16.960       23.944       21.858       13.649      573.292      477.751      186.296        0.782        0.062      118.789       11.892        0.010      337.621        9.718      868.092
12/22/2014  18:42:00     -107.985      -32.117       -8.475       23.391       21.310       16.088      547.146      454.124      258.812        0.701        0.063      112.660       11.527        0.010      337.674        9.808      868.084
12/22/2014  18:43:00      -57.184       -2.565        4.674       51.716       41.286       28.232     2674.510     1704.574      797.038        0.424        0.259       57.241       29.406        0.264      337.784        9.992      868.076
12/22/2014  18:44:00     -143.615      -22.092      -16.936       15.161       17.534       13.062      229.864      307.452      170.607        1.105        0.035      145.304        7.929        0.003      337.741        9.921      868.076
12/22/2014  18:45:00     -127.090      -13.658       -5.152       41.989       28.796       22.833     1763.083      829.209      521.348        0.974        0.156      127.822       22.326        0.031      337.705        9.859      868.093
12/22/2014  18:46:00     -131.038        7.162      -12.769       49.160       33.829       26.600     2416.699     1144.426      707.565        1.083        0.213      131.234       27.795        0.045      337.919       10.219      868.097
12/22/2014  18:47:00      -35.619        0.521        3.071       35.805       33.122       22.478     1281.968     1097.052      505.273        0.208        0.144       35.623       18.812        0.279      337.932       10.239      868.105
12/22/2014  18:48:00      -41.564        2.305        1.587       48.838       32.944       24.056     2385.130     1085.325      578.705        0.289        0.202       41.628       23.738        0.325      337.838       10.081      868.117
12/22/2014  18:49:00     -139.624      -16.921      -11.614       32.355       29.129       20.480     1046.850      848.512      419.448        1.111        0.116      140.646       17.553        0.016      337.917       10.216      868.130
12/22/2014  18:50:00     -119.241       -6.192       -8.182       45.063       24.850       19.121     2030.647      617.528      365.600        0.867        0.151      119.401       17.652        0.022      337.834       10.077      868.140
12/22/2014  18:51:00      -90.777        6.557       -1.869       47.975       27.163       25.184     2301.581      737.805      634.217        0.598        0.184       91.013       26.714        0.086      338.073       10.476      868.157
12/22/2014  18:52:00      -91.728       -3.778       -6.159       33.158       26.324       22.452     1099.462      692.928      504.082        0.538        0.115       91.806       15.902        0.030      338.032       10.407      868.187
12/22/2014  18:53:00      -81.537        5.026       -6.807       39.946       23.561       22.049     1595.695      555.101      486.140        0.468        0.132       81.692       19.630        0.058      338.053       10.443      868.241
12/22/2014  18:54:00      -86.873       48.084      -19.448       23.564       27.589       19.215      555.276      761.149      369.229        0.596        0.084       99.293       13.035        0.017      337.926       10.230      868.285
12/22/2014  18:55:00      -90.727       45.428      -24.783       31.736       35.851       17.793     1007.150     1285.271      316.591        0.676        0.130      101.465       16.371        0.026      337.848       10.100      868.323
12/22/2014  18:56:00      -62.121       41.828      -10.017       30.758       23.943       23.391      946.038      573.269      547.159        0.389        0.103       74.891       21.842        0.085      337.774        9.975      868.349
12/22/2014  18:57:00      -28.499       35.479      -12.467       18.902       17.589       11.079      357.295      309.386      122.743        0.151        0.039       45.508       10.560        0.054      337.671        9.804      868.372
12/22/2014  18:58:00        9.411       19.591       -1.389       15.041       14.189       10.827      226.227      201.326      117.224        0.051        0.027       21.734        9.984        0.211      337.581        9.651      868.368
12/22/2014  18:59:00       12.342       33.466       -7.464       16.327       18.633        7.450      266.570      347.190       55.506        0.100        0.033       35.669       10.082        0.080      337.586        9.660      868.355
12/22/2014  19:00:00        3.672       41.731       -9.240       18.919       26.235       11.168      357.926      688.262      124.726        0.151        0.059       41.892       11.600        0.077      337.579        9.648      868.348
12/22/2014  19:01:00       -0.746       41.920       -6.216       17.059       17.260       12.279      291.008      297.907      150.779        0.127        0.037       41.927       11.098        0.070      337.615        9.710      868.355
12/22/2014  19:02:00      -31.078       -6.034       -4.405       13.232       17.589       10.134      175.089      309.388      102.698        0.080        0.029       31.658        9.048        0.082      337.244        9.087      868.363
12/22/2014  19:03:00      -47.949      -15.472      -10.986       14.867       13.008        7.286      221.031      169.215       53.090        0.155        0.022       50.383        4.808        0.009      337.218        9.046      868.365
12/22/2014  19:04:00      -81.681      -46.417      -11.439       18.416        7.557        6.251      339.164       57.107       39.071        0.470        0.022       93.948        6.317        0.005      337.162        8.949      868.378
12/22/2014  19:05:00     -105.882      -43.504      -14.444       12.033       12.738       11.170      144.786      162.264      124.767        0.687        0.022      114.471        4.655        0.002      337.218        9.042      868.397
12/22/2014  19:06:00     -116.574      -54.808       -9.957       16.277       14.712        9.809      264.926      216.431       96.222        0.863        0.029      128.815        9.272        0.005      337.143        8.917      868.421
12/22/2014  19:07:00     -129.008      -64.658      -11.661       30.651       23.965       16.567      939.486      574.326      274.481        1.137        0.089      144.304       15.758        0.012      337.099        8.845      868.424
12/22/2014  19:08:00      -96.116      -63.905        4.153       42.407       40.002       23.149     1798.344     1600.135      535.889        0.864        0.197      115.421       23.208        0.040      337.042        8.749      868.440
12/22/2014  19:09:00      -37.253      -22.486       11.280       48.047       31.745       22.113     2308.553     1007.738      488.982        0.291        0.190       43.513       26.189        0.362      337.095        8.837      868.485
12/22/2014  19:10:00      -25.149       33.670        3.127       33.611       29.293       17.804     1129.707      858.078      316.977        0.204        0.115       42.025       23.450        0.311      337.176        8.973      868.515
12/22/2014  19:11:00      -37.307      -12.859       -3.953       19.862       33.282       15.307      394.486     1107.678      234.296        0.165        0.087       39.461       11.913        0.091      337.420        9.381      868.523
12/22/2014  19:12:00      -62.515       41.728      -11.175       23.799       26.204       15.478      566.390      686.652      239.572        0.363        0.075       75.162        9.630        0.016      337.594        9.674      868.519
12/22/2014  19:13:00      -28.727       -2.918       -5.826       19.172       19.187       17.550      367.565      368.145      307.986        0.096        0.052       28.875       10.471        0.131      337.415        9.373      868.511
12/22/2014  19:14:00      -67.408       -3.204       -7.510       31.364       23.960       17.448      983.673      574.062      304.448        0.324        0.093       67.485       14.931        0.049      337.337        9.245      868.515
12/22/2014  19:15:00      -65.990       -7.436       -0.688       29.996       22.549       10.675      899.770      508.440      113.953        0.297        0.076       66.407        8.128        0.015      337.334        9.238      868.512
12/22/2014  19:16:00      -24.225        9.259       -8.495       26.326       25.779       12.478      693.043      664.559      155.696        0.113        0.076       25.934       10.187        0.154      337.434        9.407      868.485
12/22/2014  19:17:00      -99.188      -32.290      -22.049       19.289       22.507       11.801      372.055      506.568      139.275        0.619        0.051      104.312        5.959        0.003      337.307        9.193      868.472
12/22/2014  19:18:00      -97.016      -33.540      -16.244       14.039        9.056        8.756      197.088       82.014       76.671        0.558        0.018      102.650        6.314        0.004      337.094        8.834      868.475
12/22/2014  19:19:00      -18.630      -38.703       -0.387       18.314       13.817       10.195      335.391      190.914      103.943        0.124        0.032       42.953        8.330        0.038      337.119        8.879      868.491
12/22/2014  19:20:00       24.924      -23.672       -0.394       22.123       13.903       10.227      489.432      193.297      104.597        0.098        0.039       34.374        7.922        0.053      337.803       10.025      868.497
12/22/2014  19:21:00      -12.765       23.658       -5.058       25.096       22.453       14.760      629.814      504.134      217.849        0.105        0.068       26.882       16.394        0.372      337.646        9.760      868.518
12/22/2014  19:22:00       -2.430       55.073      -13.867       25.018       16.904       10.912      625.879      285.732      119.077        0.213        0.052       55.127       10.397        0.036      337.462        9.453      868.547
12/22/2014  19:23:00       65.358       38.459        6.951       14.438       16.626       19.631      208.452      276.436      385.384        0.333        0.044       75.833       10.543        0.019      337.694        9.840      868.552
12/22/2014  19:24:00       33.947       39.496        7.601       14.252       16.427       18.720      203.126      269.858      350.432        0.180        0.041       52.080        6.956        0.018      337.414        9.371      868.577
12/22/2014  19:25:00        8.369       25.233       -8.240       15.044       15.599        8.915      226.330      243.342       79.483        0.066        0.027       26.584        8.543        0.103      337.237        9.078      868.614
12/22/2014  19:26:00       11.006       81.615       -9.255       23.473       22.729       12.648      550.999      516.603      159.960        0.405        0.061       82.354        9.302        0.013      337.391        9.333      868.633
12/22/2014  19:27:00       30.115      105.141      -13.981       39.993       39.398       26.153     1599.445     1552.197      683.982        0.800        0.192      109.369       24.837        0.052      337.639        9.749      868.655
12/22/2014  19:28:00       13.102      105.049       -9.965       34.912       36.714       19.835     1218.818     1347.911      393.430        0.713        0.148      105.863       18.682        0.031      337.453        9.436      868.665
12/22/2014  19:29:00       50.874       54.767        4.376       39.331       36.391       28.362     1546.919     1324.307      804.396        0.464        0.184       74.750       24.974        0.112      337.526        9.559      868.667
12/22/2014  19:30:00       80.839       49.166        5.558       35.151       27.160       22.601     1235.591      737.648      510.811        0.573        0.124       94.616       17.625        0.035      337.542        9.587      868.665
12/22/2014  19:31:00       33.249       29.348       12.362       34.364       24.635       23.943     1180.904      606.870      573.254        0.224        0.118       44.349       20.942        0.223      337.407        9.360      868.685
12/22/2014  19:32:00       21.314        7.936        5.626       20.110       20.203       12.237      404.415      408.169      149.740        0.076        0.048       22.743        8.859        0.152      337.377        9.309      868.696
12/22/2014  19:33:00       45.201       24.253        5.165       32.316       18.311       13.444     1044.304      335.300      180.730        0.211        0.078       51.297        7.523        0.022      337.369        9.297      868.708
12/22/2014  19:34:00       85.491       54.732       16.989       55.070       36.763       23.917     3032.700     1351.542      572.025        0.777        0.248      101.510       20.410        0.040      337.426        9.393      868.723
12/22/2014  19:35:00       84.713       49.348       17.113       36.491       31.427       24.497     1331.606      987.684      600.092        0.641        0.146       98.038       11.208        0.013      337.343        9.252      868.752
12/22/2014  19:36:00       93.189       47.551       13.525       38.094       25.788       19.822     1451.159      664.997      392.892        0.682        0.125      104.620       19.144        0.033      337.337        9.242      868.777
12/22/2014  19:37:00       20.538       49.437       46.171       40.926       36.035       32.605     1674.975     1298.534     1063.076        0.452        0.202       53.533       25.360        0.224      337.266        9.124      868.800
12/22/2014  19:38:00      133.473       75.440       29.226       50.648       45.384       30.227     2565.185     2059.740      913.683        1.495        0.277      153.318       22.622        0.022      337.243        9.085      868.841
12/22/2014  19:39:00       97.693       44.453       25.913       63.247       39.449       33.658     4000.175     1556.259     1132.866        0.944        0.334      107.331       16.742        0.024      337.324        9.222      868.874
12/22/2014  19:40:00      113.484       79.449       23.456       49.330       47.094       30.989     2433.473     2217.841      960.341        1.268        0.281      138.530       31.055        0.050      337.272        9.134      868.911
12/22/2014  19:41:00      148.503      111.874       26.322       52.406       50.283       35.428     2746.440     2528.393     1255.132        2.089        0.326      185.927       13.790        0.006      337.386        9.323      868.935
12/22/2014  19:42:00      153.009       88.938       17.524       60.156       45.379       35.226     3618.767     2059.294     1240.899        1.927        0.346      176.979       23.784        0.018      337.220        9.045      868.942
12/22/2014  19:43:00      104.243      104.424       10.630       51.818       46.036       35.823     2685.079     2119.331     1283.262        1.398        0.304      147.549       25.069        0.029      337.227        9.059      868.959
12/22/2014  19:44:00       56.187       72.261        7.673       55.596       32.912       36.286     3090.965     1083.187     1316.665        0.696        0.275       91.535       27.427        0.090      337.210        9.031      868.963
12/22/2014  19:45:00        8.273      120.947      -19.824       25.780       53.577       26.925      664.615     2870.544      724.933        0.967        0.213      121.230       31.572        0.068      337.657        9.780      868.974
12/22/2014  19:46:00       24.335       86.808      -15.290       24.669       41.632       16.166      608.577     1733.251      261.326        0.548        0.130       90.154       14.001        0.024      337.854       10.108      868.969
12/22/2014  19:47:00       51.278      129.617      -20.798       28.453       40.887       24.835      809.601     1671.757      616.793        1.148        0.155      139.392       22.314        0.026      337.674        9.810      868.978
12/22/2014  19:48:00       63.812      147.768      -12.628       47.947       82.624       44.218     2298.907     6826.700     1955.233        1.857        0.554      160.958       49.472        0.094      337.523        9.552      868.981
12/22/2014  19:49:00       36.837       84.313       -1.891       29.646       57.890       30.470      878.875     3351.213      928.391        0.681        0.258       92.009       24.977        0.074      337.386        9.323      868.986
12/22/2014  19:50:00       70.411       88.108        0.967       60.910       58.249       45.317     3710.034     3392.988     2053.655        1.094        0.458      112.786       36.885        0.107      337.335        9.239      868.984
12/22/2014  19:51:00       96.253      127.660        2.301       78.039       53.053       49.240     6090.156     2814.574     2424.607        1.845        0.566      159.881       37.411        0.055      337.389        9.329      869.000
12/22/2014  19:52:00       59.079      157.517      -21.750       47.911       59.208       40.944     2295.482     3505.572     1676.424        1.812        0.374      168.232       39.989        0.057      337.640        9.749      869.019
12/22/2014  19:53:00       75.145      191.622      -29.583       56.211       78.086       48.802     3159.641     6097.486     2381.587        2.744        0.582      205.830       41.136        0.040      337.427        9.390      869.057
12/22/2014  19:54:00       13.371      170.282      -32.687       37.014       35.773       17.500     1370.021     1279.677      306.238        1.660        0.148      170.806       16.356        0.009      337.584        9.656      869.089
12/22/2014  19:55:00      -25.562      200.386      -32.787       26.320       38.568       15.774      692.738     1487.463      248.816        2.216        0.121      202.009       17.254        0.007      337.598        9.679      869.120
12/22/2014  19:56:00       16.926      243.089      -42.194       41.040       49.347       21.408     1684.306     2435.099      458.309        3.287        0.229      243.678       25.945        0.011      337.509        9.528      869.143
12/22/2014  19:57:00      -21.768      199.751      -36.107       37.058       38.834       17.083     1373.281     1508.118      291.836        2.242        0.159      200.933       12.650        0.004      337.465        9.455      869.157
12/22/2014  19:58:00       -8.638      180.245      -31.141       38.753       29.852       17.498     1501.785      891.133      306.196        1.812        0.135      180.452       19.720        0.012      337.525        9.557      869.166
12/22/2014  19:59:00        1.398      179.194      -31.484       23.249       26.660       13.240      540.534      710.735      175.297        1.726        0.071      179.199       10.337        0.003      337.412        9.368      869.182
12/22/2014  20:00:00       19.639      194.061      -27.634       21.312       37.851       14.786      454.201     1432.717      218.639        2.046        0.105      195.052       16.933        0.008      337.359        9.280      869.193
12/22/2014  20:01:00       27.042      170.796      -22.959       28.932       26.255       17.107      837.084      689.351      292.661        1.612        0.091      172.924       15.958        0.009      337.375        9.307      869.199
12/22/2014  20:02:00       30.085      182.247      -32.661       23.772       31.927       19.183      565.128     1019.312      368.004        1.857        0.098      184.714       18.044        0.010      337.473        9.470      869.206
12/22/2014  20:03:00       38.646      169.170      -26.846       31.875       39.525       22.775     1015.984     1562.200      518.681        1.696        0.155      173.528       19.504        0.013      337.434        9.405      869.217
12/22/2014  20:04:00       37.511      159.708      -28.058       27.637       29.005       18.708      763.819      841.298      349.980        1.483        0.098      164.054       17.932        0.012      337.423        9.386      869.239
12/22/2014  20:05:00       45.226      122.794      -20.144       27.331       31.359       19.006      746.981      983.371      361.228        0.981        0.105      130.858       16.295        0.016      337.376        9.307      869.265
12/22/2014  20:06:00       35.127      109.965      -13.408       35.702       47.169       25.688     1274.645     2224.956      659.868        0.883        0.208      115.440       27.766        0.058      337.480        9.483      869.284
12/22/2014  20:07:00       28.862      105.864      -13.424       26.581       39.662       22.157      706.549     1573.059      490.954        0.749        0.139      109.728       21.005        0.037      337.510        9.531      869.298
12/22/2014  20:08:00       33.619      116.859      -16.818       30.423       44.941       22.013      925.571     2019.672      484.578        0.925        0.171      121.599       21.730        0.032      337.557        9.610      869.325
12/22/2014  20:09:00       20.504       79.432       -9.369       28.067       36.672       22.628      787.735     1344.851      512.036        0.473        0.132       82.036       18.385        0.050      337.563        9.621      869.351
12/22/2014  20:10:00       32.910       56.728       -7.687       26.100       41.094       26.010      681.186     1688.754      676.522        0.370        0.152       65.583       20.678        0.099      337.476        9.477      869.371
12/22/2014  20:11:00        1.561      103.590      -16.906       21.035       29.880       12.959      442.452      892.803      167.931        0.626        0.075      103.602       13.880        0.018      337.565        9.624      869.387
12/22/2014  20:12:00      -25.804       97.850      -24.187       24.404       14.414        7.599      595.557      207.752       57.741        0.584        0.043      101.195        3.371        0.001      337.535        9.574      869.402
12/22/2014  20:13:00      -59.651       72.808      -22.348       20.556       32.112       14.700      422.542     1031.152      216.102        0.551        0.083       94.124       12.525        0.018      337.765        9.960      869.420
12/22/2014  20:14:00      -65.158       66.339      -22.119       16.811       20.830       14.761      282.613      433.869      217.901        0.503        0.047       92.986       14.162        0.023      337.716        9.879      869.448
12/22/2014  20:15:00      -83.042       70.579      -29.757       18.209       23.357       14.720      331.569      545.558      216.666        0.693        0.055      108.983       10.982        0.010      337.743        9.923      869.464
12/22/2014  20:16:00      -64.652       85.301      -27.607       26.099       30.107       18.969      681.141      906.405      359.825        0.708        0.097      107.034       19.040        0.032      337.648        9.764      869.490
12/22/2014  20:17:00      -89.062       18.523       -8.836       67.050       36.549       26.161     4495.743     1335.812      684.403        0.743        0.326       90.968       30.833        0.115      337.627        9.730      869.508
12/22/2014  20:18:00     -107.257       -8.908       -4.037       56.984       34.459       26.372     3247.156     1187.421      695.478        0.836        0.257      107.626       29.198        0.074      337.358        9.278      869.531
12/22/2014  20:19:00     -135.604      -12.035      -10.898       47.010       37.856       26.824     2209.946     1433.097      719.526        1.151        0.218      136.137       28.084        0.043      337.164        8.954      869.547
12/22/2014  20:20:00     -147.666        6.883      -14.011       59.199       40.692       28.623     3504.521     1655.857      819.295        1.401        0.299      147.826       29.828        0.041      337.089        8.828      869.561
12/22/2014  20:21:00     -195.082       17.775      -25.308       45.327       30.046       26.502     2054.549      902.732      702.350        2.134        0.183      195.890       22.348        0.013      336.998        8.673      869.567
12/22/2014  20:22:00     -180.006       13.059      -17.856       33.607       40.364       25.018     1129.449     1629.234      625.906        1.814        0.169      180.479       21.415        0.014      336.555        7.934      869.567
12/22/2014  20:23:00     -187.712      -16.874      -20.591       42.122       45.859       27.012     1774.263     2103.055      729.636        2.027        0.230      188.469       24.649        0.017      336.367        7.620      869.570
12/22/2014  20:24:00     -141.925      -30.099      -10.588       48.758       37.047       28.858     2377.344     1372.482      832.757        1.287        0.229      145.081       29.331        0.041      336.247        7.419      869.581
12/22/2014  20:25:00     -175.400      -12.734      -16.271       47.885       48.039       30.599     2292.961     2307.720      936.292        1.836        0.277      175.861       30.172        0.029      336.451        7.762      869.582
12/22/2014  20:26:00     -196.968      -39.936      -28.630       46.639       44.643       23.999     2175.232     1992.979      575.953        2.298        0.237      200.976       22.165        0.012      336.204        7.347      869.582
12/22/2014  20:27:00     -168.279      -38.931      -15.747       57.019       50.505       31.993     3251.118     2550.767     1023.529        1.845        0.341      172.723       33.329        0.037      336.205        7.349      869.595
12/22/2014  20:28:00     -184.641      -15.691      -24.179       34.125       33.286       27.527     1164.544     1107.987      757.748        1.898        0.152      185.306       17.628        0.009      336.157        7.271      869.593
12/22/2014  20:29:00     -101.856      -12.639       -5.418       57.138       49.757       26.327     3264.781     2475.730      693.136        0.850        0.322      102.638       17.684        0.030      336.335        7.568      869.599
12/22/2014  20:30:00     -135.269      -62.750       -4.792       48.953       39.113       29.219     2396.391     1529.801      853.774        1.352        0.239      149.115       27.186        0.033      336.225        7.384      869.587
12/22/2014  20:31:00     -151.764      -39.484       -7.223       38.674       31.640       20.754     1495.676     1001.086      430.708        1.378        0.146      156.817       18.139        0.013      336.229        7.392      869.574
12/22/2014  20:32:00     -102.372      -45.404       -4.537       31.519       32.589       15.510      993.457     1062.019      240.555        0.743        0.115      111.989       12.882        0.013      336.286        7.485      869.579
12/22/2014  20:33:00      -59.853      -23.286        0.566       41.384       20.475       18.836     1712.645      419.215      354.786        0.331        0.124       64.223       19.865        0.096      336.282        7.480      869.588
12/22/2014  20:34:00      -59.385      -12.315       -2.464       36.603       34.497       24.154     1339.761     1190.065      583.396        0.340        0.156       60.648       12.440        0.042      336.482        7.814      869.600
12/22/2014  20:35:00      -98.440      -35.173       -4.658       39.269       33.280       19.352     1542.050     1107.570      374.482        0.699        0.151      104.535       21.664        0.043      336.596        8.005      869.621
12/22/2014  20:36:00      -79.388      -40.471       -6.563       32.752       17.724       15.846     1072.664      314.144      251.092        0.481        0.082       89.108       16.314        0.034      336.390        7.659      869.632
12/22/2014  20:37:00      -70.639      -35.576        2.187       40.223       24.608       20.079     1617.869      605.554      403.158        0.444        0.131       79.092       22.095        0.078      336.394        7.667      869.642
12/22/2014  20:38:00     -101.167      -48.646       -6.421       14.893       23.745       12.170      221.796      563.843      148.107        0.679        0.047      112.255        8.113        0.005      336.332        7.562      869.661
12/22/2014  20:39:00      -31.203      -34.085        5.779       35.064       22.921       15.599     1229.489      525.373      243.316        0.208        0.100       46.210        6.672        0.021      336.268        7.456      869.678
12/22/2014  20:40:00      -45.634      -92.515       -1.884       30.174       45.164       24.478      910.492     2039.812      599.180        0.710        0.177      103.157       15.658        0.023      336.378        7.639      869.693
12/22/2014  20:41:00     -105.625      -83.849       -9.428       34.159       34.244       21.784     1166.834     1172.647      474.557        1.054        0.141      134.860       16.380        0.015      336.369        7.623      869.699
12/22/2014  20:42:00      -45.756      -61.462       14.073       51.615       33.556       26.645     2664.153     1126.029      709.940        0.528        0.225       76.624       26.328        0.118      336.356        7.602      869.710
12/22/2014  20:43:00      -93.970      -66.618       -4.647       64.918       34.641       27.453     4214.401     1200.027      753.649        0.973        0.308      115.188       27.833        0.058      336.289        7.490      869.704
12/22/2014  20:44:00      -58.330      -59.182       13.086       38.985       44.774       22.857     1519.804     2004.714      522.465        0.556        0.202       83.096       22.162        0.071      336.326        7.552      869.696
12/22/2014  20:45:00      -35.086      -26.196        8.891       30.191       40.170       24.051      911.517     1613.649      578.466        0.255        0.155       43.786       22.763        0.270      336.368        7.623      869.710
12/22/2014  20:46:00      -37.168      -81.624        4.612       60.298       49.894       25.253     3635.817     2489.461      637.715        0.741        0.338       89.688       26.079        0.085      336.404        7.682      869.715
12/22/2014  20:47:00      -72.489     -108.440        1.862       42.923       62.586       29.385     1842.390     3917.012      863.491        1.182        0.331      130.437       25.846        0.039      336.429        7.723      869.715
12/22/2014  20:48:00      -79.564      -83.135        9.356       55.346       43.724       27.729     3063.145     1911.823      768.921        0.954        0.287      115.074       24.069        0.044      336.380        7.641      869.722
12/22/2014  20:49:00      -65.297      -58.723        1.075       45.181       38.615       30.404     2041.301     1491.117      924.411        0.608        0.223       87.819       29.845        0.115      336.450        7.760      869.702
12/22/2014  20:50:00      -83.400      -61.959        2.735       63.210       38.879       29.136     3995.477     1511.563      848.908        0.858        0.318      103.897       23.640        0.052      336.373        7.632      869.678
12/22/2014  20:51:00     -110.931      -58.113       -3.072       44.592       40.736       19.877     1988.438     1659.439      395.113        0.987        0.202      125.231       16.647        0.018      336.374        7.634      869.667
12/22/2014  20:52:00      -89.389      -79.590        9.654       66.821       44.163       29.753     4465.050     1950.348      885.268        1.086        0.365      119.687       31.838        0.071      336.284        7.483      869.647
12/22/2014  20:53:00     -112.809      -86.252        5.216       74.115       49.978       27.519     5493.001     2497.825      757.281        1.447        0.437      142.004       31.374        0.049      336.247        7.420      869.629
12/22/2014  20:54:00     -114.060      -88.159       -9.793       45.764       48.003       31.641     2094.386     2304.284     1001.161        1.314        0.270      144.159       23.891        0.027      336.301        7.510      869.619
12/22/2014  20:55:00      -71.436      -52.339        1.703       64.977       41.585       28.748     4221.979     1729.330      826.470        0.731        0.339       88.558       28.047        0.100      336.278        7.471      869.619
12/22/2014  20:56:00     -113.684     -103.979       -5.785       55.930       48.711       30.629     3128.133     2372.768      938.155        1.510        0.322      154.064       33.333        0.047      336.241        7.408      869.621
12/22/2014  20:57:00      -51.675      -95.097       -0.013       50.680       48.274       27.417     2568.417     2330.395      751.669        0.868        0.283      108.230       17.212        0.025      336.297        7.504      869.630
12/22/2014  20:58:00      -34.859     -107.268        4.742       39.315       58.696       27.402     1545.687     3445.188      750.846        0.924        0.287      112.790       16.763        0.022      336.335        7.568      869.632
12/22/2014  20:59:00      -27.155      -55.484       -2.775       47.757       48.525       33.360     2280.707     2354.645     1112.910        0.478        0.287       61.772       33.524        0.295      336.337        7.572      869.621
12/22/2014  21:00:00      -29.567      -27.364       13.766       40.767       52.501       18.295     1661.958     2756.394      334.692        0.328        0.238       40.286       15.963        0.157      336.423        7.715      869.622
12/22/2014  21:01:00     -104.247      -15.753       -1.470       45.685       41.869       19.973     2087.146     1753.004      398.906        0.768        0.212      105.430       20.343        0.037      336.367        7.622      869.622
12/22/2014  21:02:00     -153.382        4.807      -16.693       42.940       30.659       26.339     1843.886      939.948      693.724        1.365        0.174      153.458       27.486        0.032      336.354        7.600      869.629
12/22/2014  21:03:00     -141.883      -29.245      -12.589       33.554       23.958       18.391     1125.884      573.987      338.220        1.159        0.102      144.866       15.924        0.012      336.103        7.180      869.630
12/22/2014  21:04:00     -117.423      -39.096       -5.775       33.403       25.489       20.872     1115.744      649.674      435.657        0.878        0.110      123.760       19.533        0.025      336.122        7.213      869.630
12/22/2014  21:05:00     -105.566      -61.454       -0.323       24.934       27.945       20.533      621.717      780.912      421.590        0.837        0.091      122.151       12.686        0.011      336.074        7.130      869.647
12/22/2014  21:06:00     -114.832      -24.524       -4.286       23.369       23.746       17.417      546.103      563.854      303.362        0.761        0.071      117.422       15.255        0.017      336.038        7.071      869.654
12/22/2014  21:07:00     -140.528        4.240       -9.038       43.550       30.646       28.117     1896.561      939.154      790.572        1.174        0.181      140.592       25.183        0.032      336.010        7.025      869.659
12/22/2014  21:08:00     -148.869       20.581      -10.695       68.900       43.027       34.130     4747.174     1851.356     1164.890        1.523        0.388      150.285       32.297        0.046      336.168        7.290      869.653
12/22/2014  21:09:00     -152.114      -43.302       -4.635       57.607       39.587       26.428     3318.603     1567.132      698.423        1.531        0.279      158.157       30.983        0.038      335.872        6.794      869.646
12/22/2014  21:10:00     -135.833      -70.724       -9.270       35.029       32.088       20.941     1227.016     1029.670      438.513        1.312        0.135      153.142       18.679        0.015      335.869        6.790      869.653
12/22/2014  21:11:00     -119.000      -40.984       -7.118       31.123       28.965       18.201      968.631      838.984      331.286        0.901        0.107      125.860       12.832        0.010      335.887        6.818      869.665
12/22/2014  21:12:00      -76.236      -32.769      -10.577       31.071       35.508       14.737      965.377     1260.801      217.166        0.472        0.122       82.981       11.860        0.020      335.958        6.938      869.679
12/22/2014  21:13:00      -53.779      -18.585       -8.151       19.410       28.116       15.014      376.747      790.486      225.424        0.235        0.070       56.899       15.149        0.071      336.005        7.015      869.687
12/22/2014  21:14:00      -47.917      -47.885       -6.877       30.638       27.441       13.967      938.681      752.994      195.070        0.326        0.094       67.743       12.452        0.034      336.112        7.194      869.689
12/22/2014  21:15:00      -20.754      -37.964        2.314       16.361       11.250        6.618      267.685      126.565       43.793        0.116        0.022       43.266        6.092        0.020      336.399        7.675      869.685
12/22/2014  21:16:00       -0.644      -49.922        3.534       17.173       23.783       13.919      294.910      565.636      193.751        0.178        0.053       49.927        7.403        0.022      336.532        7.900      869.696
12/22/2014  21:17:00      -24.992      -68.891       -0.891       15.642       12.971        9.798      244.671      168.254       96.005        0.294        0.025       73.284        9.007        0.015      336.644        8.085      869.710
12/22/2014  21:18:00       40.244      -35.012       -1.982       27.752       37.799       23.503      770.160     1428.790      552.377        0.280        0.138       53.342       24.444        0.210      336.274        7.466      869.723
12/22/2014  21:19:00        4.682       20.249       44.123       16.320       22.752       13.546      266.327      517.640      183.501        0.167        0.048       20.783        9.158        0.194      336.098        7.172      869.727
12/22/2014  21:20:00       -0.710       -1.517       31.774       18.126       28.798       23.508      328.565      829.317      552.614        0.136        0.086        1.675       20.447      149.095      336.046        7.083      869.743
12/22/2014  21:21:00       -5.198       -6.265       18.054       13.294       12.621       10.923      176.734      159.299      119.321        0.042        0.023        8.141        7.757        0.908      335.977        6.968      869.748
12/22/2014  21:22:00       29.007      -23.924        1.104       18.730       31.304       22.457      350.801      979.961      504.326        0.162        0.092       37.600       24.968        0.441      336.074        7.131      869.762
12/22/2014  21:23:00       14.288      -38.615      -10.607       18.869       22.636       17.568      356.022      512.407      308.622        0.149        0.059       41.173       13.489        0.107      336.131        7.226      869.762
12/22/2014  21:24:00      -40.391      -13.612       -4.986       14.712       14.372        7.806      216.430      206.544       60.932        0.116        0.024       42.623        5.300        0.015      336.222        7.379      869.762
12/22/2014  21:25:00      -10.915       -6.328       -0.583        8.082       11.431        8.430       65.317      130.667       71.068        0.021        0.013       12.616        6.962        0.304      336.333        7.566      869.752
12/22/2014  21:26:00      -13.535        5.457        4.341       10.874        8.272        7.834      118.238       68.426       61.377        0.024        0.012       14.594        7.622        0.273      336.214        7.367      869.748
12/22/2014  21:27:00       -3.354        7.984        9.589       16.900        6.836        7.937      285.609       46.731       62.993        0.028        0.020        8.659        3.853        0.198      336.179        7.306      869.746
12/22/2014  21:28:00      -27.868       10.647        8.129       17.319       13.779       16.410      299.934      189.874      269.286        0.086        0.038       29.832       10.275        0.119      336.326        7.553      869.747
12/22/2014  21:29:00      -27.843       12.108        7.917       16.272       16.339       10.191      264.793      266.972      103.848        0.081        0.032       30.361        7.664        0.064      336.488        7.823      869.742
12/22/2014  21:30:00       12.272        7.015        8.418       14.613       10.694        6.649      213.548      114.370       44.208        0.032        0.019       14.135        7.797        0.304      336.429        7.726      869.747
12/22/2014  21:31:00       30.980       13.839       11.173       16.664       15.312       16.166      277.678      234.465      261.347        0.102        0.039       33.930       11.684        0.119      336.100        7.174      869.748
12/22/2014  21:32:00       11.174       20.402       35.324       30.365       29.359       19.269      922.016      861.972      371.300        0.197        0.108       23.261       15.507        0.444      335.826        6.720      869.744
12/22/2014  21:33:00       11.503       13.730       19.209       24.552       25.340       23.224      602.789      642.122      539.360        0.124        0.089       17.912       17.458        0.950      335.748        6.589      869.735
12/22/2014  21:34:00        5.400        4.607       17.825       20.516       15.489       11.238      420.914      239.895      126.286        0.058        0.039        7.098        8.849        1.554      335.707        6.520      869.728
12/22/2014  21:35:00      -51.145       -8.158       -9.145       26.879        8.563       12.504      722.506       73.328      156.346        0.186        0.048       51.791       14.923        0.083      335.889        6.823      869.717
12/22/2014  21:36:00      -54.543      -28.601       -6.201       13.061       12.408        7.723      170.586      153.966       59.645        0.211        0.019       61.587        4.756        0.006      335.932        6.895      869.704
12/22/2014  21:37:00      -22.465      -31.912        3.980       26.218       12.127        9.432      687.394      147.071       88.959        0.123        0.046       39.027        6.492        0.028      335.763        6.615      869.706
12/22/2014  21:38:00        9.999      -14.974        5.396       10.964       12.094        9.762      120.205      146.276       95.296        0.036        0.018       18.006        9.786        0.295      335.875        6.801      869.711
12/22/2014  21:39:00        5.944        1.946       11.821        8.007        4.046        5.287       64.114       16.372       27.951        0.014        0.005        6.254        1.857        0.088      335.809        6.690      869.732
12/22/2014  21:40:00      -14.612       11.898       -1.799       12.552       14.637       10.165      157.553      214.236      103.336        0.042        0.024       18.843       11.179        0.352      336.002        7.011      869.757
12/22/2014  21:41:00      -29.416       24.453       -8.507       13.627       16.463        9.546      185.692      271.045       91.130        0.104        0.027       38.252        4.087        0.011      336.183        7.312      869.782
12/22/2014  21:42:00      -15.518      -11.837        7.403       15.502       19.539       12.158      240.318      381.789      147.821        0.060        0.038       19.517       10.803        0.306      336.189        7.324      869.799
12/22/2014  21:43:00       -5.396       -9.756        2.693        9.271        7.477        7.377       85.959       55.905       54.418        0.016        0.010       11.149        3.965        0.126      335.924        6.879      869.826
12/22/2014  21:44:00       28.883       32.644       21.179       13.688       17.175        9.265      187.348      294.969       85.835        0.146        0.028       43.588        5.262        0.015      335.709        6.523      869.847
12/22/2014  21:45:00       16.008       35.065       36.987       17.102       23.253       12.310      292.483      540.680      151.541        0.192        0.049       38.546        5.875        0.023      335.652        6.429      869.862
12/22/2014  21:46:00       39.289       31.111       38.054       37.103       26.319       18.939     1376.603      692.710      358.688        0.319        0.121       50.115       16.358        0.107      335.732        6.562      869.865
12/22/2014  21:47:00       -0.039       19.824       39.791       18.132       20.298       12.899      328.765      411.989      166.395        0.144        0.045       19.824       14.365        0.525      335.735        6.569      869.863
12/22/2014  21:48:00       17.409      -46.395        3.508       30.898       24.910       19.912      954.672      620.502      396.483        0.222        0.099       49.553       19.106        0.149      335.806        6.686      869.856
12/22/2014  21:49:00      -38.253        1.057       -0.003       22.588        9.826       10.504      510.235       96.549      110.343        0.109        0.036       38.268        7.992        0.044      335.534        6.230      869.833
12/22/2014  21:50:00      -12.001       16.801        4.181       29.051       17.995       16.523      843.989      323.810      273.009        0.094        0.072       20.647       11.603        0.316      335.682        6.478      869.804
12/22/2014  21:51:00      -37.611        1.393        8.706       45.803       26.129       21.878     2097.920      682.729      478.632        0.238        0.163       37.636       27.684        0.541      335.662        6.446      869.771
12/22/2014  21:52:00      -97.575      -10.044      -10.899       23.013       25.163       15.535      529.616      633.174      241.329        0.557        0.070       98.091       11.223        0.013      335.675        6.468      869.745
12/22/2014  21:53:00      -65.861      -18.293       -2.112       30.790       32.348       12.943      948.021     1046.390      167.510        0.342        0.108       68.354       13.821        0.041      335.628        6.389      869.730
12/22/2014  21:54:00     -114.892      -13.468       -9.803       20.420       21.109       11.901      416.968      445.594      141.628        0.724        0.050      115.679       12.458        0.012      335.674        6.465      869.726
12/22/2014  21:55:00     -120.126      -10.969       -7.339       27.103       28.662       15.241      734.558      821.529      232.285        0.820        0.089      120.626       14.402        0.014      335.677        6.470      869.729
12/22/2014  21:56:00      -95.704      -22.910       -7.567       22.404       24.660       16.797      501.931      608.115      282.139        0.557        0.070       98.408        8.823        0.008      335.521        6.210      869.730
12/22/2014  21:57:00     -105.811      -24.815       -0.613       32.796       37.024       18.604     1075.603     1370.785      346.123        0.730        0.140      108.682       15.882        0.021      335.567        6.287      869.720
12/22/2014  21:58:00     -121.510      -12.372       -1.941       30.450       26.754       16.927      927.197      715.762      286.510        0.843        0.096      122.138        4.367        0.001      335.528        6.222      869.724
12/22/2014  21:59:00     -136.566       -1.060       -8.915       41.806       24.538       18.118     1747.702      602.104      328.260        1.070        0.134      136.570       13.237        0.009      335.622        6.377      869.736
12/22/2014  22:00:00     -109.522       -8.577       -9.123       43.611       32.184       20.725     1901.891     1035.780      429.514        0.776        0.168      109.858       23.177        0.045      335.615        6.367      869.740
12/22/2014  22:01:00      -83.412      -28.618       -5.574       41.064       29.739       20.332     1686.273      884.397      413.371        0.540        0.149       88.184       21.027        0.057      335.581        6.310      869.754
12/22/2014  22:02:00      -94.365      -15.640       -2.435       34.729       30.825       21.676     1206.109      950.190      469.845        0.589        0.131       95.652       20.946        0.048      335.672        6.462      869.766
12/22/2014  22:03:00      -44.648      -31.982        4.851       30.363       28.801       15.818      921.884      829.471      250.211        0.252        0.100       54.920       17.098        0.097      335.597        6.336      869.775
12/22/2014  22:04:00      -67.293      -48.070        2.505       35.414       15.908       13.300     1254.182      253.079      176.881        0.426        0.084       82.699       15.278        0.034      335.586        6.319      869.784
12/22/2014  22:05:00      -87.586      -30.863       -9.223       20.334       23.177       13.088      413.454      537.158      171.307        0.492        0.056       92.864       12.709        0.019      335.424        6.047      869.793
12/22/2014  22:06:00     -103.843      -36.743      -11.390       29.003       20.674       14.771      841.176      427.426      218.178        0.687        0.074      110.151       12.825        0.014      335.379        5.971      869.811
12/22/2014  22:07:00     -125.528      -24.291      -12.190       32.262       31.253       18.612     1040.822      976.744      346.401        0.943        0.118      127.857       15.893        0.015      335.321        5.876      869.827
12/22/2014  22:08:00     -122.633      -13.701       -7.880       40.479       31.812       25.016     1638.548     1012.006      625.801        0.928        0.164      123.396       22.246        0.033      335.313        5.862      869.843
12/22/2014  22:09:00     -131.251        7.662      -11.349       54.608       27.418       24.343     2982.015      751.722      592.603        1.087        0.216      131.474       25.378        0.037      335.474        6.133      869.859
12/22/2014  22:10:00     -123.567      -12.967       -9.952       48.089       33.682       26.188     2312.519     1134.463      685.827        0.983        0.207      124.246       26.432        0.045      335.385        5.983      869.882
12/22/2014  22:11:00     -131.544       -8.567       -4.738       45.980       42.260       25.132     2114.155     1785.938      631.605        1.096        0.227      131.823       24.513        0.035      335.332        5.895      869.894
12/22/2014  22:12:00      -69.876      -15.146        0.920       38.271       30.788       21.166     1464.704      947.899      448.008        0.399        0.143       71.499       16.066        0.050      335.392        5.996      869.894
12/22/2014  22:13:00      -94.704      -20.171       -5.436       43.853       37.571       21.827     1923.073     1411.556      476.409        0.661        0.191       96.828       18.322        0.036      335.198        5.673      869.897
12/22/2014  22:14:00     -125.492      -12.373       -6.575       48.010       39.238       24.130     2304.960     1539.660      582.243        1.018        0.221      126.100       25.532        0.041      335.198        5.672      869.902
12/22/2014  22:15:00     -131.248      -21.103       -8.077       58.033       44.873       30.068     3367.853     2013.563      904.061        1.201        0.314      132.933       31.237        0.055      335.193        5.665      869.914
12/22/2014  22:16:00      -81.302        5.609       -2.246       49.035       39.608       25.324     2404.384     1568.770      641.309        0.563        0.231       81.495       18.912        0.054      335.440        6.076      869.925
12/22/2014  22:17:00     -131.799       16.212      -11.419       41.204       39.859       24.511     1697.744     1588.752      600.788        1.082        0.194      132.792       20.769        0.024      335.434        6.065      869.931
12/22/2014  22:18:00     -124.493       10.522      -10.988       52.657       39.414       27.233     2772.744     1553.495      741.630        1.040        0.253      124.937       29.131        0.054      335.320        5.876      869.938
12/22/2014  22:19:00     -121.132       25.144       -8.697       51.743       36.552       21.688     2677.317     1336.019      470.382        0.993        0.224      123.714       23.809        0.037      335.358        5.937      869.946
12/22/2014  22:20:00      -96.661       25.285      -12.205       37.450       56.398       17.340     1402.507     3180.730      300.671        0.751        0.244       99.913        7.625        0.006      335.437        6.069      869.958
12/22/2014  22:21:00      -74.642      -22.810        6.484       30.928       38.199       24.615      956.565     1459.183      605.907        0.458        0.151       78.050       20.836        0.071      335.354        5.930      869.963
12/22/2014  22:22:00     -140.370       12.302      -16.115       37.680       32.248       25.237     1419.796     1039.957      636.903        1.161        0.155      140.908       20.120        0.020      335.375        5.966      869.964
12/22/2014  22:23:00     -117.325        4.178      -12.722       41.704       39.657       20.378     1739.182     1572.639      415.254        0.884        0.186      117.399       15.629        0.018      335.672        6.460      869.960
12/22/2014  22:24:00     -100.153      -14.695       -2.743       43.918       41.752       25.671     1928.809     1743.242      658.998        0.729        0.217      101.225       25.336        0.063      335.486        6.152      869.963
12/22/2014  22:25:00      -72.022       -6.991       -0.312       52.097       32.701       26.105     2714.047     1069.339      681.458        0.485        0.223       72.361       24.525        0.115      335.369        5.957      869.978
12/22/2014  22:26:00     -106.495        4.406      -10.534       50.051       33.063       23.418     2505.072     1093.174      548.401        0.781        0.207      106.586       23.922        0.050      335.448        6.088      869.971
12/22/2014  22:27:00     -134.249       10.497      -10.934       39.259       33.768       24.484     1541.249     1140.272      599.490        1.077        0.164      134.659       20.034        0.022      335.394        5.999      869.948
12/22/2014  22:28:00     -132.792       32.390       -9.626       39.839       33.507       26.200     1587.150     1122.731      686.417        1.109        0.170      136.685       19.641        0.021      335.413        6.030      869.930
12/22/2014  22:29:00     -125.100       19.511      -11.987       41.756       31.875       24.896     1743.529     1016.028      619.834        0.978        0.169      126.612       21.124        0.028      335.345        5.917      869.921
12/22/2014  22:30:00     -133.263       20.339      -10.875       39.380       33.972       20.961     1550.789     1154.099      439.357        1.072        0.157      134.806       16.263        0.015      335.308        5.855      869.923
12/22/2014  22:31:00     -129.784       16.574      -15.524       28.724       28.823       18.677      825.088      830.778      348.835        0.968        0.100      130.838       13.161        0.010      335.076        5.470      869.922
12/22/2014  22:32:00     -101.340       -3.304       -6.724       43.592       29.446       21.420     1900.267      867.058      458.797        0.678        0.161      101.394       21.887        0.047      334.905        5.187      869.931
12/22/2014  22:33:00     -118.639        1.527      -11.055       31.187       37.221       19.775      972.651     1385.402      391.053        0.847        0.137      118.649       14.606        0.015      335.009        5.360      869.950
12/22/2014  22:34:00     -119.188        4.267       -9.914       31.523       29.072       19.965      993.683      845.162      398.619        0.828        0.112      119.264       13.860        0.014      334.978        5.307      869.979
12/22/2014  22:35:00      -98.917      -10.090       -9.558       28.920       33.899       20.640      836.369     1149.162      426.002        0.619        0.121       99.430       10.145        0.010      334.938        5.240      870.002
12/22/2014  22:36:00     -104.537       -0.944       -6.296       48.581       28.292       22.247     2360.155      800.462      494.916        0.731        0.183      104.541       25.021        0.057      334.923        5.216      870.014
12/22/2014  22:37:00      -50.541        2.106       -0.898       32.850       30.936       16.881     1079.105      957.023      284.977        0.244        0.116       50.585       14.483        0.082      334.929        5.226      870.018
12/22/2014  22:38:00      -76.907      -35.476       -5.101       24.734       25.943       12.419      611.747      673.025      154.221        0.432        0.072       84.695        6.350        0.006      334.860        5.112      870.009
12/22/2014  22:39:00     -102.814      -24.165      -13.102       22.338       23.370       16.689      499.004      546.147      278.513        0.632        0.066      105.616        8.243        0.006      334.791        4.996      870.001
12/22/2014  22:40:00     -124.358      -36.969      -13.385       20.747       18.743       17.044      430.456      351.287      290.487        0.904        0.054      129.737       10.664        0.007      334.738        4.908      870.001
12/22/2014  22:41:00     -103.165      -44.357       -9.607       18.393       26.063       14.797      338.284      679.306      218.956        0.697        0.062      112.297        9.867        0.008      334.732        4.898      869.991
12/22/2014  22:42:00     -147.621      -15.959      -19.882       31.129       25.044       17.157      969.007      627.183      294.359        1.217        0.095      148.482       11.641        0.006      334.696        4.838      869.996
12/22/2014  22:43:00     -108.229      -25.202      -13.090       26.066       27.458       17.255      679.424      753.962      297.732        0.713        0.087      111.125       15.362        0.019      334.667        4.791      870.007
12/22/2014  22:44:00      -90.553      -31.992      -11.236       27.668       28.795       12.229      765.524      829.157      149.536        0.555        0.087       96.038        9.080        0.009      334.712        4.866      870.021
12/22/2014  22:45:00      -50.192      -19.174       -8.088       34.641       34.674       19.974     1199.971     1202.299      398.962        0.288        0.140       53.730       17.926        0.111      335.062        5.446      870.023
12/22/2014  22:46:00     -113.273      -19.821      -10.701       37.074       39.891       24.818     1374.471     1591.317      615.937        0.846        0.179      114.994       14.449        0.016      335.023        5.382      870.015
12/22/2014  22:47:00      -75.194       -7.340       -5.421       62.683       45.565       24.923     3929.150     2076.199      621.167        0.618        0.331       75.551       26.597        0.124      335.050        5.427      870.000
12/22/2014  22:48:00     -145.844        0.028      -24.506       51.721       35.493       22.709     2675.075     1259.760      515.714        1.316        0.223      145.844       11.014        0.006      335.222        5.713      869.986
12/22/2014  22:49:00     -127.756      -32.667      -16.505       47.731       41.591       27.145     2278.249     1729.780      736.842        1.120        0.237      131.866       19.844        0.023      335.011        5.362      869.970
12/22/2014  22:50:00     -140.337      -21.436      -12.623       40.273       47.365       22.864     1621.910     2243.484      522.765        1.235        0.219      141.965       17.224        0.015      334.881        5.146      869.944
12/22/2014  22:51:00     -148.566       -1.368      -16.170       56.895       46.267       26.548     3237.065     2140.650      704.775        1.421        0.304      148.572       24.621        0.027      334.866        5.122      869.922
12/22/2014  22:52:00     -182.515        8.013      -22.938       46.716       39.416       25.835     2182.366     1553.653      667.446        1.915        0.220      182.691       19.757        0.012      335.016        5.370      869.914
12/22/2014  22:53:00     -196.469       25.866      -17.000       53.531       37.358       30.055     2865.582     1395.648      903.314        2.236        0.258      198.165       27.860        0.020      334.981        5.309      869.916
12/22/2014  22:54:00     -204.959       66.007      -25.697       62.357       38.288       32.735     3888.405     1465.941     1071.611        2.672        0.321      215.325       28.069        0.017      335.044        5.414      869.917
12/22/2014  22:55:00     -215.220       53.603      -19.582       70.996       47.131       34.164     5040.387     2221.333     1167.174        2.900        0.421      221.794       34.101        0.024      335.021        5.376      869.912
12/22/2014  22:56:00     -155.275        7.731      -22.325       56.633       59.137       27.441     3207.249     3497.132      752.994        1.606        0.373      155.467       25.794        0.028      334.938        5.240      869.901
12/22/2014  22:57:00      -95.314        4.676      -24.788       37.654       62.086       25.533     1417.796     3854.616      651.917        0.782        0.296       95.429       24.863        0.068      334.984        5.318      869.902
12/22/2014  22:58:00      -77.441      -58.863      -19.847       44.258       37.672       32.777     1958.798     1419.177     1074.345        0.715        0.223       97.273       27.618        0.081      334.962        5.282      869.915
12/22/2014  22:59:00      -69.603      -19.450      -14.258       36.333       53.752       28.971     1320.119     2889.327      839.324        0.524        0.252       72.270       25.100        0.121      335.055        5.436      869.931
12/22/2014  23:00:00      -77.631      -16.166       -8.569       27.352       27.930       24.213      748.135      780.086      586.276        0.424        0.106       79.296       12.466        0.025      335.198        5.671      869.940
12/22/2014  23:01:00      -46.083      -24.348       -5.233       29.496       24.536       14.698      870.031      602.028      216.036        0.222        0.084       52.120       11.755        0.051      335.328        5.887      869.964
12/22/2014  23:02:00      -64.137      -38.240      -10.251       23.083       15.740       11.312      532.809      247.743      127.970        0.329        0.045       74.672        8.415        0.013      335.211        5.696      869.975
12/22/2014  23:03:00      -90.400      -35.091       -3.250       29.922       25.692       18.377      895.334      660.080      337.730        0.565        0.095       96.972       16.177        0.028      335.029        5.393      869.975
12/22/2014  23:04:00     -142.788      -39.489      -20.578       28.016       19.413       16.271      784.890      376.875      264.760        1.190        0.071      148.148       13.045        0.008      335.015        5.369      869.962
12/22/2014  23:05:00     -150.649      -35.306      -18.632       48.787       23.604       18.200     2380.219      557.169      331.236        1.378        0.163      154.731       19.368        0.016      335.002        5.348      869.948
12/22/2014  23:06:00     -162.006       -5.193      -15.735       68.421       47.580       32.266     4681.446     2263.870     1041.102        1.725        0.399      162.089       35.155        0.047      335.322        5.878      869.935
12/22/2014  23:07:00     -187.035       21.712      -24.035       33.257       36.258       20.938     1106.007     1314.631      438.420        1.944        0.143      188.291       14.522        0.006      335.244        5.749      869.919
12/22/2014  23:08:00     -154.274       16.572      -14.657       42.089       40.696       24.336     1771.521     1656.164      592.263        1.415        0.201      155.161       22.846        0.022      335.320        5.876      869.896
12/22/2014  23:09:00     -126.154       24.210      -14.355       46.337       38.022       18.254     2147.137     1445.642      333.202        1.032        0.196      128.456       20.859        0.026      335.410        6.025      869.874
12/22/2014  23:10:00      -71.135       -1.091       -8.196       28.792       31.128       18.785      828.974      968.963      352.878        0.364        0.108       71.143       10.903        0.023      335.469        6.122      869.850
12/22/2014  23:11:00      -88.062      -21.922       -6.331       28.781       28.964       20.199      828.373      838.894      408.010        0.518        0.104       90.750       14.001        0.024      335.337        5.902      869.823
12/22/2014  23:12:00      -92.413      -24.419       -6.281       38.290       34.586       20.936     1466.113     1196.163      438.296        0.614        0.155       95.585       17.309        0.033      335.196        5.669      869.796
12/22/2014  23:13:00      -84.774      -31.666       -4.486       41.096       27.686       19.954     1688.886      766.541      398.162        0.553        0.143       90.495       22.605        0.062      335.091        5.496      869.762
12/22/2014  23:14:00     -112.012      -32.319      -10.068       17.347       21.064       16.867      300.929      443.699      284.488        0.736        0.051      116.581        7.557        0.004      335.015        5.370      869.737
12/22/2014  23:15:00     -115.260      -40.807       -7.142       23.872       21.234       16.989      569.879      450.895      288.635        0.816        0.065      122.271       14.487        0.014      334.983        5.316      869.721
12/22/2014  23:16:00     -116.696      -41.918       -7.219       32.264       20.645       20.402     1040.951      426.220      416.254        0.865        0.094      123.996       19.733        0.025      334.967        5.288      869.701
12/22/2014  23:17:00     -131.031      -34.106       -5.397       44.221       22.642       18.296     1955.505      512.645      334.732        1.058        0.140      135.397       22.276        0.027      334.947        5.257      869.679
12/22/2014  23:18:00     -159.165      -54.211       -5.927       29.018       25.602       19.414      842.044      655.460      376.893        1.509        0.094      168.144       15.634        0.009      334.961        5.278      869.663
12/22/2014  23:19:00     -135.862      -39.067       -6.291       40.290       37.823       21.529     1623.285     1430.585      463.488        1.177        0.176      141.368       19.254        0.019      334.959        5.276      869.661
12/22/2014  23:20:00     -127.589      -52.618       -2.248       37.501       37.564       19.827     1406.319     1411.063      393.112        1.113        0.161      138.013       19.432        0.020      334.971        5.297      869.659
12/22/2014  23:21:00     -110.661      -75.354       -6.495       46.908       41.341       23.552     2200.341     1709.092      554.685        1.121        0.223      133.881       21.126        0.025      334.946        5.255      869.662
12/22/2014  23:22:00     -139.466      -73.537       -0.363       35.582       29.910       22.028     1266.109      894.593      485.252        1.375        0.132      157.666       11.202        0.005      334.937        5.239      869.663
12/22/2014  23:23:00      -94.308      -73.770       -0.660       49.036       34.825       25.364     2404.492     1212.754      643.318        0.930        0.213      119.733       17.777        0.022      334.913        5.200      869.665
12/22/2014  23:24:00      -70.227      -60.672       -0.224       56.154       41.971       25.790     3153.327     1761.564      665.142        0.710        0.279       92.806       24.794        0.071      334.915        5.204      869.655
12/22/2014  23:25:00     -108.575      -72.022       -0.472       40.171       28.740       22.582     1613.675      825.961      509.925        0.996        0.147      130.290       17.785        0.019      334.914        5.201      869.650
12/22/2014  23:26:00      -50.520      -38.274        8.617       57.397       41.160       31.155     3294.416     1694.155      970.626        0.502        0.298       63.381       30.596        0.233      334.864        5.117      869.645
12/22/2014  23:27:00      -89.684      -64.640        0.500       49.958       33.956       26.263     2495.827     1153.016      689.767        0.828        0.217      110.551       27.893        0.064      334.816        5.039      869.646
12/22/2014  23:28:00      -61.818      -62.704       10.355       51.285       42.065       28.915     2630.106     1769.433      836.097        0.655        0.262       88.053       28.604        0.106      334.888        5.158      869.649
12/22/2014  23:29:00      -48.559      -31.363        3.809       35.992       31.580       21.522     1295.399      997.305      463.191        0.306        0.138       57.807       18.785        0.106      334.904        5.183      869.650
12/22/2014  23:30:00      -52.867      -51.811        5.202       43.952       35.835       20.150     1931.785     1284.160      406.015        0.456        0.181       74.022       20.725        0.078      334.917        5.207      869.634
12/22/2014  23:31:00      -75.117      -67.064        6.145       44.594       36.826       25.026     1988.632     1356.165      626.287        0.707        0.199      100.698       24.088        0.057      334.887        5.156      869.623
12/22/2014  23:32:00     -125.152      -86.295       -4.264       36.810       36.432       22.184     1354.966     1327.325      492.145        1.315        0.159      152.019       21.415        0.020      334.870        5.127      869.605
12/22/2014  23:33:00     -109.189      -76.825        7.802       44.204       33.840       27.715     1953.981     1145.166      768.135        1.088        0.193      133.508       24.979        0.035      334.854        5.101      869.588
12/22/2014  23:34:00     -101.593     -100.573       -1.146       38.901       37.026       26.211     1513.274     1370.911      687.033        1.200        0.179      142.955       22.420        0.025      334.864        5.118      869.563
12/22/2014  23:35:00     -131.975      -90.636        1.262       59.779       43.797       29.652     3573.570     1918.185      879.218        1.600        0.319      160.101       30.424        0.036      334.832        5.063      869.548
12/22/2014  23:36:00     -126.434      -66.594       -4.063       46.268       37.201       27.842     2140.698     1383.892      775.157        1.237        0.215      142.899       22.175        0.024      334.819        5.043      869.525
12/22/2014  23:37:00     -141.194      -40.090       -2.805       44.315       36.876       24.413     1963.827     1359.851      596.004        1.273        0.196      146.776       21.039        0.021      334.848        5.090      869.512
12/22/2014  23:38:00     -166.251      -38.483       -9.447       20.070       31.448       19.051      402.788      988.968      362.959        1.548        0.088      170.647       13.377        0.006      334.853        5.099      869.498
12/22/2014  23:39:00     -122.059      -33.255       -3.765       37.348       28.164       23.534     1394.890      793.190      553.841        0.938        0.137      126.508       20.236        0.026      334.842        5.081      869.504
12/22/2014  23:40:00     -131.043      -31.140       -4.968       31.234       29.933       21.174      975.542      895.977      448.348        1.024        0.116      134.692       13.851        0.011      334.851        5.096      869.517
12/22/2014  23:41:00     -137.653      -44.387       -4.789       30.302       27.201       16.545      918.231      739.920      273.736        1.144        0.097      144.633       15.704        0.012      334.784        4.984      869.536
12/22/2014  23:42:00     -102.527      -44.897        3.513       50.502       33.016       21.413     2550.460     1090.065      458.497        0.832        0.205      111.926       25.451        0.052      334.837        5.073      869.546
12/22/2014  23:43:00      -93.223      -38.328        8.127       41.623       28.797       21.169     1732.450      829.278      448.113        0.662        0.150      100.795       24.380        0.059      334.791        4.997      869.553
12/22/2014  23:44:00      -63.206      -50.573        6.591       42.443       29.272       24.110     1801.382      856.833      581.300        0.492        0.162       80.948       23.515        0.084      334.807        5.023      869.559
12/22/2014  23:45:00      -44.151      -43.018        5.028       42.806       34.876       22.829     1832.340     1216.339      521.146        0.370        0.178       61.643       18.961        0.095      334.764        4.952      869.563
12/22/2014  23:46:00     -101.441      -59.561        1.409       32.499       26.374       21.029     1056.173      695.587      442.237        0.802        0.110      117.634       18.337        0.024      334.860        5.110      869.573
12/22/2014  23:47:00     -135.026      -64.915       -6.465       21.310       17.268       12.071      454.128      298.183      145.704        1.169        0.045      149.820        5.109        0.001      334.942        5.247      869.575
12/22/2014  23:48:00     -124.298      -85.407       -3.045       41.829       30.154       25.538     1749.679      909.278      652.169        1.303        0.166      150.813       19.429        0.017      334.927        5.221      869.561
12/22/2014  23:49:00     -135.812      -84.248        0.285       50.102       37.775       31.394     2510.182     1426.983      985.587        1.523        0.246      159.821       29.921        0.035      334.925        5.218      869.539
12/22/2014  23:50:00     -149.507      -62.202        2.010       36.740       35.191       26.216     1349.815     1238.441      687.253        1.475        0.164      161.931       15.910        0.010      334.938        5.240      869.507
12/22/2014  23:51:00     -134.165      -76.020       -1.916       40.511       37.197       23.786     1641.130     1383.625      565.750        1.369        0.180      154.206       22.106        0.021      334.918        5.208      869.491
12/22/2014  23:52:00     -130.194      -70.800       -1.108       33.675       34.923       20.704     1133.979     1219.645      428.664        1.237        0.139      148.200       17.745        0.014      334.894        5.168      869.479
12/22/2014  23:53:00     -135.099      -46.207        3.722       52.954       29.431       28.526     2804.097      866.205      813.730        1.244        0.224      142.783       25.826        0.033      334.852        5.098      869.478
12/22/2014  23:54:00     -109.502      -65.000       -0.336       55.488       35.417       23.858     3078.971     1254.381      569.226        1.056        0.245      127.341       22.859        0.032      334.812        5.031      869.492
12/22/2014  23:55:00     -106.560      -76.099        1.444       34.165       40.848       24.888     1167.278     1668.550      619.422        1.030        0.173      130.943       23.140        0.031      334.825        5.054      869.522
12/22/2014  23:56:00      -91.986      -93.268       -4.745       33.868       31.565       22.381     1147.044      996.377      500.888        0.991        0.132      130.998       20.640        0.025      334.851        5.095      869.545
12/22/2014  23:57:00      -93.840      -65.970       -0.001       26.012       37.259       23.924      676.621     1388.256      572.360        0.790        0.132      114.708       17.969        0.025      334.852        5.097      869.578
12/22/2014  23:58:00     -123.529      -71.087       -6.305       24.061       25.631       17.472      578.914      656.940      305.273        1.095        0.077      142.523       16.387        0.013      334.844        5.085      869.598
12/22/2014  23:59:00     -128.071      -43.908      -14.786       22.797       20.429       14.110      519.716      417.348      199.092        0.984        0.057      135.389        8.837        0.004      334.813        5.032      869.618
